<?xml version="1.0" encoding="UTF-8" standalone="no" ?>
<gpx xmlns="http://www.topografix.com/GPX/1/1" xmlns:xsi="http://www.w3.org/2001/XMLSchema-instance" xsi:schemaLocation="http://www.topografix.com/GPX/1/1 http://www.topografix.com/GPX/1/1/gpx.xsd" version="1.1" creator="VisuGPX - https://www.visugpx.com">
  <metadata>
    <name>Circuit des trois églises, Latouille lentillac</name>
    <desc><![CDATA[Magnifique circuit empruntant d'abord un petit parcours "Art et Nature" puis se développant à travers collines et campagne, le long de ruisseaux tumultueux. Un petit détour permet de passer par l'église ND de Verdale, accrochée le long de la falaise bordant le Tolerme.]]></desc>
  </metadata>
  <trk>
    <name><![CDATA[Lentillac]]></name>
    <trkseg>
      <trkpt lat="44.85432" lon="1.96394">
        <ele>222.3</ele>
        <time>2018-05-20T09:05:19Z</time>
      </trkpt>
      <trkpt lat="44.85433" lon="1.96402">
        <ele>222.1</ele>
        <time>2018-05-20T09:05:26Z</time>
      </trkpt>
      <trkpt lat="44.85438" lon="1.96401">
        <ele>221.6</ele>
        <time>2018-05-20T09:05:32Z</time>
      </trkpt>
      <trkpt lat="44.85443" lon="1.964">
        <ele>221.1</ele>
        <time>2018-05-20T09:05:36Z</time>
      </trkpt>
      <trkpt lat="44.85448" lon="1.96397">
        <ele>220.6</ele>
        <time>2018-05-20T09:05:45Z</time>
      </trkpt>
      <trkpt lat="44.85453" lon="1.96398">
        <ele>220.1</ele>
        <time>2018-05-20T09:05:51Z</time>
      </trkpt>
      <trkpt lat="44.85458" lon="1.96401">
        <ele>219.6</ele>
        <time>2018-05-20T09:06:17Z</time>
      </trkpt>
      <trkpt lat="44.85462" lon="1.96404">
        <ele>219.4</ele>
        <time>2018-05-20T09:06:25Z</time>
      </trkpt>
      <trkpt lat="44.85466" lon="1.96406">
        <ele>219.2</ele>
        <time>2018-05-20T09:06:30Z</time>
      </trkpt>
      <trkpt lat="44.85471" lon="1.96408">
        <ele>219.2</ele>
        <time>2018-05-20T09:06:34Z</time>
      </trkpt>
      <trkpt lat="44.85476" lon="1.96408">
        <ele>219.2</ele>
        <time>2018-05-20T09:06:36Z</time>
      </trkpt>
      <trkpt lat="44.85481" lon="1.96408">
        <ele>219.2</ele>
        <time>2018-05-20T09:06:39Z</time>
      </trkpt>
      <trkpt lat="44.85486" lon="1.9641">
        <ele>219.4</ele>
        <time>2018-05-20T09:06:44Z</time>
      </trkpt>
      <trkpt lat="44.85491" lon="1.96411">
        <ele>219.9</ele>
        <time>2018-05-20T09:06:50Z</time>
      </trkpt>
      <trkpt lat="44.85495" lon="1.96414">
        <ele>220.4</ele>
        <time>2018-05-20T09:06:58Z</time>
      </trkpt>
      <trkpt lat="44.85501" lon="1.96412">
        <ele>221.3</ele>
        <time>2018-05-20T09:07:08Z</time>
      </trkpt>
      <trkpt lat="44.85505" lon="1.96411">
        <ele>222.3</ele>
        <time>2018-05-20T09:07:16Z</time>
      </trkpt>
      <trkpt lat="44.8551" lon="1.96412">
        <ele>223.3</ele>
        <time>2018-05-20T09:07:25Z</time>
      </trkpt>
      <trkpt lat="44.85515" lon="1.96412">
        <ele>224.3</ele>
        <time>2018-05-20T09:07:29Z</time>
      </trkpt>
      <trkpt lat="44.85519" lon="1.96415">
        <ele>225.4</ele>
        <time>2018-05-20T09:07:37Z</time>
      </trkpt>
      <trkpt lat="44.85524" lon="1.96418">
        <ele>226.4</ele>
        <time>2018-05-20T09:07:41Z</time>
      </trkpt>
      <trkpt lat="44.85529" lon="1.9642">
        <ele>227.4</ele>
        <time>2018-05-20T09:07:44Z</time>
      </trkpt>
      <trkpt lat="44.85533" lon="1.96423">
        <ele>228.4</ele>
        <time>2018-05-20T09:07:50Z</time>
      </trkpt>
      <trkpt lat="44.85537" lon="1.96426">
        <ele>229.1</ele>
        <time>2018-05-20T09:07:56Z</time>
      </trkpt>
      <trkpt lat="44.85542" lon="1.96429">
        <ele>230</ele>
        <time>2018-05-20T09:08:07Z</time>
      </trkpt>
      <trkpt lat="44.85546" lon="1.96431">
        <ele>231.4</ele>
        <time>2018-05-20T09:08:15Z</time>
      </trkpt>
      <trkpt lat="44.85551" lon="1.9643">
        <ele>233.4</ele>
        <time>2018-05-20T09:08:24Z</time>
      </trkpt>
      <trkpt lat="44.85556" lon="1.96432">
        <ele>235.4</ele>
        <time>2018-05-20T09:08:29Z</time>
      </trkpt>
      <trkpt lat="44.8556" lon="1.96435">
        <ele>237.8</ele>
        <time>2018-05-20T09:08:37Z</time>
      </trkpt>
      <trkpt lat="44.85565" lon="1.96438">
        <ele>239.9</ele>
        <time>2018-05-20T09:08:49Z</time>
      </trkpt>
      <trkpt lat="44.8557" lon="1.9644">
        <ele>241.3</ele>
        <time>2018-05-20T09:08:59Z</time>
      </trkpt>
      <trkpt lat="44.85574" lon="1.96444">
        <ele>242.4</ele>
        <time>2018-05-20T09:09:02Z</time>
      </trkpt>
      <trkpt lat="44.85579" lon="1.96447">
        <ele>243.4</ele>
        <time>2018-05-20T09:09:08Z</time>
      </trkpt>
      <trkpt lat="44.85586" lon="1.96449">
        <ele>244.1</ele>
        <time>2018-05-20T09:09:10Z</time>
      </trkpt>
      <trkpt lat="44.85591" lon="1.96447">
        <ele>245.2</ele>
        <time>2018-05-20T09:09:11Z</time>
      </trkpt>
      <trkpt lat="44.85596" lon="1.96449">
        <ele>246.4</ele>
        <time>2018-05-20T09:09:15Z</time>
      </trkpt>
      <trkpt lat="44.85601" lon="1.9645">
        <ele>247.5</ele>
        <time>2018-05-20T09:09:22Z</time>
      </trkpt>
      <trkpt lat="44.85606" lon="1.96452">
        <ele>248.6</ele>
        <time>2018-05-20T09:09:26Z</time>
      </trkpt>
      <trkpt lat="44.85611" lon="1.96455">
        <ele>249.7</ele>
        <time>2018-05-20T09:09:42Z</time>
      </trkpt>
      <trkpt lat="44.85615" lon="1.96456">
        <ele>250.5</ele>
        <time>2018-05-20T09:09:54Z</time>
      </trkpt>
      <trkpt lat="44.8562" lon="1.96459">
        <ele>251.5</ele>
        <time>2018-05-20T09:10:00Z</time>
      </trkpt>
      <trkpt lat="44.85625" lon="1.96461">
        <ele>253.1</ele>
        <time>2018-05-20T09:10:10Z</time>
      </trkpt>
      <trkpt lat="44.8563" lon="1.96463">
        <ele>254.7</ele>
        <time>2018-05-20T09:10:20Z</time>
      </trkpt>
      <trkpt lat="44.85634" lon="1.96465">
        <ele>256.6</ele>
        <time>2018-05-20T09:10:21Z</time>
      </trkpt>
      <trkpt lat="44.8564" lon="1.96468">
        <ele>258.8</ele>
        <time>2018-05-20T09:10:32Z</time>
      </trkpt>
      <trkpt lat="44.85644" lon="1.9647">
        <ele>260.7</ele>
        <time>2018-05-20T09:10:58Z</time>
      </trkpt>
      <trkpt lat="44.85649" lon="1.96471">
        <ele>262</ele>
        <time>2018-05-20T09:11:01Z</time>
      </trkpt>
      <trkpt lat="44.85659" lon="1.96479">
        <ele>263.3</ele>
        <time>2018-05-20T09:11:18Z</time>
      </trkpt>
      <trkpt lat="44.85665" lon="1.9648">
        <ele>264</ele>
        <time>2018-05-20T09:11:39Z</time>
      </trkpt>
      <trkpt lat="44.8567" lon="1.96482">
        <ele>264.4</ele>
        <time>2018-05-20T09:11:48Z</time>
      </trkpt>
      <trkpt lat="44.85675" lon="1.96486">
        <ele>264.7</ele>
        <time>2018-05-20T09:11:55Z</time>
      </trkpt>
      <trkpt lat="44.85683" lon="1.96484">
        <ele>264.8</ele>
        <time>2018-05-20T09:12:00Z</time>
      </trkpt>
      <trkpt lat="44.85688" lon="1.96484">
        <ele>264.8</ele>
        <time>2018-05-20T09:12:11Z</time>
      </trkpt>
      <trkpt lat="44.85696" lon="1.96494">
        <ele>265.2</ele>
        <time>2018-05-20T09:12:16Z</time>
      </trkpt>
      <trkpt lat="44.85701" lon="1.96496">
        <ele>265.5</ele>
        <time>2018-05-20T09:12:18Z</time>
      </trkpt>
      <trkpt lat="44.85706" lon="1.96499">
        <ele>265.7</ele>
        <time>2018-05-20T09:12:22Z</time>
      </trkpt>
      <trkpt lat="44.85714" lon="1.96497">
        <ele>265.8</ele>
        <time>2018-05-20T09:12:24Z</time>
      </trkpt>
      <trkpt lat="44.85719" lon="1.96503">
        <ele>265.9</ele>
        <time>2018-05-20T09:12:40Z</time>
      </trkpt>
      <trkpt lat="44.85722" lon="1.96508">
        <ele>265.7</ele>
        <time>2018-05-20T09:12:45Z</time>
      </trkpt>
      <trkpt lat="44.85728" lon="1.96508">
        <ele>265.6</ele>
        <time>2018-05-20T09:12:54Z</time>
      </trkpt>
      <trkpt lat="44.85732" lon="1.9651">
        <ele>265.5</ele>
        <time>2018-05-20T09:13:01Z</time>
      </trkpt>
      <trkpt lat="44.85739" lon="1.96512">
        <ele>265.5</ele>
        <time>2018-05-20T09:13:05Z</time>
      </trkpt>
      <trkpt lat="44.85743" lon="1.96512">
        <ele>265.3</ele>
        <time>2018-05-20T09:13:07Z</time>
      </trkpt>
      <trkpt lat="44.85748" lon="1.96513">
        <ele>265.1</ele>
        <time>2018-05-20T09:13:11Z</time>
      </trkpt>
      <trkpt lat="44.85754" lon="1.96513">
        <ele>265</ele>
        <time>2018-05-20T09:13:15Z</time>
      </trkpt>
      <trkpt lat="44.8576" lon="1.96512">
        <ele>265.2</ele>
        <time>2018-05-20T09:13:17Z</time>
      </trkpt>
      <trkpt lat="44.85764" lon="1.96517">
        <ele>265.6</ele>
        <time>2018-05-20T09:13:32Z</time>
      </trkpt>
      <trkpt lat="44.85768" lon="1.96521">
        <ele>266.5</ele>
        <time>2018-05-20T09:13:38Z</time>
      </trkpt>
      <trkpt lat="44.85772" lon="1.96525">
        <ele>267.4</ele>
        <time>2018-05-20T09:13:45Z</time>
      </trkpt>
      <trkpt lat="44.85776" lon="1.9653">
        <ele>268.5</ele>
        <time>2018-05-20T09:14:06Z</time>
      </trkpt>
      <trkpt lat="44.85782" lon="1.96531">
        <ele>269.6</ele>
        <time>2018-05-20T09:14:11Z</time>
      </trkpt>
      <trkpt lat="44.85787" lon="1.96533">
        <ele>270.8</ele>
        <time>2018-05-20T09:14:18Z</time>
      </trkpt>
      <trkpt lat="44.85791" lon="1.96536">
        <ele>271.9</ele>
        <time>2018-05-20T09:14:20Z</time>
      </trkpt>
      <trkpt lat="44.85796" lon="1.96543">
        <ele>273</ele>
        <time>2018-05-20T09:14:27Z</time>
      </trkpt>
      <trkpt lat="44.85798" lon="1.96548">
        <ele>273.6</ele>
        <time>2018-05-20T09:14:41Z</time>
      </trkpt>
      <trkpt lat="44.85802" lon="1.96555">
        <ele>273.9</ele>
        <time>2018-05-20T09:14:50Z</time>
      </trkpt>
      <trkpt lat="44.85803" lon="1.96562">
        <ele>273.8</ele>
        <time>2018-05-20T09:15:15Z</time>
      </trkpt>
      <trkpt lat="44.85804" lon="1.96569">
        <ele>273.7</ele>
        <time>2018-05-20T09:15:17Z</time>
      </trkpt>
      <trkpt lat="44.8581" lon="1.96573">
        <ele>273.8</ele>
        <time>2018-05-20T09:15:22Z</time>
      </trkpt>
      <trkpt lat="44.85814" lon="1.96579">
        <ele>273.8</ele>
        <time>2018-05-20T09:15:25Z</time>
      </trkpt>
      <trkpt lat="44.85818" lon="1.96584">
        <ele>273.9</ele>
        <time>2018-05-20T09:15:32Z</time>
      </trkpt>
      <trkpt lat="44.85823" lon="1.96583">
        <ele>274.1</ele>
        <time>2018-05-20T09:15:45Z</time>
      </trkpt>
      <trkpt lat="44.85821" lon="1.96576">
        <ele>274.2</ele>
        <time>2018-05-20T09:16:11Z</time>
      </trkpt>
      <trkpt lat="44.85822" lon="1.9657">
        <ele>274.7</ele>
        <time>2018-05-20T09:16:25Z</time>
      </trkpt>
      <trkpt lat="44.85826" lon="1.96564">
        <ele>275.5</ele>
        <time>2018-05-20T09:16:33Z</time>
      </trkpt>
      <trkpt lat="44.8583" lon="1.96562">
        <ele>277.4</ele>
        <time>2018-05-20T09:16:41Z</time>
      </trkpt>
      <trkpt lat="44.85832" lon="1.96555">
        <ele>279.4</ele>
        <time>2018-05-20T09:16:49Z</time>
      </trkpt>
      <trkpt lat="44.85837" lon="1.96547">
        <ele>282.4</ele>
        <time>2018-05-20T09:17:06Z</time>
      </trkpt>
      <trkpt lat="44.8584" lon="1.96542">
        <ele>285</ele>
        <time>2018-05-20T09:17:10Z</time>
      </trkpt>
      <trkpt lat="44.85841" lon="1.96535">
        <ele>287.5</ele>
        <time>2018-05-20T09:17:46Z</time>
      </trkpt>
      <trkpt lat="44.85843" lon="1.96526">
        <ele>289</ele>
        <time>2018-05-20T09:17:53Z</time>
      </trkpt>
      <trkpt lat="44.85843" lon="1.96518">
        <ele>290.4</ele>
        <time>2018-05-20T09:19:34Z</time>
      </trkpt>
      <trkpt lat="44.85841" lon="1.96512">
        <ele>290.7</ele>
        <time>2018-05-20T09:19:40Z</time>
      </trkpt>
      <trkpt lat="44.8584" lon="1.96504">
        <ele>291.1</ele>
        <time>2018-05-20T09:19:57Z</time>
      </trkpt>
      <trkpt lat="44.85839" lon="1.96497">
        <ele>292.9</ele>
        <time>2018-05-20T09:20:11Z</time>
      </trkpt>
      <trkpt lat="44.85837" lon="1.96491">
        <ele>294.6</ele>
        <time>2018-05-20T09:20:25Z</time>
      </trkpt>
      <trkpt lat="44.85835" lon="1.9648">
        <ele>296.4</ele>
        <time>2018-05-20T09:20:30Z</time>
      </trkpt>
      <trkpt lat="44.85834" lon="1.96471">
        <ele>298.4</ele>
        <time>2018-05-20T09:21:24Z</time>
      </trkpt>
      <trkpt lat="44.85837" lon="1.96466">
        <ele>300.4</ele>
        <time>2018-05-20T09:21:51Z</time>
      </trkpt>
      <trkpt lat="44.85843" lon="1.96467">
        <ele>301</ele>
        <time>2018-05-20T09:22:01Z</time>
      </trkpt>
      <trkpt lat="44.85847" lon="1.9647">
        <ele>301.5</ele>
        <time>2018-05-20T09:22:04Z</time>
      </trkpt>
      <trkpt lat="44.85851" lon="1.96476">
        <ele>302.3</ele>
        <time>2018-05-20T09:22:10Z</time>
      </trkpt>
      <trkpt lat="44.85854" lon="1.96481">
        <ele>302.9</ele>
        <time>2018-05-20T09:22:17Z</time>
      </trkpt>
      <trkpt lat="44.85856" lon="1.96487">
        <ele>303.6</ele>
        <time>2018-05-20T09:22:25Z</time>
      </trkpt>
      <trkpt lat="44.85861" lon="1.96495">
        <ele>304.2</ele>
        <time>2018-05-20T09:22:30Z</time>
      </trkpt>
      <trkpt lat="44.85865" lon="1.965">
        <ele>304.8</ele>
        <time>2018-05-20T09:22:37Z</time>
      </trkpt>
      <trkpt lat="44.85871" lon="1.96506">
        <ele>305.2</ele>
        <time>2018-05-20T09:22:40Z</time>
      </trkpt>
      <trkpt lat="44.85874" lon="1.96511">
        <ele>305.7</ele>
        <time>2018-05-20T09:22:46Z</time>
      </trkpt>
      <trkpt lat="44.85877" lon="1.96517">
        <ele>306.3</ele>
        <time>2018-05-20T09:22:52Z</time>
      </trkpt>
      <trkpt lat="44.85882" lon="1.96524">
        <ele>306.9</ele>
        <time>2018-05-20T09:22:54Z</time>
      </trkpt>
      <trkpt lat="44.85885" lon="1.9653">
        <ele>307.7</ele>
        <time>2018-05-20T09:23:00Z</time>
      </trkpt>
      <trkpt lat="44.85887" lon="1.96538">
        <ele>308.5</ele>
        <time>2018-05-20T09:23:06Z</time>
      </trkpt>
      <trkpt lat="44.8589" lon="1.96546">
        <ele>309.3</ele>
        <time>2018-05-20T09:23:19Z</time>
      </trkpt>
      <trkpt lat="44.85892" lon="1.96552">
        <ele>310.2</ele>
        <time>2018-05-20T09:23:22Z</time>
      </trkpt>
      <trkpt lat="44.85893" lon="1.96559">
        <ele>311.1</ele>
        <time>2018-05-20T09:23:28Z</time>
      </trkpt>
      <trkpt lat="44.85895" lon="1.96566">
        <ele>312</ele>
        <time>2018-05-20T09:23:35Z</time>
      </trkpt>
      <trkpt lat="44.85896" lon="1.96575">
        <ele>312.9</ele>
        <time>2018-05-20T09:23:45Z</time>
      </trkpt>
      <trkpt lat="44.85897" lon="1.96582">
        <ele>313.7</ele>
        <time>2018-05-20T09:23:57Z</time>
      </trkpt>
      <trkpt lat="44.85901" lon="1.9659">
        <ele>314.2</ele>
        <time>2018-05-20T09:24:04Z</time>
      </trkpt>
      <trkpt lat="44.85904" lon="1.96596">
        <ele>314.9</ele>
        <time>2018-05-20T09:24:08Z</time>
      </trkpt>
      <trkpt lat="44.85907" lon="1.96601">
        <ele>315.6</ele>
        <time>2018-05-20T09:24:17Z</time>
      </trkpt>
      <trkpt lat="44.85912" lon="1.96601">
        <ele>316</ele>
        <time>2018-05-20T09:24:20Z</time>
      </trkpt>
      <trkpt lat="44.85915" lon="1.96607">
        <ele>316.5</ele>
        <time>2018-05-20T09:24:26Z</time>
      </trkpt>
      <trkpt lat="44.85916" lon="1.96614">
        <ele>317.3</ele>
        <time>2018-05-20T09:24:44Z</time>
      </trkpt>
      <trkpt lat="44.85918" lon="1.96622">
        <ele>318.1</ele>
        <time>2018-05-20T09:24:46Z</time>
      </trkpt>
      <trkpt lat="44.8592" lon="1.96629">
        <ele>318.9</ele>
        <time>2018-05-20T09:24:48Z</time>
      </trkpt>
      <trkpt lat="44.85922" lon="1.96636">
        <ele>319.5</ele>
        <time>2018-05-20T09:24:50Z</time>
      </trkpt>
      <trkpt lat="44.85921" lon="1.96642">
        <ele>320.1</ele>
        <time>2018-05-20T09:25:00Z</time>
      </trkpt>
      <trkpt lat="44.85917" lon="1.96644">
        <ele>320.5</ele>
        <time>2018-05-20T09:25:09Z</time>
      </trkpt>
      <trkpt lat="44.85912" lon="1.96645">
        <ele>320.7</ele>
        <time>2018-05-20T09:25:21Z</time>
      </trkpt>
      <trkpt lat="44.85907" lon="1.96649">
        <ele>321.3</ele>
        <time>2018-05-20T09:25:38Z</time>
      </trkpt>
      <trkpt lat="44.85902" lon="1.96652">
        <ele>321.8</ele>
        <time>2018-05-20T09:25:47Z</time>
      </trkpt>
      <trkpt lat="44.85898" lon="1.96657">
        <ele>322.3</ele>
        <time>2018-05-20T09:25:57Z</time>
      </trkpt>
      <trkpt lat="44.85894" lon="1.96662">
        <ele>322.5</ele>
        <time>2018-05-20T09:25:58Z</time>
      </trkpt>
      <trkpt lat="44.8589" lon="1.96668">
        <ele>323</ele>
        <time>2018-05-20T09:26:12Z</time>
      </trkpt>
      <trkpt lat="44.85882" lon="1.96676">
        <ele>323.5</ele>
        <time>2018-05-20T09:26:16Z</time>
      </trkpt>
      <trkpt lat="44.85879" lon="1.96681">
        <ele>324.2</ele>
        <time>2018-05-20T09:26:18Z</time>
      </trkpt>
      <trkpt lat="44.85873" lon="1.96682">
        <ele>324.9</ele>
        <time>2018-05-20T09:26:27Z</time>
      </trkpt>
      <trkpt lat="44.85869" lon="1.96685">
        <ele>325.9</ele>
        <time>2018-05-20T09:26:41Z</time>
      </trkpt>
      <trkpt lat="44.85857" lon="1.96703">
        <ele>326.9</ele>
        <time>2018-05-20T09:27:05Z</time>
      </trkpt>
      <trkpt lat="44.8585" lon="1.96712">
        <ele>327.8</ele>
        <time>2018-05-20T09:27:12Z</time>
      </trkpt>
      <trkpt lat="44.85845" lon="1.96717">
        <ele>328.7</ele>
        <time>2018-05-20T09:27:14Z</time>
      </trkpt>
      <trkpt lat="44.85841" lon="1.96721">
        <ele>329.5</ele>
        <time>2018-05-20T09:27:17Z</time>
      </trkpt>
      <trkpt lat="44.85825" lon="1.96729">
        <ele>330.3</ele>
        <time>2018-05-20T09:27:56Z</time>
      </trkpt>
      <trkpt lat="44.85817" lon="1.96732">
        <ele>330.5</ele>
        <time>2018-05-20T09:28:00Z</time>
      </trkpt>
      <trkpt lat="44.8581" lon="1.96736">
        <ele>330.6</ele>
        <time>2018-05-20T09:28:10Z</time>
      </trkpt>
      <trkpt lat="44.85806" lon="1.9674">
        <ele>330.7</ele>
        <time>2018-05-20T09:28:12Z</time>
      </trkpt>
      <trkpt lat="44.858" lon="1.96746">
        <ele>330.8</ele>
        <time>2018-05-20T09:28:14Z</time>
      </trkpt>
      <trkpt lat="44.85798" lon="1.96753">
        <ele>331.1</ele>
        <time>2018-05-20T09:28:18Z</time>
      </trkpt>
      <trkpt lat="44.85795" lon="1.96758">
        <ele>331.4</ele>
        <time>2018-05-20T09:28:20Z</time>
      </trkpt>
      <trkpt lat="44.85791" lon="1.96762">
        <ele>332.1</ele>
        <time>2018-05-20T09:28:25Z</time>
      </trkpt>
      <trkpt lat="44.85784" lon="1.96769">
        <ele>333.6</ele>
        <time>2018-05-20T09:28:28Z</time>
      </trkpt>
      <trkpt lat="44.85778" lon="1.96774">
        <ele>335.4</ele>
        <time>2018-05-20T09:28:36Z</time>
      </trkpt>
      <trkpt lat="44.85774" lon="1.96776">
        <ele>337.2</ele>
        <time>2018-05-20T09:28:38Z</time>
      </trkpt>
      <trkpt lat="44.85769" lon="1.96777">
        <ele>339.1</ele>
        <time>2018-05-20T09:28:47Z</time>
      </trkpt>
      <trkpt lat="44.85765" lon="1.96778">
        <ele>340.8</ele>
        <time>2018-05-20T09:29:04Z</time>
      </trkpt>
      <trkpt lat="44.8576" lon="1.96779">
        <ele>342.1</ele>
        <time>2018-05-20T09:29:12Z</time>
      </trkpt>
      <trkpt lat="44.85755" lon="1.96781">
        <ele>343</ele>
        <time>2018-05-20T09:29:14Z</time>
      </trkpt>
      <trkpt lat="44.85746" lon="1.96782">
        <ele>343.9</ele>
        <time>2018-05-20T09:29:16Z</time>
      </trkpt>
      <trkpt lat="44.85742" lon="1.96785">
        <ele>345</ele>
        <time>2018-05-20T09:29:18Z</time>
      </trkpt>
      <trkpt lat="44.85736" lon="1.96791">
        <ele>346.2</ele>
        <time>2018-05-20T09:29:25Z</time>
      </trkpt>
      <trkpt lat="44.85731" lon="1.96798">
        <ele>347.1</ele>
        <time>2018-05-20T09:29:27Z</time>
      </trkpt>
      <trkpt lat="44.85725" lon="1.96801">
        <ele>348.2</ele>
        <time>2018-05-20T09:29:29Z</time>
      </trkpt>
      <trkpt lat="44.8572" lon="1.96801">
        <ele>349.3</ele>
        <time>2018-05-20T09:29:35Z</time>
      </trkpt>
      <trkpt lat="44.85715" lon="1.96804">
        <ele>350</ele>
        <time>2018-05-20T09:29:38Z</time>
      </trkpt>
      <trkpt lat="44.85711" lon="1.96807">
        <ele>350.6</ele>
        <time>2018-05-20T09:29:41Z</time>
      </trkpt>
      <trkpt lat="44.85705" lon="1.96813">
        <ele>350.9</ele>
        <time>2018-05-20T09:29:53Z</time>
      </trkpt>
      <trkpt lat="44.85702" lon="1.96819">
        <ele>351.3</ele>
        <time>2018-05-20T09:29:55Z</time>
      </trkpt>
      <trkpt lat="44.85699" lon="1.96824">
        <ele>351.8</ele>
        <time>2018-05-20T09:30:01Z</time>
      </trkpt>
      <trkpt lat="44.85694" lon="1.96828">
        <ele>352.4</ele>
        <time>2018-05-20T09:30:08Z</time>
      </trkpt>
      <trkpt lat="44.85689" lon="1.96826">
        <ele>353.2</ele>
        <time>2018-05-20T09:30:16Z</time>
      </trkpt>
      <trkpt lat="44.85693" lon="1.96832">
        <ele>354.4</ele>
        <time>2018-05-20T09:33:05Z</time>
      </trkpt>
      <trkpt lat="44.85699" lon="1.96832">
        <ele>355.4</ele>
        <time>2018-05-20T09:33:16Z</time>
      </trkpt>
      <trkpt lat="44.85704" lon="1.96833">
        <ele>356.5</ele>
        <time>2018-05-20T09:33:21Z</time>
      </trkpt>
      <trkpt lat="44.85708" lon="1.96834">
        <ele>357.7</ele>
        <time>2018-05-20T09:33:27Z</time>
      </trkpt>
      <trkpt lat="44.85713" lon="1.96835">
        <ele>359.5</ele>
        <time>2018-05-20T09:33:31Z</time>
      </trkpt>
      <trkpt lat="44.85718" lon="1.96836">
        <ele>361.7</ele>
        <time>2018-05-20T09:33:34Z</time>
      </trkpt>
      <trkpt lat="44.85723" lon="1.96835">
        <ele>364.1</ele>
        <time>2018-05-20T09:33:40Z</time>
      </trkpt>
      <trkpt lat="44.85728" lon="1.96834">
        <ele>366.4</ele>
        <time>2018-05-20T09:33:46Z</time>
      </trkpt>
      <trkpt lat="44.85733" lon="1.96835">
        <ele>368.6</ele>
        <time>2018-05-20T09:33:59Z</time>
      </trkpt>
      <trkpt lat="44.85738" lon="1.96835">
        <ele>370.4</ele>
        <time>2018-05-20T09:34:12Z</time>
      </trkpt>
      <trkpt lat="44.85744" lon="1.96836">
        <ele>371.6</ele>
        <time>2018-05-20T09:34:21Z</time>
      </trkpt>
      <trkpt lat="44.8575" lon="1.96837">
        <ele>372.5</ele>
        <time>2018-05-20T09:34:24Z</time>
      </trkpt>
      <trkpt lat="44.85755" lon="1.96838">
        <ele>373.5</ele>
        <time>2018-05-20T09:34:29Z</time>
      </trkpt>
      <trkpt lat="44.8576" lon="1.96838">
        <ele>374.3</ele>
        <time>2018-05-20T09:34:33Z</time>
      </trkpt>
      <trkpt lat="44.85765" lon="1.96842">
        <ele>374.8</ele>
        <time>2018-05-20T09:34:35Z</time>
      </trkpt>
      <trkpt lat="44.85771" lon="1.96843">
        <ele>375.2</ele>
        <time>2018-05-20T09:34:37Z</time>
      </trkpt>
      <trkpt lat="44.85776" lon="1.96844">
        <ele>375.4</ele>
        <time>2018-05-20T09:34:41Z</time>
      </trkpt>
      <trkpt lat="44.85782" lon="1.96844">
        <ele>375.5</ele>
        <time>2018-05-20T09:34:48Z</time>
      </trkpt>
      <trkpt lat="44.85788" lon="1.96845">
        <ele>375.6</ele>
        <time>2018-05-20T09:34:56Z</time>
      </trkpt>
      <trkpt lat="44.85792" lon="1.96845">
        <ele>375.9</ele>
        <time>2018-05-20T09:35:03Z</time>
      </trkpt>
      <trkpt lat="44.85797" lon="1.96843">
        <ele>376.4</ele>
        <time>2018-05-20T09:35:10Z</time>
      </trkpt>
      <trkpt lat="44.85804" lon="1.96846">
        <ele>376.8</ele>
        <time>2018-05-20T09:35:15Z</time>
      </trkpt>
      <trkpt lat="44.8581" lon="1.96847">
        <ele>377.4</ele>
        <time>2018-05-20T09:35:20Z</time>
      </trkpt>
      <trkpt lat="44.85814" lon="1.96846">
        <ele>378</ele>
        <time>2018-05-20T09:35:25Z</time>
      </trkpt>
      <trkpt lat="44.85819" lon="1.96847">
        <ele>378.6</ele>
        <time>2018-05-20T09:35:33Z</time>
      </trkpt>
      <trkpt lat="44.85825" lon="1.96847">
        <ele>379.2</ele>
        <time>2018-05-20T09:35:39Z</time>
      </trkpt>
      <trkpt lat="44.8583" lon="1.96845">
        <ele>379.8</ele>
        <time>2018-05-20T09:35:44Z</time>
      </trkpt>
      <trkpt lat="44.85834" lon="1.96844">
        <ele>380.2</ele>
        <time>2018-05-20T09:35:48Z</time>
      </trkpt>
      <trkpt lat="44.85839" lon="1.96843">
        <ele>380.4</ele>
        <time>2018-05-20T09:35:50Z</time>
      </trkpt>
      <trkpt lat="44.85844" lon="1.96842">
        <ele>380.4</ele>
        <time>2018-05-20T09:35:55Z</time>
      </trkpt>
      <trkpt lat="44.85848" lon="1.96842">
        <ele>380.3</ele>
        <time>2018-05-20T09:35:59Z</time>
      </trkpt>
      <trkpt lat="44.85853" lon="1.96843">
        <ele>380.1</ele>
        <time>2018-05-20T09:36:05Z</time>
      </trkpt>
      <trkpt lat="44.85858" lon="1.96845">
        <ele>379.9</ele>
        <time>2018-05-20T09:36:12Z</time>
      </trkpt>
      <trkpt lat="44.85862" lon="1.96847">
        <ele>379.8</ele>
        <time>2018-05-20T09:36:17Z</time>
      </trkpt>
      <trkpt lat="44.85867" lon="1.96849">
        <ele>379.7</ele>
        <time>2018-05-20T09:36:22Z</time>
      </trkpt>
      <trkpt lat="44.85873" lon="1.96851">
        <ele>379.6</ele>
        <time>2018-05-20T09:36:28Z</time>
      </trkpt>
      <trkpt lat="44.85877" lon="1.9685">
        <ele>379.6</ele>
        <time>2018-05-20T09:36:33Z</time>
      </trkpt>
      <trkpt lat="44.85882" lon="1.96848">
        <ele>380.9</ele>
        <time>2018-05-20T09:36:40Z</time>
      </trkpt>
      <trkpt lat="44.85888" lon="1.96849">
        <ele>382.9</ele>
        <time>2018-05-20T09:36:46Z</time>
      </trkpt>
      <trkpt lat="44.85892" lon="1.96852">
        <ele>384.8</ele>
        <time>2018-05-20T09:36:59Z</time>
      </trkpt>
      <trkpt lat="44.85897" lon="1.96854">
        <ele>386.8</ele>
        <time>2018-05-20T09:37:07Z</time>
      </trkpt>
      <trkpt lat="44.85894" lon="1.9686">
        <ele>388.6</ele>
        <time>2018-05-20T09:39:05Z</time>
      </trkpt>
      <trkpt lat="44.85898" lon="1.96854">
        <ele>389.1</ele>
        <time>2018-05-20T09:41:54Z</time>
      </trkpt>
      <trkpt lat="44.85903" lon="1.96851">
        <ele>388.9</ele>
        <time>2018-05-20T09:41:57Z</time>
      </trkpt>
      <trkpt lat="44.85908" lon="1.96848">
        <ele>388.8</ele>
        <time>2018-05-20T09:42:01Z</time>
      </trkpt>
      <trkpt lat="44.85912" lon="1.96844">
        <ele>388.6</ele>
        <time>2018-05-20T09:42:05Z</time>
      </trkpt>
      <trkpt lat="44.85917" lon="1.9684">
        <ele>388.5</ele>
        <time>2018-05-20T09:42:14Z</time>
      </trkpt>
      <trkpt lat="44.85922" lon="1.96839">
        <ele>388.6</ele>
        <time>2018-05-20T09:42:21Z</time>
      </trkpt>
      <trkpt lat="44.85926" lon="1.96837">
        <ele>388.5</ele>
        <time>2018-05-20T09:42:27Z</time>
      </trkpt>
      <trkpt lat="44.85931" lon="1.96834">
        <ele>388.2</ele>
        <time>2018-05-20T09:42:31Z</time>
      </trkpt>
      <trkpt lat="44.85935" lon="1.96831">
        <ele>387.9</ele>
        <time>2018-05-20T09:42:34Z</time>
      </trkpt>
      <trkpt lat="44.85942" lon="1.96829">
        <ele>387.5</ele>
        <time>2018-05-20T09:42:36Z</time>
      </trkpt>
      <trkpt lat="44.85947" lon="1.96825">
        <ele>387.1</ele>
        <time>2018-05-20T09:42:41Z</time>
      </trkpt>
      <trkpt lat="44.85952" lon="1.96823">
        <ele>386.7</ele>
        <time>2018-05-20T09:42:48Z</time>
      </trkpt>
      <trkpt lat="44.85957" lon="1.96823">
        <ele>386.3</ele>
        <time>2018-05-20T09:42:53Z</time>
      </trkpt>
      <trkpt lat="44.85962" lon="1.96822">
        <ele>385.9</ele>
        <time>2018-05-20T09:42:56Z</time>
      </trkpt>
      <trkpt lat="44.85967" lon="1.96819">
        <ele>385.3</ele>
        <time>2018-05-20T09:43:01Z</time>
      </trkpt>
      <trkpt lat="44.85972" lon="1.96817">
        <ele>384.7</ele>
        <time>2018-05-20T09:43:05Z</time>
      </trkpt>
      <trkpt lat="44.85976" lon="1.96817">
        <ele>384</ele>
        <time>2018-05-20T09:43:09Z</time>
      </trkpt>
      <trkpt lat="44.85981" lon="1.96817">
        <ele>383.3</ele>
        <time>2018-05-20T09:43:13Z</time>
      </trkpt>
      <trkpt lat="44.85986" lon="1.96817">
        <ele>382.6</ele>
        <time>2018-05-20T09:43:18Z</time>
      </trkpt>
      <trkpt lat="44.8599" lon="1.96816">
        <ele>382</ele>
        <time>2018-05-20T09:43:28Z</time>
      </trkpt>
      <trkpt lat="44.85995" lon="1.96817">
        <ele>381.6</ele>
        <time>2018-05-20T09:43:32Z</time>
      </trkpt>
      <trkpt lat="44.86" lon="1.96817">
        <ele>381.1</ele>
        <time>2018-05-20T09:43:37Z</time>
      </trkpt>
      <trkpt lat="44.86005" lon="1.96818">
        <ele>380.5</ele>
        <time>2018-05-20T09:43:41Z</time>
      </trkpt>
      <trkpt lat="44.86009" lon="1.96819">
        <ele>380</ele>
        <time>2018-05-20T09:43:45Z</time>
      </trkpt>
      <trkpt lat="44.86015" lon="1.96817">
        <ele>379.3</ele>
        <time>2018-05-20T09:43:48Z</time>
      </trkpt>
      <trkpt lat="44.8602" lon="1.96818">
        <ele>378.7</ele>
        <time>2018-05-20T09:43:52Z</time>
      </trkpt>
      <trkpt lat="44.86025" lon="1.96817">
        <ele>378</ele>
        <time>2018-05-20T09:43:59Z</time>
      </trkpt>
      <trkpt lat="44.8603" lon="1.96815">
        <ele>377.4</ele>
        <time>2018-05-20T09:44:04Z</time>
      </trkpt>
      <trkpt lat="44.86035" lon="1.96814">
        <ele>377</ele>
        <time>2018-05-20T09:44:07Z</time>
      </trkpt>
      <trkpt lat="44.86041" lon="1.96814">
        <ele>376.7</ele>
        <time>2018-05-20T09:44:11Z</time>
      </trkpt>
      <trkpt lat="44.86047" lon="1.96813">
        <ele>376.5</ele>
        <time>2018-05-20T09:44:16Z</time>
      </trkpt>
      <trkpt lat="44.86052" lon="1.96812">
        <ele>376.3</ele>
        <time>2018-05-20T09:44:20Z</time>
      </trkpt>
      <trkpt lat="44.86057" lon="1.96812">
        <ele>376.1</ele>
        <time>2018-05-20T09:44:25Z</time>
      </trkpt>
      <trkpt lat="44.86062" lon="1.96811">
        <ele>375.9</ele>
        <time>2018-05-20T09:44:29Z</time>
      </trkpt>
      <trkpt lat="44.86068" lon="1.96811">
        <ele>375.6</ele>
        <time>2018-05-20T09:44:35Z</time>
      </trkpt>
      <trkpt lat="44.86073" lon="1.9681">
        <ele>375.3</ele>
        <time>2018-05-20T09:44:39Z</time>
      </trkpt>
      <trkpt lat="44.86078" lon="1.96809">
        <ele>375</ele>
        <time>2018-05-20T09:44:43Z</time>
      </trkpt>
      <trkpt lat="44.86083" lon="1.96807">
        <ele>374.8</ele>
        <time>2018-05-20T09:44:47Z</time>
      </trkpt>
      <trkpt lat="44.86087" lon="1.96806">
        <ele>374.7</ele>
        <time>2018-05-20T09:44:50Z</time>
      </trkpt>
      <trkpt lat="44.86093" lon="1.96805">
        <ele>374.6</ele>
        <time>2018-05-20T09:44:55Z</time>
      </trkpt>
      <trkpt lat="44.86096" lon="1.968">
        <ele>374.5</ele>
        <time>2018-05-20T09:45:06Z</time>
      </trkpt>
      <trkpt lat="44.86099" lon="1.96795">
        <ele>374.3</ele>
        <time>2018-05-20T09:45:10Z</time>
      </trkpt>
      <trkpt lat="44.86099" lon="1.96787">
        <ele>373.8</ele>
        <time>2018-05-20T09:45:15Z</time>
      </trkpt>
      <trkpt lat="44.86099" lon="1.9678">
        <ele>373.3</ele>
        <time>2018-05-20T09:45:20Z</time>
      </trkpt>
      <trkpt lat="44.86097" lon="1.96775">
        <ele>372.9</ele>
        <time>2018-05-20T09:45:30Z</time>
      </trkpt>
      <trkpt lat="44.86094" lon="1.9677">
        <ele>372.5</ele>
        <time>2018-05-20T09:45:35Z</time>
      </trkpt>
      <trkpt lat="44.86091" lon="1.96765">
        <ele>372.2</ele>
        <time>2018-05-20T09:45:43Z</time>
      </trkpt>
      <trkpt lat="44.86085" lon="1.9676">
        <ele>372</ele>
        <time>2018-05-20T09:45:49Z</time>
      </trkpt>
      <trkpt lat="44.86081" lon="1.96755">
        <ele>371.4</ele>
        <time>2018-05-20T09:45:52Z</time>
      </trkpt>
      <trkpt lat="44.86077" lon="1.96752">
        <ele>370.7</ele>
        <time>2018-05-20T09:45:55Z</time>
      </trkpt>
      <trkpt lat="44.86072" lon="1.96749">
        <ele>369.9</ele>
        <time>2018-05-20T09:46:02Z</time>
      </trkpt>
      <trkpt lat="44.86068" lon="1.96744">
        <ele>369</ele>
        <time>2018-05-20T09:46:08Z</time>
      </trkpt>
      <trkpt lat="44.86064" lon="1.96737">
        <ele>368.1</ele>
        <time>2018-05-20T09:46:14Z</time>
      </trkpt>
      <trkpt lat="44.8606" lon="1.96729">
        <ele>367.3</ele>
        <time>2018-05-20T09:46:17Z</time>
      </trkpt>
      <trkpt lat="44.86057" lon="1.96724">
        <ele>366.2</ele>
        <time>2018-05-20T09:46:22Z</time>
      </trkpt>
      <trkpt lat="44.86054" lon="1.96717">
        <ele>365.2</ele>
        <time>2018-05-20T09:46:27Z</time>
      </trkpt>
      <trkpt lat="44.86052" lon="1.96711">
        <ele>364.3</ele>
        <time>2018-05-20T09:46:31Z</time>
      </trkpt>
      <trkpt lat="44.8605" lon="1.96705">
        <ele>363.5</ele>
        <time>2018-05-20T09:46:36Z</time>
      </trkpt>
      <trkpt lat="44.86047" lon="1.96698">
        <ele>362.9</ele>
        <time>2018-05-20T09:46:41Z</time>
      </trkpt>
      <trkpt lat="44.86044" lon="1.9669">
        <ele>362.5</ele>
        <time>2018-05-20T09:46:44Z</time>
      </trkpt>
      <trkpt lat="44.8604" lon="1.96685">
        <ele>362.1</ele>
        <time>2018-05-20T09:46:49Z</time>
      </trkpt>
      <trkpt lat="44.86036" lon="1.96681">
        <ele>361.8</ele>
        <time>2018-05-20T09:46:52Z</time>
      </trkpt>
      <trkpt lat="44.86034" lon="1.96674">
        <ele>361.4</ele>
        <time>2018-05-20T09:46:56Z</time>
      </trkpt>
      <trkpt lat="44.8603" lon="1.96667">
        <ele>361.1</ele>
        <time>2018-05-20T09:47:01Z</time>
      </trkpt>
      <trkpt lat="44.86026" lon="1.96663">
        <ele>361</ele>
        <time>2018-05-20T09:47:05Z</time>
      </trkpt>
      <trkpt lat="44.86023" lon="1.96658">
        <ele>360.9</ele>
        <time>2018-05-20T09:47:10Z</time>
      </trkpt>
      <trkpt lat="44.86019" lon="1.96652">
        <ele>360.8</ele>
        <time>2018-05-20T09:47:14Z</time>
      </trkpt>
      <trkpt lat="44.86015" lon="1.96649">
        <ele>360.7</ele>
        <time>2018-05-20T09:47:18Z</time>
      </trkpt>
      <trkpt lat="44.86011" lon="1.96643">
        <ele>360.7</ele>
        <time>2018-05-20T09:47:25Z</time>
      </trkpt>
      <trkpt lat="44.86008" lon="1.96637">
        <ele>360.6</ele>
        <time>2018-05-20T09:47:30Z</time>
      </trkpt>
      <trkpt lat="44.86004" lon="1.96632">
        <ele>360.4</ele>
        <time>2018-05-20T09:47:38Z</time>
      </trkpt>
      <trkpt lat="44.86001" lon="1.96626">
        <ele>360.1</ele>
        <time>2018-05-20T09:47:44Z</time>
      </trkpt>
      <trkpt lat="44.85999" lon="1.96619">
        <ele>359.7</ele>
        <time>2018-05-20T09:47:48Z</time>
      </trkpt>
      <trkpt lat="44.85996" lon="1.96614">
        <ele>359.1</ele>
        <time>2018-05-20T09:47:52Z</time>
      </trkpt>
      <trkpt lat="44.85992" lon="1.96608">
        <ele>358.5</ele>
        <time>2018-05-20T09:47:57Z</time>
      </trkpt>
      <trkpt lat="44.8599" lon="1.96601">
        <ele>357.9</ele>
        <time>2018-05-20T09:48:02Z</time>
      </trkpt>
      <trkpt lat="44.85988" lon="1.96594">
        <ele>357.1</ele>
        <time>2018-05-20T09:48:07Z</time>
      </trkpt>
      <trkpt lat="44.85988" lon="1.96588">
        <ele>356.4</ele>
        <time>2018-05-20T09:48:13Z</time>
      </trkpt>
      <trkpt lat="44.85988" lon="1.9658">
        <ele>355.8</ele>
        <time>2018-05-20T09:48:16Z</time>
      </trkpt>
      <trkpt lat="44.85986" lon="1.96573">
        <ele>355.2</ele>
        <time>2018-05-20T09:48:20Z</time>
      </trkpt>
      <trkpt lat="44.85987" lon="1.96566">
        <ele>354.6</ele>
        <time>2018-05-20T09:48:25Z</time>
      </trkpt>
      <trkpt lat="44.85988" lon="1.96559">
        <ele>354</ele>
        <time>2018-05-20T09:48:29Z</time>
      </trkpt>
      <trkpt lat="44.85991" lon="1.96552">
        <ele>353.3</ele>
        <time>2018-05-20T09:48:34Z</time>
      </trkpt>
      <trkpt lat="44.85993" lon="1.96544">
        <ele>352.6</ele>
        <time>2018-05-20T09:48:38Z</time>
      </trkpt>
      <trkpt lat="44.85994" lon="1.96538">
        <ele>351.9</ele>
        <time>2018-05-20T09:48:51Z</time>
      </trkpt>
      <trkpt lat="44.85995" lon="1.96531">
        <ele>351.4</ele>
        <time>2018-05-20T09:49:00Z</time>
      </trkpt>
      <trkpt lat="44.85997" lon="1.96523">
        <ele>351.2</ele>
        <time>2018-05-20T09:49:06Z</time>
      </trkpt>
      <trkpt lat="44.85999" lon="1.96515">
        <ele>351.2</ele>
        <time>2018-05-20T09:49:09Z</time>
      </trkpt>
      <trkpt lat="44.86" lon="1.96507">
        <ele>351.1</ele>
        <time>2018-05-20T09:49:18Z</time>
      </trkpt>
      <trkpt lat="44.86001" lon="1.96501">
        <ele>351.7</ele>
        <time>2018-05-20T09:49:21Z</time>
      </trkpt>
      <trkpt lat="44.86001" lon="1.96494">
        <ele>352.4</ele>
        <time>2018-05-20T09:49:24Z</time>
      </trkpt>
      <trkpt lat="44.86001" lon="1.96486">
        <ele>353.8</ele>
        <time>2018-05-20T09:49:27Z</time>
      </trkpt>
      <trkpt lat="44.85999" lon="1.96479">
        <ele>355.6</ele>
        <time>2018-05-20T09:49:34Z</time>
      </trkpt>
      <trkpt lat="44.85997" lon="1.96472">
        <ele>357.5</ele>
        <time>2018-05-20T09:49:42Z</time>
      </trkpt>
      <trkpt lat="44.85994" lon="1.96467">
        <ele>359.1</ele>
        <time>2018-05-20T09:49:47Z</time>
      </trkpt>
      <trkpt lat="44.85992" lon="1.96459">
        <ele>360.5</ele>
        <time>2018-05-20T09:49:57Z</time>
      </trkpt>
      <trkpt lat="44.85991" lon="1.96452">
        <ele>361.3</ele>
        <time>2018-05-20T09:50:03Z</time>
      </trkpt>
      <trkpt lat="44.8599" lon="1.96445">
        <ele>361.8</ele>
        <time>2018-05-20T09:50:07Z</time>
      </trkpt>
      <trkpt lat="44.85993" lon="1.96439">
        <ele>362.3</ele>
        <time>2018-05-20T09:50:13Z</time>
      </trkpt>
      <trkpt lat="44.85994" lon="1.96432">
        <ele>362.6</ele>
        <time>2018-05-20T09:50:15Z</time>
      </trkpt>
      <trkpt lat="44.85994" lon="1.96426">
        <ele>362.8</ele>
        <time>2018-05-20T09:50:19Z</time>
      </trkpt>
      <trkpt lat="44.85995" lon="1.96419">
        <ele>363</ele>
        <time>2018-05-20T09:50:24Z</time>
      </trkpt>
      <trkpt lat="44.85995" lon="1.96412">
        <ele>362.9</ele>
        <time>2018-05-20T09:50:27Z</time>
      </trkpt>
      <trkpt lat="44.85997" lon="1.96405">
        <ele>362.7</ele>
        <time>2018-05-20T09:50:32Z</time>
      </trkpt>
      <trkpt lat="44.85999" lon="1.96399">
        <ele>362.6</ele>
        <time>2018-05-20T09:50:37Z</time>
      </trkpt>
      <trkpt lat="44.86004" lon="1.96396">
        <ele>362.5</ele>
        <time>2018-05-20T09:50:45Z</time>
      </trkpt>
      <trkpt lat="44.86008" lon="1.96398">
        <ele>362.4</ele>
        <time>2018-05-20T09:51:10Z</time>
      </trkpt>
      <trkpt lat="44.86013" lon="1.96401">
        <ele>362.4</ele>
        <time>2018-05-20T09:51:25Z</time>
      </trkpt>
      <trkpt lat="44.86017" lon="1.96404">
        <ele>362.5</ele>
        <time>2018-05-20T09:51:30Z</time>
      </trkpt>
      <trkpt lat="44.8602" lon="1.96409">
        <ele>362.7</ele>
        <time>2018-05-20T09:51:34Z</time>
      </trkpt>
      <trkpt lat="44.86021" lon="1.96415">
        <ele>362.8</ele>
        <time>2018-05-20T09:51:41Z</time>
      </trkpt>
      <trkpt lat="44.86024" lon="1.9642">
        <ele>363</ele>
        <time>2018-05-20T09:51:44Z</time>
      </trkpt>
      <trkpt lat="44.86028" lon="1.96426">
        <ele>363.4</ele>
        <time>2018-05-20T09:51:50Z</time>
      </trkpt>
      <trkpt lat="44.86031" lon="1.9643">
        <ele>363.9</ele>
        <time>2018-05-20T09:51:56Z</time>
      </trkpt>
      <trkpt lat="44.86034" lon="1.96436">
        <ele>364.6</ele>
        <time>2018-05-20T09:52:02Z</time>
      </trkpt>
      <trkpt lat="44.86037" lon="1.96442">
        <ele>365.4</ele>
        <time>2018-05-20T09:52:09Z</time>
      </trkpt>
      <trkpt lat="44.86041" lon="1.96447">
        <ele>366.4</ele>
        <time>2018-05-20T09:52:16Z</time>
      </trkpt>
      <trkpt lat="44.86042" lon="1.96454">
        <ele>367.2</ele>
        <time>2018-05-20T09:52:21Z</time>
      </trkpt>
      <trkpt lat="44.86044" lon="1.9646">
        <ele>367.9</ele>
        <time>2018-05-20T09:52:26Z</time>
      </trkpt>
      <trkpt lat="44.86048" lon="1.96466">
        <ele>368.3</ele>
        <time>2018-05-20T09:52:29Z</time>
      </trkpt>
      <trkpt lat="44.86051" lon="1.96472">
        <ele>368.4</ele>
        <time>2018-05-20T09:52:35Z</time>
      </trkpt>
      <trkpt lat="44.86053" lon="1.96479">
        <ele>368.4</ele>
        <time>2018-05-20T09:52:38Z</time>
      </trkpt>
      <trkpt lat="44.86058" lon="1.96484">
        <ele>368.3</ele>
        <time>2018-05-20T09:52:41Z</time>
      </trkpt>
      <trkpt lat="44.86061" lon="1.96489">
        <ele>368.3</ele>
        <time>2018-05-20T09:52:44Z</time>
      </trkpt>
      <trkpt lat="44.86066" lon="1.96494">
        <ele>368.5</ele>
        <time>2018-05-20T09:52:50Z</time>
      </trkpt>
      <trkpt lat="44.86068" lon="1.965">
        <ele>369</ele>
        <time>2018-05-20T09:52:55Z</time>
      </trkpt>
      <trkpt lat="44.86068" lon="1.96507">
        <ele>369.5</ele>
        <time>2018-05-20T09:53:02Z</time>
      </trkpt>
      <trkpt lat="44.86072" lon="1.96512">
        <ele>370.1</ele>
        <time>2018-05-20T09:53:06Z</time>
      </trkpt>
      <trkpt lat="44.86074" lon="1.96519">
        <ele>370.8</ele>
        <time>2018-05-20T09:53:12Z</time>
      </trkpt>
      <trkpt lat="44.86075" lon="1.96526">
        <ele>371.3</ele>
        <time>2018-05-20T09:53:17Z</time>
      </trkpt>
      <trkpt lat="44.86077" lon="1.96532">
        <ele>372</ele>
        <time>2018-05-20T09:53:23Z</time>
      </trkpt>
      <trkpt lat="44.86078" lon="1.96538">
        <ele>372.9</ele>
        <time>2018-05-20T09:53:29Z</time>
      </trkpt>
      <trkpt lat="44.8608" lon="1.96545">
        <ele>373.8</ele>
        <time>2018-05-20T09:53:35Z</time>
      </trkpt>
      <trkpt lat="44.86082" lon="1.96551">
        <ele>374.8</ele>
        <time>2018-05-20T09:53:39Z</time>
      </trkpt>
      <trkpt lat="44.86083" lon="1.96557">
        <ele>375.8</ele>
        <time>2018-05-20T09:53:45Z</time>
      </trkpt>
      <trkpt lat="44.86086" lon="1.96563">
        <ele>376.6</ele>
        <time>2018-05-20T09:53:53Z</time>
      </trkpt>
      <trkpt lat="44.86088" lon="1.96569">
        <ele>377.3</ele>
        <time>2018-05-20T09:53:58Z</time>
      </trkpt>
      <trkpt lat="44.86091" lon="1.96574">
        <ele>377.9</ele>
        <time>2018-05-20T09:54:03Z</time>
      </trkpt>
      <trkpt lat="44.86092" lon="1.9658">
        <ele>378.6</ele>
        <time>2018-05-20T09:54:09Z</time>
      </trkpt>
      <trkpt lat="44.86094" lon="1.96587">
        <ele>379.6</ele>
        <time>2018-05-20T09:54:14Z</time>
      </trkpt>
      <trkpt lat="44.86097" lon="1.96592">
        <ele>380.5</ele>
        <time>2018-05-20T09:54:17Z</time>
      </trkpt>
      <trkpt lat="44.861" lon="1.966">
        <ele>381.5</ele>
        <time>2018-05-20T09:54:21Z</time>
      </trkpt>
      <trkpt lat="44.86104" lon="1.96604">
        <ele>382.2</ele>
        <time>2018-05-20T09:54:24Z</time>
      </trkpt>
      <trkpt lat="44.86106" lon="1.96609">
        <ele>382.9</ele>
        <time>2018-05-20T09:54:33Z</time>
      </trkpt>
      <trkpt lat="44.86108" lon="1.96615">
        <ele>383.3</ele>
        <time>2018-05-20T09:54:43Z</time>
      </trkpt>
      <trkpt lat="44.86109" lon="1.96621">
        <ele>383.6</ele>
        <time>2018-05-20T09:54:55Z</time>
      </trkpt>
      <trkpt lat="44.86112" lon="1.96627">
        <ele>383.9</ele>
        <time>2018-05-20T09:55:04Z</time>
      </trkpt>
      <trkpt lat="44.86117" lon="1.96631">
        <ele>384.4</ele>
        <time>2018-05-20T09:55:11Z</time>
      </trkpt>
      <trkpt lat="44.8612" lon="1.96635">
        <ele>384.9</ele>
        <time>2018-05-20T09:55:16Z</time>
      </trkpt>
      <trkpt lat="44.86125" lon="1.9664">
        <ele>385.4</ele>
        <time>2018-05-20T09:55:21Z</time>
      </trkpt>
      <trkpt lat="44.86129" lon="1.96644">
        <ele>386</ele>
        <time>2018-05-20T09:55:26Z</time>
      </trkpt>
      <trkpt lat="44.86131" lon="1.96649">
        <ele>386.7</ele>
        <time>2018-05-20T09:55:33Z</time>
      </trkpt>
      <trkpt lat="44.86133" lon="1.96657">
        <ele>387.5</ele>
        <time>2018-05-20T09:55:37Z</time>
      </trkpt>
      <trkpt lat="44.86135" lon="1.96662">
        <ele>388.6</ele>
        <time>2018-05-20T09:55:45Z</time>
      </trkpt>
      <trkpt lat="44.86139" lon="1.96666">
        <ele>389.6</ele>
        <time>2018-05-20T09:55:52Z</time>
      </trkpt>
      <trkpt lat="44.86142" lon="1.96671">
        <ele>390.4</ele>
        <time>2018-05-20T09:55:58Z</time>
      </trkpt>
      <trkpt lat="44.86145" lon="1.96677">
        <ele>391.1</ele>
        <time>2018-05-20T09:56:03Z</time>
      </trkpt>
      <trkpt lat="44.86149" lon="1.96681">
        <ele>391.7</ele>
        <time>2018-05-20T09:56:11Z</time>
      </trkpt>
      <trkpt lat="44.86152" lon="1.96687">
        <ele>392.2</ele>
        <time>2018-05-20T09:56:16Z</time>
      </trkpt>
      <trkpt lat="44.86155" lon="1.96693">
        <ele>392.6</ele>
        <time>2018-05-20T09:56:20Z</time>
      </trkpt>
      <trkpt lat="44.86156" lon="1.96699">
        <ele>393.1</ele>
        <time>2018-05-20T09:56:26Z</time>
      </trkpt>
      <trkpt lat="44.86159" lon="1.96705">
        <ele>393.6</ele>
        <time>2018-05-20T09:56:31Z</time>
      </trkpt>
      <trkpt lat="44.8616" lon="1.96711">
        <ele>394</ele>
        <time>2018-05-20T09:56:36Z</time>
      </trkpt>
      <trkpt lat="44.86163" lon="1.96717">
        <ele>394.4</ele>
        <time>2018-05-20T09:56:40Z</time>
      </trkpt>
      <trkpt lat="44.86167" lon="1.96721">
        <ele>394.8</ele>
        <time>2018-05-20T09:56:45Z</time>
      </trkpt>
      <trkpt lat="44.86172" lon="1.96724">
        <ele>395.2</ele>
        <time>2018-05-20T09:56:49Z</time>
      </trkpt>
      <trkpt lat="44.86176" lon="1.96728">
        <ele>395.9</ele>
        <time>2018-05-20T09:56:54Z</time>
      </trkpt>
      <trkpt lat="44.8618" lon="1.9673">
        <ele>396.5</ele>
        <time>2018-05-20T09:56:59Z</time>
      </trkpt>
      <trkpt lat="44.86184" lon="1.96735">
        <ele>399</ele>
        <time>2018-05-20T09:57:05Z</time>
      </trkpt>
      <trkpt lat="44.86188" lon="1.96739">
        <ele>401.3</ele>
        <time>2018-05-20T09:57:11Z</time>
      </trkpt>
      <trkpt lat="44.8619" lon="1.96744">
        <ele>403.3</ele>
        <time>2018-05-20T09:57:16Z</time>
      </trkpt>
      <trkpt lat="44.86189" lon="1.96738">
        <ele>404.9</ele>
        <time>2018-05-20T09:57:41Z</time>
      </trkpt>
      <trkpt lat="44.86194" lon="1.96738">
        <ele>406.5</ele>
        <time>2018-05-20T10:00:36Z</time>
      </trkpt>
      <trkpt lat="44.86198" lon="1.96742">
        <ele>406.2</ele>
        <time>2018-05-20T10:00:40Z</time>
      </trkpt>
      <trkpt lat="44.86201" lon="1.96748">
        <ele>406</ele>
        <time>2018-05-20T10:01:22Z</time>
      </trkpt>
      <trkpt lat="44.86203" lon="1.96756">
        <ele>406.1</ele>
        <time>2018-05-20T10:01:26Z</time>
      </trkpt>
      <trkpt lat="44.86206" lon="1.96762">
        <ele>406.3</ele>
        <time>2018-05-20T10:01:33Z</time>
      </trkpt>
      <trkpt lat="44.8621" lon="1.96766">
        <ele>406.5</ele>
        <time>2018-05-20T10:01:38Z</time>
      </trkpt>
      <trkpt lat="44.86214" lon="1.9677">
        <ele>406.7</ele>
        <time>2018-05-20T10:01:43Z</time>
      </trkpt>
      <trkpt lat="44.86218" lon="1.96775">
        <ele>407</ele>
        <time>2018-05-20T10:01:49Z</time>
      </trkpt>
      <trkpt lat="44.86221" lon="1.96781">
        <ele>407.3</ele>
        <time>2018-05-20T10:01:54Z</time>
      </trkpt>
      <trkpt lat="44.86224" lon="1.96786">
        <ele>407.8</ele>
        <time>2018-05-20T10:02:00Z</time>
      </trkpt>
      <trkpt lat="44.86229" lon="1.96791">
        <ele>408.4</ele>
        <time>2018-05-20T10:02:06Z</time>
      </trkpt>
      <trkpt lat="44.86232" lon="1.96795">
        <ele>409.1</ele>
        <time>2018-05-20T10:02:13Z</time>
      </trkpt>
      <trkpt lat="44.86237" lon="1.96797">
        <ele>409.8</ele>
        <time>2018-05-20T10:02:22Z</time>
      </trkpt>
      <trkpt lat="44.86242" lon="1.968">
        <ele>410.4</ele>
        <time>2018-05-20T10:02:30Z</time>
      </trkpt>
      <trkpt lat="44.86246" lon="1.96803">
        <ele>411</ele>
        <time>2018-05-20T10:02:37Z</time>
      </trkpt>
      <trkpt lat="44.86249" lon="1.96808">
        <ele>411.6</ele>
        <time>2018-05-20T10:02:43Z</time>
      </trkpt>
      <trkpt lat="44.86254" lon="1.9681">
        <ele>412.3</ele>
        <time>2018-05-20T10:02:49Z</time>
      </trkpt>
      <trkpt lat="44.86259" lon="1.96812">
        <ele>413.1</ele>
        <time>2018-05-20T10:02:54Z</time>
      </trkpt>
      <trkpt lat="44.86263" lon="1.96814">
        <ele>413.8</ele>
        <time>2018-05-20T10:03:00Z</time>
      </trkpt>
      <trkpt lat="44.86267" lon="1.96818">
        <ele>414.6</ele>
        <time>2018-05-20T10:03:08Z</time>
      </trkpt>
      <trkpt lat="44.86271" lon="1.96824">
        <ele>415.3</ele>
        <time>2018-05-20T10:03:15Z</time>
      </trkpt>
      <trkpt lat="44.86273" lon="1.9683">
        <ele>416</ele>
        <time>2018-05-20T10:03:23Z</time>
      </trkpt>
      <trkpt lat="44.86273" lon="1.96837">
        <ele>416.7</ele>
        <time>2018-05-20T10:03:28Z</time>
      </trkpt>
      <trkpt lat="44.86273" lon="1.96843">
        <ele>417.4</ele>
        <time>2018-05-20T10:03:34Z</time>
      </trkpt>
      <trkpt lat="44.86273" lon="1.9685">
        <ele>418</ele>
        <time>2018-05-20T10:03:40Z</time>
      </trkpt>
      <trkpt lat="44.86271" lon="1.96857">
        <ele>418.6</ele>
        <time>2018-05-20T10:03:46Z</time>
      </trkpt>
      <trkpt lat="44.8627" lon="1.96863">
        <ele>419.1</ele>
        <time>2018-05-20T10:03:53Z</time>
      </trkpt>
      <trkpt lat="44.86267" lon="1.96869">
        <ele>419.7</ele>
        <time>2018-05-20T10:03:58Z</time>
      </trkpt>
      <trkpt lat="44.86266" lon="1.96876">
        <ele>420.2</ele>
        <time>2018-05-20T10:04:06Z</time>
      </trkpt>
      <trkpt lat="44.86265" lon="1.96882">
        <ele>420.8</ele>
        <time>2018-05-20T10:04:15Z</time>
      </trkpt>
      <trkpt lat="44.86268" lon="1.96888">
        <ele>421.6</ele>
        <time>2018-05-20T10:04:22Z</time>
      </trkpt>
      <trkpt lat="44.86271" lon="1.96893">
        <ele>422.4</ele>
        <time>2018-05-20T10:04:28Z</time>
      </trkpt>
      <trkpt lat="44.86275" lon="1.96897">
        <ele>423.2</ele>
        <time>2018-05-20T10:04:33Z</time>
      </trkpt>
      <trkpt lat="44.8628" lon="1.96898">
        <ele>424.1</ele>
        <time>2018-05-20T10:04:38Z</time>
      </trkpt>
      <trkpt lat="44.86284" lon="1.96899">
        <ele>424.9</ele>
        <time>2018-05-20T10:04:46Z</time>
      </trkpt>
      <trkpt lat="44.86289" lon="1.96901">
        <ele>425.4</ele>
        <time>2018-05-20T10:04:51Z</time>
      </trkpt>
      <trkpt lat="44.86293" lon="1.96902">
        <ele>426.2</ele>
        <time>2018-05-20T10:04:56Z</time>
      </trkpt>
      <trkpt lat="44.86297" lon="1.96907">
        <ele>427.1</ele>
        <time>2018-05-20T10:05:13Z</time>
      </trkpt>
      <trkpt lat="44.86301" lon="1.96905">
        <ele>427.8</ele>
        <time>2018-05-20T10:05:18Z</time>
      </trkpt>
      <trkpt lat="44.86296" lon="1.96903">
        <ele>428.5</ele>
        <time>2018-05-20T10:05:34Z</time>
      </trkpt>
      <trkpt lat="44.86292" lon="1.96904">
        <ele>429.2</ele>
        <time>2018-05-20T10:05:56Z</time>
      </trkpt>
      <trkpt lat="44.86297" lon="1.96905">
        <ele>429.7</ele>
        <time>2018-05-20T10:06:03Z</time>
      </trkpt>
      <trkpt lat="44.86302" lon="1.96906">
        <ele>430</ele>
        <time>2018-05-20T10:06:08Z</time>
      </trkpt>
      <trkpt lat="44.86308" lon="1.96906">
        <ele>430.2</ele>
        <time>2018-05-20T10:06:13Z</time>
      </trkpt>
      <trkpt lat="44.86313" lon="1.96906">
        <ele>430.4</ele>
        <time>2018-05-20T10:06:19Z</time>
      </trkpt>
      <trkpt lat="44.86318" lon="1.96907">
        <ele>430.6</ele>
        <time>2018-05-20T10:06:24Z</time>
      </trkpt>
      <trkpt lat="44.86323" lon="1.96909">
        <ele>430.8</ele>
        <time>2018-05-20T10:06:29Z</time>
      </trkpt>
      <trkpt lat="44.86328" lon="1.9691">
        <ele>431</ele>
        <time>2018-05-20T10:06:34Z</time>
      </trkpt>
      <trkpt lat="44.86333" lon="1.96911">
        <ele>431.2</ele>
        <time>2018-05-20T10:06:39Z</time>
      </trkpt>
      <trkpt lat="44.86338" lon="1.96913">
        <ele>431.4</ele>
        <time>2018-05-20T10:06:44Z</time>
      </trkpt>
      <trkpt lat="44.86343" lon="1.96914">
        <ele>431.5</ele>
        <time>2018-05-20T10:06:49Z</time>
      </trkpt>
      <trkpt lat="44.86348" lon="1.96915">
        <ele>432.1</ele>
        <time>2018-05-20T10:06:56Z</time>
      </trkpt>
      <trkpt lat="44.86352" lon="1.96916">
        <ele>432.8</ele>
        <time>2018-05-20T10:07:02Z</time>
      </trkpt>
      <trkpt lat="44.86357" lon="1.96916">
        <ele>433.7</ele>
        <time>2018-05-20T10:07:13Z</time>
      </trkpt>
      <trkpt lat="44.8636" lon="1.96911">
        <ele>434.9</ele>
        <time>2018-05-20T10:07:23Z</time>
      </trkpt>
      <trkpt lat="44.86364" lon="1.96914">
        <ele>436.3</ele>
        <time>2018-05-20T10:08:19Z</time>
      </trkpt>
      <trkpt lat="44.86362" lon="1.9692">
        <ele>437.6</ele>
        <time>2018-05-20T10:08:26Z</time>
      </trkpt>
      <trkpt lat="44.86364" lon="1.96927">
        <ele>439</ele>
        <time>2018-05-20T10:08:32Z</time>
      </trkpt>
      <trkpt lat="44.86366" lon="1.96934">
        <ele>440.2</ele>
        <time>2018-05-20T10:08:40Z</time>
      </trkpt>
      <trkpt lat="44.86367" lon="1.9694">
        <ele>441.1</ele>
        <time>2018-05-20T10:08:48Z</time>
      </trkpt>
      <trkpt lat="44.86368" lon="1.96947">
        <ele>441.7</ele>
        <time>2018-05-20T10:08:59Z</time>
      </trkpt>
      <trkpt lat="44.86372" lon="1.96949">
        <ele>441.7</ele>
        <time>2018-05-20T10:09:20Z</time>
      </trkpt>
      <trkpt lat="44.86377" lon="1.96946">
        <ele>441.3</ele>
        <time>2018-05-20T10:09:29Z</time>
      </trkpt>
      <trkpt lat="44.86382" lon="1.96945">
        <ele>441</ele>
        <time>2018-05-20T10:09:40Z</time>
      </trkpt>
      <trkpt lat="44.86388" lon="1.96947">
        <ele>441.2</ele>
        <time>2018-05-20T10:09:44Z</time>
      </trkpt>
      <trkpt lat="44.86392" lon="1.9695">
        <ele>442.2</ele>
        <time>2018-05-20T10:09:50Z</time>
      </trkpt>
      <trkpt lat="44.86397" lon="1.96952">
        <ele>443.8</ele>
        <time>2018-05-20T10:09:55Z</time>
      </trkpt>
      <trkpt lat="44.86401" lon="1.96958">
        <ele>445.6</ele>
        <time>2018-05-20T10:10:03Z</time>
      </trkpt>
      <trkpt lat="44.86404" lon="1.96963">
        <ele>447.6</ele>
        <time>2018-05-20T10:10:15Z</time>
      </trkpt>
      <trkpt lat="44.86407" lon="1.96971">
        <ele>449.4</ele>
        <time>2018-05-20T10:10:32Z</time>
      </trkpt>
      <trkpt lat="44.86411" lon="1.96975">
        <ele>451</ele>
        <time>2018-05-20T10:10:48Z</time>
      </trkpt>
      <trkpt lat="44.86415" lon="1.96978">
        <ele>452.9</ele>
        <time>2018-05-20T10:10:51Z</time>
      </trkpt>
      <trkpt lat="44.8642" lon="1.96983">
        <ele>454.8</ele>
        <time>2018-05-20T10:11:02Z</time>
      </trkpt>
      <trkpt lat="44.86424" lon="1.96988">
        <ele>456.7</ele>
        <time>2018-05-20T10:11:10Z</time>
      </trkpt>
      <trkpt lat="44.86429" lon="1.9699">
        <ele>458.3</ele>
        <time>2018-05-20T10:11:25Z</time>
      </trkpt>
      <trkpt lat="44.86434" lon="1.96995">
        <ele>459.4</ele>
        <time>2018-05-20T10:11:42Z</time>
      </trkpt>
      <trkpt lat="44.8644" lon="1.96996">
        <ele>459.8</ele>
        <time>2018-05-20T10:11:46Z</time>
      </trkpt>
      <trkpt lat="44.86451" lon="1.96998">
        <ele>460.4</ele>
        <time>2018-05-20T10:12:02Z</time>
      </trkpt>
      <trkpt lat="44.86451" lon="1.97004">
        <ele>461.5</ele>
        <time>2018-05-20T10:14:54Z</time>
      </trkpt>
      <trkpt lat="44.86458" lon="1.97002">
        <ele>462.7</ele>
        <time>2018-05-20T10:15:22Z</time>
      </trkpt>
      <trkpt lat="44.86463" lon="1.97002">
        <ele>464.2</ele>
        <time>2018-05-20T10:15:25Z</time>
      </trkpt>
      <trkpt lat="44.86468" lon="1.97003">
        <ele>465.7</ele>
        <time>2018-05-20T10:15:38Z</time>
      </trkpt>
      <trkpt lat="44.86471" lon="1.9701">
        <ele>467.2</ele>
        <time>2018-05-20T10:15:57Z</time>
      </trkpt>
      <trkpt lat="44.86469" lon="1.97016">
        <ele>468.1</ele>
        <time>2018-05-20T10:16:09Z</time>
      </trkpt>
      <trkpt lat="44.86467" lon="1.97023">
        <ele>469.2</ele>
        <time>2018-05-20T10:16:15Z</time>
      </trkpt>
      <trkpt lat="44.86464" lon="1.97029">
        <ele>470.3</ele>
        <time>2018-05-20T10:16:20Z</time>
      </trkpt>
      <trkpt lat="44.86464" lon="1.97038">
        <ele>471.5</ele>
        <time>2018-05-20T10:16:27Z</time>
      </trkpt>
      <trkpt lat="44.86466" lon="1.97045">
        <ele>472.5</ele>
        <time>2018-05-20T10:16:33Z</time>
      </trkpt>
      <trkpt lat="44.86468" lon="1.97051">
        <ele>473.7</ele>
        <time>2018-05-20T10:16:44Z</time>
      </trkpt>
      <trkpt lat="44.86472" lon="1.97055">
        <ele>474.8</ele>
        <time>2018-05-20T10:16:49Z</time>
      </trkpt>
      <trkpt lat="44.86476" lon="1.97058">
        <ele>475.9</ele>
        <time>2018-05-20T10:16:53Z</time>
      </trkpt>
      <trkpt lat="44.86481" lon="1.97061">
        <ele>477</ele>
        <time>2018-05-20T10:16:57Z</time>
      </trkpt>
      <trkpt lat="44.86485" lon="1.97065">
        <ele>478.3</ele>
        <time>2018-05-20T10:17:06Z</time>
      </trkpt>
      <trkpt lat="44.86489" lon="1.97071">
        <ele>479.5</ele>
        <time>2018-05-20T10:17:12Z</time>
      </trkpt>
      <trkpt lat="44.86493" lon="1.97075">
        <ele>480.6</ele>
        <time>2018-05-20T10:17:20Z</time>
      </trkpt>
      <trkpt lat="44.86495" lon="1.97081">
        <ele>481.7</ele>
        <time>2018-05-20T10:17:28Z</time>
      </trkpt>
      <trkpt lat="44.86498" lon="1.97086">
        <ele>483</ele>
        <time>2018-05-20T10:17:40Z</time>
      </trkpt>
      <trkpt lat="44.86502" lon="1.9709">
        <ele>484.3</ele>
        <time>2018-05-20T10:17:55Z</time>
      </trkpt>
      <trkpt lat="44.86505" lon="1.97097">
        <ele>485.3</ele>
        <time>2018-05-20T10:17:59Z</time>
      </trkpt>
      <trkpt lat="44.86508" lon="1.97102">
        <ele>486.2</ele>
        <time>2018-05-20T10:18:03Z</time>
      </trkpt>
      <trkpt lat="44.86511" lon="1.97107">
        <ele>487.1</ele>
        <time>2018-05-20T10:18:23Z</time>
      </trkpt>
      <trkpt lat="44.86515" lon="1.97113">
        <ele>487.6</ele>
        <time>2018-05-20T10:18:31Z</time>
      </trkpt>
      <trkpt lat="44.86521" lon="1.9712">
        <ele>487.9</ele>
        <time>2018-05-20T10:18:33Z</time>
      </trkpt>
      <trkpt lat="44.86527" lon="1.97125">
        <ele>488.2</ele>
        <time>2018-05-20T10:18:35Z</time>
      </trkpt>
      <trkpt lat="44.86532" lon="1.97127">
        <ele>488.7</ele>
        <time>2018-05-20T10:18:36Z</time>
      </trkpt>
      <trkpt lat="44.86538" lon="1.97128">
        <ele>489.1</ele>
        <time>2018-05-20T10:18:38Z</time>
      </trkpt>
      <trkpt lat="44.86542" lon="1.97127">
        <ele>489.5</ele>
        <time>2018-05-20T10:18:42Z</time>
      </trkpt>
      <trkpt lat="44.86547" lon="1.97129">
        <ele>490</ele>
        <time>2018-05-20T10:18:45Z</time>
      </trkpt>
      <trkpt lat="44.86551" lon="1.97133">
        <ele>490.8</ele>
        <time>2018-05-20T10:18:53Z</time>
      </trkpt>
      <trkpt lat="44.86555" lon="1.97137">
        <ele>491.3</ele>
        <time>2018-05-20T10:18:58Z</time>
      </trkpt>
      <trkpt lat="44.86559" lon="1.97142">
        <ele>491.9</ele>
        <time>2018-05-20T10:19:08Z</time>
      </trkpt>
      <trkpt lat="44.86561" lon="1.97147">
        <ele>492.6</ele>
        <time>2018-05-20T10:19:17Z</time>
      </trkpt>
      <trkpt lat="44.86566" lon="1.97152">
        <ele>493.3</ele>
        <time>2018-05-20T10:19:21Z</time>
      </trkpt>
      <trkpt lat="44.86571" lon="1.97156">
        <ele>493.5</ele>
        <time>2018-05-20T10:19:24Z</time>
      </trkpt>
      <trkpt lat="44.86574" lon="1.97162">
        <ele>493.7</ele>
        <time>2018-05-20T10:19:28Z</time>
      </trkpt>
      <trkpt lat="44.86578" lon="1.9717">
        <ele>493.9</ele>
        <time>2018-05-20T10:19:32Z</time>
      </trkpt>
      <trkpt lat="44.86579" lon="1.97176">
        <ele>494</ele>
        <time>2018-05-20T10:19:38Z</time>
      </trkpt>
      <trkpt lat="44.86575" lon="1.97189">
        <ele>494</ele>
        <time>2018-05-20T10:19:48Z</time>
      </trkpt>
      <trkpt lat="44.86576" lon="1.97197">
        <ele>494.1</ele>
        <time>2018-05-20T10:19:57Z</time>
      </trkpt>
      <trkpt lat="44.86575" lon="1.97203">
        <ele>494.4</ele>
        <time>2018-05-20T10:20:02Z</time>
      </trkpt>
      <trkpt lat="44.86574" lon="1.97215">
        <ele>494.9</ele>
        <time>2018-05-20T10:20:10Z</time>
      </trkpt>
      <trkpt lat="44.86574" lon="1.97223">
        <ele>495.6</ele>
        <time>2018-05-20T10:20:15Z</time>
      </trkpt>
      <trkpt lat="44.8657" lon="1.97228">
        <ele>496.4</ele>
        <time>2018-05-20T10:20:22Z</time>
      </trkpt>
      <trkpt lat="44.86569" lon="1.97235">
        <ele>497.1</ele>
        <time>2018-05-20T10:20:30Z</time>
      </trkpt>
      <trkpt lat="44.86569" lon="1.97243">
        <ele>498</ele>
        <time>2018-05-20T10:20:41Z</time>
      </trkpt>
      <trkpt lat="44.86569" lon="1.97249">
        <ele>498.7</ele>
        <time>2018-05-20T10:20:47Z</time>
      </trkpt>
      <trkpt lat="44.86571" lon="1.97257">
        <ele>499.4</ele>
        <time>2018-05-20T10:20:50Z</time>
      </trkpt>
      <trkpt lat="44.8657" lon="1.97264">
        <ele>500.1</ele>
        <time>2018-05-20T10:20:53Z</time>
      </trkpt>
      <trkpt lat="44.86569" lon="1.97271">
        <ele>500.8</ele>
        <time>2018-05-20T10:21:00Z</time>
      </trkpt>
      <trkpt lat="44.86569" lon="1.97277">
        <ele>501.4</ele>
        <time>2018-05-20T10:21:02Z</time>
      </trkpt>
      <trkpt lat="44.86568" lon="1.97283">
        <ele>501.9</ele>
        <time>2018-05-20T10:21:12Z</time>
      </trkpt>
      <trkpt lat="44.8657" lon="1.9729">
        <ele>502.3</ele>
        <time>2018-05-20T10:21:16Z</time>
      </trkpt>
      <trkpt lat="44.8657" lon="1.97296">
        <ele>502.6</ele>
        <time>2018-05-20T10:21:24Z</time>
      </trkpt>
      <trkpt lat="44.86573" lon="1.97302">
        <ele>502.8</ele>
        <time>2018-05-20T10:21:27Z</time>
      </trkpt>
      <trkpt lat="44.86574" lon="1.97311">
        <ele>503.2</ele>
        <time>2018-05-20T10:21:31Z</time>
      </trkpt>
      <trkpt lat="44.86574" lon="1.97318">
        <ele>503.9</ele>
        <time>2018-05-20T10:21:33Z</time>
      </trkpt>
      <trkpt lat="44.86575" lon="1.97326">
        <ele>504.7</ele>
        <time>2018-05-20T10:21:40Z</time>
      </trkpt>
      <trkpt lat="44.86576" lon="1.97333">
        <ele>505.7</ele>
        <time>2018-05-20T10:21:45Z</time>
      </trkpt>
      <trkpt lat="44.86577" lon="1.97339">
        <ele>506.7</ele>
        <time>2018-05-20T10:21:51Z</time>
      </trkpt>
      <trkpt lat="44.86579" lon="1.97345">
        <ele>507.5</ele>
        <time>2018-05-20T10:21:59Z</time>
      </trkpt>
      <trkpt lat="44.86578" lon="1.97351">
        <ele>508.3</ele>
        <time>2018-05-20T10:22:01Z</time>
      </trkpt>
      <trkpt lat="44.86577" lon="1.97358">
        <ele>509.5</ele>
        <time>2018-05-20T10:22:10Z</time>
      </trkpt>
      <trkpt lat="44.86575" lon="1.97366">
        <ele>510.6</ele>
        <time>2018-05-20T10:22:19Z</time>
      </trkpt>
      <trkpt lat="44.86574" lon="1.97374">
        <ele>511.6</ele>
        <time>2018-05-20T10:22:31Z</time>
      </trkpt>
      <trkpt lat="44.86572" lon="1.97381">
        <ele>512.6</ele>
        <time>2018-05-20T10:22:42Z</time>
      </trkpt>
      <trkpt lat="44.86571" lon="1.97389">
        <ele>513.3</ele>
        <time>2018-05-20T10:22:52Z</time>
      </trkpt>
      <trkpt lat="44.86573" lon="1.97395">
        <ele>513.7</ele>
        <time>2018-05-20T10:23:04Z</time>
      </trkpt>
      <trkpt lat="44.86574" lon="1.97403">
        <ele>514</ele>
        <time>2018-05-20T10:23:11Z</time>
      </trkpt>
      <trkpt lat="44.86574" lon="1.97411">
        <ele>514.3</ele>
        <time>2018-05-20T10:23:16Z</time>
      </trkpt>
      <trkpt lat="44.86575" lon="1.97422">
        <ele>514.6</ele>
        <time>2018-05-20T10:23:20Z</time>
      </trkpt>
      <trkpt lat="44.86576" lon="1.97428">
        <ele>514.9</ele>
        <time>2018-05-20T10:23:21Z</time>
      </trkpt>
      <trkpt lat="44.86576" lon="1.97439">
        <ele>515.1</ele>
        <time>2018-05-20T10:23:23Z</time>
      </trkpt>
      <trkpt lat="44.86577" lon="1.97446">
        <ele>515.3</ele>
        <time>2018-05-20T10:23:28Z</time>
      </trkpt>
      <trkpt lat="44.86578" lon="1.97453">
        <ele>515.4</ele>
        <time>2018-05-20T10:23:34Z</time>
      </trkpt>
      <trkpt lat="44.86579" lon="1.9746">
        <ele>515.4</ele>
        <time>2018-05-20T10:23:38Z</time>
      </trkpt>
      <trkpt lat="44.86579" lon="1.97467">
        <ele>515.4</ele>
        <time>2018-05-20T10:23:43Z</time>
      </trkpt>
      <trkpt lat="44.86579" lon="1.97473">
        <ele>516.1</ele>
        <time>2018-05-20T10:23:48Z</time>
      </trkpt>
      <trkpt lat="44.86579" lon="1.9748">
        <ele>516.3</ele>
        <time>2018-05-20T10:23:55Z</time>
      </trkpt>
      <trkpt lat="44.8658" lon="1.97486">
        <ele>516.6</ele>
        <time>2018-05-20T10:24:04Z</time>
      </trkpt>
      <trkpt lat="44.86579" lon="1.97493">
        <ele>516.9</ele>
        <time>2018-05-20T10:24:31Z</time>
      </trkpt>
      <trkpt lat="44.86583" lon="1.97497">
        <ele>517.3</ele>
        <time>2018-05-20T10:25:29Z</time>
      </trkpt>
      <trkpt lat="44.86585" lon="1.97503">
        <ele>517.1</ele>
        <time>2018-05-20T10:26:27Z</time>
      </trkpt>
      <trkpt lat="44.86589" lon="1.97508">
        <ele>517.4</ele>
        <time>2018-05-20T10:26:33Z</time>
      </trkpt>
      <trkpt lat="44.86593" lon="1.97512">
        <ele>517.6</ele>
        <time>2018-05-20T10:26:38Z</time>
      </trkpt>
      <trkpt lat="44.86596" lon="1.97516">
        <ele>517.8</ele>
        <time>2018-05-20T10:26:45Z</time>
      </trkpt>
      <trkpt lat="44.86599" lon="1.97521">
        <ele>518</ele>
        <time>2018-05-20T10:26:53Z</time>
      </trkpt>
      <trkpt lat="44.86602" lon="1.97526">
        <ele>518</ele>
        <time>2018-05-20T10:26:58Z</time>
      </trkpt>
      <trkpt lat="44.86606" lon="1.97531">
        <ele>517.9</ele>
        <time>2018-05-20T10:27:03Z</time>
      </trkpt>
      <trkpt lat="44.86609" lon="1.97535">
        <ele>517.9</ele>
        <time>2018-05-20T10:27:08Z</time>
      </trkpt>
      <trkpt lat="44.86612" lon="1.9754">
        <ele>518</ele>
        <time>2018-05-20T10:27:13Z</time>
      </trkpt>
      <trkpt lat="44.86616" lon="1.97545">
        <ele>518</ele>
        <time>2018-05-20T10:27:17Z</time>
      </trkpt>
      <trkpt lat="44.86619" lon="1.9755">
        <ele>518.1</ele>
        <time>2018-05-20T10:27:23Z</time>
      </trkpt>
      <trkpt lat="44.86621" lon="1.97556">
        <ele>518</ele>
        <time>2018-05-20T10:27:30Z</time>
      </trkpt>
      <trkpt lat="44.86624" lon="1.97562">
        <ele>517.9</ele>
        <time>2018-05-20T10:27:36Z</time>
      </trkpt>
      <trkpt lat="44.86627" lon="1.97568">
        <ele>517.9</ele>
        <time>2018-05-20T10:27:42Z</time>
      </trkpt>
      <trkpt lat="44.8663" lon="1.97573">
        <ele>518</ele>
        <time>2018-05-20T10:27:46Z</time>
      </trkpt>
      <trkpt lat="44.86632" lon="1.97579">
        <ele>518.2</ele>
        <time>2018-05-20T10:27:51Z</time>
      </trkpt>
      <trkpt lat="44.86634" lon="1.97586">
        <ele>518.4</ele>
        <time>2018-05-20T10:27:58Z</time>
      </trkpt>
      <trkpt lat="44.86638" lon="1.97592">
        <ele>518.6</ele>
        <time>2018-05-20T10:28:04Z</time>
      </trkpt>
      <trkpt lat="44.86643" lon="1.97596">
        <ele>518.8</ele>
        <time>2018-05-20T10:28:08Z</time>
      </trkpt>
      <trkpt lat="44.86646" lon="1.97602">
        <ele>518.9</ele>
        <time>2018-05-20T10:28:14Z</time>
      </trkpt>
      <trkpt lat="44.86649" lon="1.97609">
        <ele>518.8</ele>
        <time>2018-05-20T10:28:19Z</time>
      </trkpt>
      <trkpt lat="44.86653" lon="1.97614">
        <ele>518.8</ele>
        <time>2018-05-20T10:28:22Z</time>
      </trkpt>
      <trkpt lat="44.86657" lon="1.97619">
        <ele>518.8</ele>
        <time>2018-05-20T10:28:27Z</time>
      </trkpt>
      <trkpt lat="44.8666" lon="1.97625">
        <ele>518.8</ele>
        <time>2018-05-20T10:28:32Z</time>
      </trkpt>
      <trkpt lat="44.86664" lon="1.9763">
        <ele>518.9</ele>
        <time>2018-05-20T10:28:38Z</time>
      </trkpt>
      <trkpt lat="44.86667" lon="1.97635">
        <ele>519.1</ele>
        <time>2018-05-20T10:28:43Z</time>
      </trkpt>
      <trkpt lat="44.86671" lon="1.9764">
        <ele>519.4</ele>
        <time>2018-05-20T10:28:50Z</time>
      </trkpt>
      <trkpt lat="44.86674" lon="1.97644">
        <ele>519.8</ele>
        <time>2018-05-20T10:28:56Z</time>
      </trkpt>
      <trkpt lat="44.86678" lon="1.97649">
        <ele>520.3</ele>
        <time>2018-05-20T10:29:01Z</time>
      </trkpt>
      <trkpt lat="44.86682" lon="1.97654">
        <ele>520.8</ele>
        <time>2018-05-20T10:29:06Z</time>
      </trkpt>
      <trkpt lat="44.86685" lon="1.97659">
        <ele>521.2</ele>
        <time>2018-05-20T10:29:11Z</time>
      </trkpt>
      <trkpt lat="44.86688" lon="1.97665">
        <ele>521.7</ele>
        <time>2018-05-20T10:29:16Z</time>
      </trkpt>
      <trkpt lat="44.86691" lon="1.9767">
        <ele>522.1</ele>
        <time>2018-05-20T10:29:22Z</time>
      </trkpt>
      <trkpt lat="44.86695" lon="1.97675">
        <ele>522.4</ele>
        <time>2018-05-20T10:29:27Z</time>
      </trkpt>
      <trkpt lat="44.86699" lon="1.9768">
        <ele>522.7</ele>
        <time>2018-05-20T10:29:31Z</time>
      </trkpt>
      <trkpt lat="44.86702" lon="1.97684">
        <ele>523</ele>
        <time>2018-05-20T10:29:37Z</time>
      </trkpt>
      <trkpt lat="44.86706" lon="1.9769">
        <ele>523.2</ele>
        <time>2018-05-20T10:29:42Z</time>
      </trkpt>
      <trkpt lat="44.8671" lon="1.97695">
        <ele>523.3</ele>
        <time>2018-05-20T10:29:46Z</time>
      </trkpt>
      <trkpt lat="44.86713" lon="1.97701">
        <ele>523.4</ele>
        <time>2018-05-20T10:29:50Z</time>
      </trkpt>
      <trkpt lat="44.86715" lon="1.97707">
        <ele>523.5</ele>
        <time>2018-05-20T10:29:55Z</time>
      </trkpt>
      <trkpt lat="44.86716" lon="1.97714">
        <ele>523.6</ele>
        <time>2018-05-20T10:30:02Z</time>
      </trkpt>
      <trkpt lat="44.86718" lon="1.97721">
        <ele>523.6</ele>
        <time>2018-05-20T10:30:07Z</time>
      </trkpt>
      <trkpt lat="44.8672" lon="1.97727">
        <ele>523.7</ele>
        <time>2018-05-20T10:30:12Z</time>
      </trkpt>
      <trkpt lat="44.86722" lon="1.97734">
        <ele>523.9</ele>
        <time>2018-05-20T10:30:18Z</time>
      </trkpt>
      <trkpt lat="44.86724" lon="1.97739">
        <ele>524.1</ele>
        <time>2018-05-20T10:30:22Z</time>
      </trkpt>
      <trkpt lat="44.86724" lon="1.97746">
        <ele>524.4</ele>
        <time>2018-05-20T10:30:27Z</time>
      </trkpt>
      <trkpt lat="44.86724" lon="1.97754">
        <ele>524.9</ele>
        <time>2018-05-20T10:30:32Z</time>
      </trkpt>
      <trkpt lat="44.86724" lon="1.97762">
        <ele>525.4</ele>
        <time>2018-05-20T10:30:38Z</time>
      </trkpt>
      <trkpt lat="44.86726" lon="1.97769">
        <ele>525.9</ele>
        <time>2018-05-20T10:30:43Z</time>
      </trkpt>
      <trkpt lat="44.86726" lon="1.97776">
        <ele>526.4</ele>
        <time>2018-05-20T10:30:49Z</time>
      </trkpt>
      <trkpt lat="44.86727" lon="1.97783">
        <ele>526.9</ele>
        <time>2018-05-20T10:30:55Z</time>
      </trkpt>
      <trkpt lat="44.86729" lon="1.97789">
        <ele>527.4</ele>
        <time>2018-05-20T10:30:59Z</time>
      </trkpt>
      <trkpt lat="44.8673" lon="1.97797">
        <ele>527.8</ele>
        <time>2018-05-20T10:31:03Z</time>
      </trkpt>
      <trkpt lat="44.86731" lon="1.97803">
        <ele>528.2</ele>
        <time>2018-05-20T10:31:08Z</time>
      </trkpt>
      <trkpt lat="44.86732" lon="1.97811">
        <ele>528.5</ele>
        <time>2018-05-20T10:31:13Z</time>
      </trkpt>
      <trkpt lat="44.86734" lon="1.97817">
        <ele>528.7</ele>
        <time>2018-05-20T10:31:18Z</time>
      </trkpt>
      <trkpt lat="44.86735" lon="1.97824">
        <ele>528.8</ele>
        <time>2018-05-20T10:31:23Z</time>
      </trkpt>
      <trkpt lat="44.86737" lon="1.97831">
        <ele>528.9</ele>
        <time>2018-05-20T10:31:29Z</time>
      </trkpt>
      <trkpt lat="44.86739" lon="1.97837">
        <ele>528.9</ele>
        <time>2018-05-20T10:31:33Z</time>
      </trkpt>
      <trkpt lat="44.86743" lon="1.97843">
        <ele>528.9</ele>
        <time>2018-05-20T10:31:37Z</time>
      </trkpt>
      <trkpt lat="44.86745" lon="1.97849">
        <ele>528.9</ele>
        <time>2018-05-20T10:31:41Z</time>
      </trkpt>
      <trkpt lat="44.86746" lon="1.97855">
        <ele>529</ele>
        <time>2018-05-20T10:31:47Z</time>
      </trkpt>
      <trkpt lat="44.86748" lon="1.97862">
        <ele>529.2</ele>
        <time>2018-05-20T10:31:51Z</time>
      </trkpt>
      <trkpt lat="44.8675" lon="1.97868">
        <ele>529.3</ele>
        <time>2018-05-20T10:31:55Z</time>
      </trkpt>
      <trkpt lat="44.86752" lon="1.97874">
        <ele>529.5</ele>
        <time>2018-05-20T10:32:00Z</time>
      </trkpt>
      <trkpt lat="44.86754" lon="1.97881">
        <ele>529.6</ele>
        <time>2018-05-20T10:32:06Z</time>
      </trkpt>
      <trkpt lat="44.86755" lon="1.97888">
        <ele>529.6</ele>
        <time>2018-05-20T10:32:11Z</time>
      </trkpt>
      <trkpt lat="44.86757" lon="1.97894">
        <ele>529.9</ele>
        <time>2018-05-20T10:32:16Z</time>
      </trkpt>
      <trkpt lat="44.86759" lon="1.979">
        <ele>530.2</ele>
        <time>2018-05-20T10:32:21Z</time>
      </trkpt>
      <trkpt lat="44.8676" lon="1.97907">
        <ele>530.5</ele>
        <time>2018-05-20T10:32:25Z</time>
      </trkpt>
      <trkpt lat="44.86762" lon="1.97913">
        <ele>530.7</ele>
        <time>2018-05-20T10:32:30Z</time>
      </trkpt>
      <trkpt lat="44.86761" lon="1.9792">
        <ele>531</ele>
        <time>2018-05-20T10:32:34Z</time>
      </trkpt>
      <trkpt lat="44.86761" lon="1.97927">
        <ele>531.1</ele>
        <time>2018-05-20T10:32:38Z</time>
      </trkpt>
      <trkpt lat="44.86763" lon="1.97933">
        <ele>531.1</ele>
        <time>2018-05-20T10:32:43Z</time>
      </trkpt>
      <trkpt lat="44.86764" lon="1.9794">
        <ele>531.1</ele>
        <time>2018-05-20T10:32:47Z</time>
      </trkpt>
      <trkpt lat="44.86764" lon="1.97947">
        <ele>530.9</ele>
        <time>2018-05-20T10:32:52Z</time>
      </trkpt>
      <trkpt lat="44.86765" lon="1.97953">
        <ele>530.7</ele>
        <time>2018-05-20T10:32:56Z</time>
      </trkpt>
      <trkpt lat="44.86765" lon="1.97961">
        <ele>530.5</ele>
        <time>2018-05-20T10:33:01Z</time>
      </trkpt>
      <trkpt lat="44.86766" lon="1.97969">
        <ele>530.3</ele>
        <time>2018-05-20T10:33:07Z</time>
      </trkpt>
      <trkpt lat="44.86765" lon="1.97976">
        <ele>530.1</ele>
        <time>2018-05-20T10:33:13Z</time>
      </trkpt>
      <trkpt lat="44.86764" lon="1.97983">
        <ele>530</ele>
        <time>2018-05-20T10:33:18Z</time>
      </trkpt>
      <trkpt lat="44.86763" lon="1.9799">
        <ele>530.1</ele>
        <time>2018-05-20T10:33:23Z</time>
      </trkpt>
      <trkpt lat="44.86763" lon="1.97997">
        <ele>530.2</ele>
        <time>2018-05-20T10:33:28Z</time>
      </trkpt>
      <trkpt lat="44.86762" lon="1.98004">
        <ele>530.4</ele>
        <time>2018-05-20T10:33:33Z</time>
      </trkpt>
      <trkpt lat="44.86762" lon="1.98012">
        <ele>530.4</ele>
        <time>2018-05-20T10:33:38Z</time>
      </trkpt>
      <trkpt lat="44.86761" lon="1.98019">
        <ele>530.4</ele>
        <time>2018-05-20T10:33:42Z</time>
      </trkpt>
      <trkpt lat="44.86761" lon="1.98025">
        <ele>530.3</ele>
        <time>2018-05-20T10:33:46Z</time>
      </trkpt>
      <trkpt lat="44.86759" lon="1.98032">
        <ele>530.1</ele>
        <time>2018-05-20T10:33:51Z</time>
      </trkpt>
      <trkpt lat="44.86756" lon="1.98038">
        <ele>529.9</ele>
        <time>2018-05-20T10:33:55Z</time>
      </trkpt>
      <trkpt lat="44.86752" lon="1.98041">
        <ele>529.7</ele>
        <time>2018-05-20T10:34:01Z</time>
      </trkpt>
      <trkpt lat="44.86747" lon="1.98045">
        <ele>529.5</ele>
        <time>2018-05-20T10:34:06Z</time>
      </trkpt>
      <trkpt lat="44.86744" lon="1.9805">
        <ele>529.3</ele>
        <time>2018-05-20T10:34:13Z</time>
      </trkpt>
      <trkpt lat="44.86741" lon="1.98055">
        <ele>529.1</ele>
        <time>2018-05-20T10:34:17Z</time>
      </trkpt>
      <trkpt lat="44.86738" lon="1.98062">
        <ele>528.8</ele>
        <time>2018-05-20T10:34:22Z</time>
      </trkpt>
      <trkpt lat="44.86738" lon="1.9807">
        <ele>528.4</ele>
        <time>2018-05-20T10:34:27Z</time>
      </trkpt>
      <trkpt lat="44.86738" lon="1.98078">
        <ele>528.1</ele>
        <time>2018-05-20T10:34:32Z</time>
      </trkpt>
      <trkpt lat="44.86738" lon="1.98084">
        <ele>527.7</ele>
        <time>2018-05-20T10:34:36Z</time>
      </trkpt>
      <trkpt lat="44.8674" lon="1.98091">
        <ele>527.4</ele>
        <time>2018-05-20T10:34:44Z</time>
      </trkpt>
      <trkpt lat="44.86742" lon="1.98098">
        <ele>527.1</ele>
        <time>2018-05-20T10:34:48Z</time>
      </trkpt>
      <trkpt lat="44.86744" lon="1.98105">
        <ele>526.8</ele>
        <time>2018-05-20T10:34:53Z</time>
      </trkpt>
      <trkpt lat="44.86746" lon="1.98112">
        <ele>526.4</ele>
        <time>2018-05-20T10:34:57Z</time>
      </trkpt>
      <trkpt lat="44.86747" lon="1.9812">
        <ele>526.3</ele>
        <time>2018-05-20T10:35:03Z</time>
      </trkpt>
      <trkpt lat="44.8675" lon="1.98126">
        <ele>526.3</ele>
        <time>2018-05-20T10:35:07Z</time>
      </trkpt>
      <trkpt lat="44.86752" lon="1.98133">
        <ele>526.3</ele>
        <time>2018-05-20T10:35:14Z</time>
      </trkpt>
      <trkpt lat="44.86752" lon="1.98139">
        <ele>526.1</ele>
        <time>2018-05-20T10:35:21Z</time>
      </trkpt>
      <trkpt lat="44.86757" lon="1.98137">
        <ele>525.6</ele>
        <time>2018-05-20T10:36:16Z</time>
      </trkpt>
      <trkpt lat="44.86754" lon="1.98142">
        <ele>525.1</ele>
        <time>2018-05-20T10:36:27Z</time>
      </trkpt>
      <trkpt lat="44.86749" lon="1.98142">
        <ele>524.4</ele>
        <time>2018-05-20T10:36:36Z</time>
      </trkpt>
      <trkpt lat="44.86753" lon="1.98147">
        <ele>523.8</ele>
        <time>2018-05-20T10:36:57Z</time>
      </trkpt>
      <trkpt lat="44.86758" lon="1.98149">
        <ele>523.7</ele>
        <time>2018-05-20T10:37:13Z</time>
      </trkpt>
      <trkpt lat="44.86762" lon="1.98145">
        <ele>524</ele>
        <time>2018-05-20T10:37:25Z</time>
      </trkpt>
      <trkpt lat="44.86755" lon="1.98147">
        <ele>524.1</ele>
        <time>2018-05-20T10:37:25Z</time>
      </trkpt>
      <trkpt lat="44.86761" lon="1.98145">
        <ele>524.3</ele>
        <time>2018-05-20T10:37:26Z</time>
      </trkpt>
      <trkpt lat="44.86755" lon="1.98147">
        <ele>524.6</ele>
        <time>2018-05-20T10:37:35Z</time>
      </trkpt>
      <trkpt lat="44.8676" lon="1.98146">
        <ele>524.7</ele>
        <time>2018-05-20T10:37:36Z</time>
      </trkpt>
      <trkpt lat="44.86761" lon="1.98153">
        <ele>524.7</ele>
        <time>2018-05-20T10:37:53Z</time>
      </trkpt>
      <trkpt lat="44.86761" lon="1.98159">
        <ele>524.5</ele>
        <time>2018-05-20T10:37:56Z</time>
      </trkpt>
      <trkpt lat="44.86763" lon="1.98166">
        <ele>524.4</ele>
        <time>2018-05-20T10:38:00Z</time>
      </trkpt>
      <trkpt lat="44.86763" lon="1.98173">
        <ele>524.2</ele>
        <time>2018-05-20T10:38:05Z</time>
      </trkpt>
      <trkpt lat="44.86762" lon="1.98179">
        <ele>524</ele>
        <time>2018-05-20T10:38:11Z</time>
      </trkpt>
      <trkpt lat="44.86763" lon="1.98186">
        <ele>523.8</ele>
        <time>2018-05-20T10:38:17Z</time>
      </trkpt>
      <trkpt lat="44.86764" lon="1.98192">
        <ele>523.7</ele>
        <time>2018-05-20T10:38:24Z</time>
      </trkpt>
      <trkpt lat="44.86766" lon="1.98199">
        <ele>523.6</ele>
        <time>2018-05-20T10:38:31Z</time>
      </trkpt>
      <trkpt lat="44.86767" lon="1.98205">
        <ele>523.6</ele>
        <time>2018-05-20T10:38:35Z</time>
      </trkpt>
      <trkpt lat="44.86768" lon="1.98212">
        <ele>523.7</ele>
        <time>2018-05-20T10:38:40Z</time>
      </trkpt>
      <trkpt lat="44.86767" lon="1.98218">
        <ele>523.8</ele>
        <time>2018-05-20T10:38:44Z</time>
      </trkpt>
      <trkpt lat="44.8677" lon="1.98224">
        <ele>524.2</ele>
        <time>2018-05-20T10:38:48Z</time>
      </trkpt>
      <trkpt lat="44.86772" lon="1.98231">
        <ele>524.7</ele>
        <time>2018-05-20T10:38:53Z</time>
      </trkpt>
      <trkpt lat="44.86773" lon="1.98238">
        <ele>525.4</ele>
        <time>2018-05-20T10:38:58Z</time>
      </trkpt>
      <trkpt lat="44.86772" lon="1.98246">
        <ele>526</ele>
        <time>2018-05-20T10:39:03Z</time>
      </trkpt>
      <trkpt lat="44.86771" lon="1.98253">
        <ele>526.7</ele>
        <time>2018-05-20T10:39:09Z</time>
      </trkpt>
      <trkpt lat="44.8677" lon="1.9826">
        <ele>527.4</ele>
        <time>2018-05-20T10:39:14Z</time>
      </trkpt>
      <trkpt lat="44.86767" lon="1.98266">
        <ele>528.1</ele>
        <time>2018-05-20T10:39:21Z</time>
      </trkpt>
      <trkpt lat="44.86769" lon="1.98272">
        <ele>528.6</ele>
        <time>2018-05-20T10:39:33Z</time>
      </trkpt>
      <trkpt lat="44.86774" lon="1.98274">
        <ele>529</ele>
        <time>2018-05-20T10:39:44Z</time>
      </trkpt>
      <trkpt lat="44.8678" lon="1.98273">
        <ele>529.3</ele>
        <time>2018-05-20T10:39:49Z</time>
      </trkpt>
      <trkpt lat="44.86784" lon="1.98272">
        <ele>529.8</ele>
        <time>2018-05-20T10:39:54Z</time>
      </trkpt>
      <trkpt lat="44.86789" lon="1.98271">
        <ele>530.4</ele>
        <time>2018-05-20T10:39:59Z</time>
      </trkpt>
      <trkpt lat="44.86793" lon="1.98268">
        <ele>531</ele>
        <time>2018-05-20T10:40:05Z</time>
      </trkpt>
      <trkpt lat="44.86796" lon="1.98273">
        <ele>531.6</ele>
        <time>2018-05-20T10:41:02Z</time>
      </trkpt>
      <trkpt lat="44.86792" lon="1.98276">
        <ele>532.4</ele>
        <time>2018-05-20T10:44:56Z</time>
      </trkpt>
      <trkpt lat="44.86787" lon="1.98275">
        <ele>532.8</ele>
        <time>2018-05-20T10:45:02Z</time>
      </trkpt>
      <trkpt lat="44.86783" lon="1.98277">
        <ele>533.3</ele>
        <time>2018-05-20T10:45:07Z</time>
      </trkpt>
      <trkpt lat="44.86777" lon="1.98277">
        <ele>533.6</ele>
        <time>2018-05-20T10:45:12Z</time>
      </trkpt>
      <trkpt lat="44.86771" lon="1.98277">
        <ele>533.7</ele>
        <time>2018-05-20T10:45:20Z</time>
      </trkpt>
      <trkpt lat="44.86766" lon="1.98276">
        <ele>533.6</ele>
        <time>2018-05-20T10:45:23Z</time>
      </trkpt>
      <trkpt lat="44.86761" lon="1.98278">
        <ele>533.4</ele>
        <time>2018-05-20T10:45:32Z</time>
      </trkpt>
      <trkpt lat="44.86757" lon="1.9828">
        <ele>532.5</ele>
        <time>2018-05-20T10:45:40Z</time>
      </trkpt>
      <trkpt lat="44.86753" lon="1.98278">
        <ele>531.7</ele>
        <time>2018-05-20T10:45:48Z</time>
      </trkpt>
      <trkpt lat="44.86747" lon="1.98278">
        <ele>531</ele>
        <time>2018-05-20T10:45:51Z</time>
      </trkpt>
      <trkpt lat="44.86742" lon="1.98278">
        <ele>530.6</ele>
        <time>2018-05-20T10:45:58Z</time>
      </trkpt>
      <trkpt lat="44.86738" lon="1.98277">
        <ele>530.2</ele>
        <time>2018-05-20T10:47:03Z</time>
      </trkpt>
      <trkpt lat="44.86733" lon="1.98278">
        <ele>530.4</ele>
        <time>2018-05-20T10:47:07Z</time>
      </trkpt>
      <trkpt lat="44.8673" lon="1.98283">
        <ele>530.2</ele>
        <time>2018-05-20T10:47:14Z</time>
      </trkpt>
      <trkpt lat="44.86728" lon="1.9829">
        <ele>529.9</ele>
        <time>2018-05-20T10:47:23Z</time>
      </trkpt>
      <trkpt lat="44.8673" lon="1.98295">
        <ele>529.5</ele>
        <time>2018-05-20T10:47:38Z</time>
      </trkpt>
      <trkpt lat="44.86735" lon="1.98298">
        <ele>528.9</ele>
        <time>2018-05-20T10:47:48Z</time>
      </trkpt>
      <trkpt lat="44.86736" lon="1.98291">
        <ele>528.2</ele>
        <time>2018-05-20T10:47:57Z</time>
      </trkpt>
      <trkpt lat="44.86757" lon="1.98298">
        <ele>527.8</ele>
        <time>2018-05-20T10:48:56Z</time>
      </trkpt>
      <trkpt lat="44.86762" lon="1.983">
        <ele>527.6</ele>
        <time>2018-05-20T10:48:58Z</time>
      </trkpt>
      <trkpt lat="44.86758" lon="1.98296">
        <ele>527.4</ele>
        <time>2018-05-20T10:49:37Z</time>
      </trkpt>
      <trkpt lat="44.86754" lon="1.98295">
        <ele>527.4</ele>
        <time>2018-05-20T10:52:03Z</time>
      </trkpt>
      <trkpt lat="44.86749" lon="1.98292">
        <ele>527.8</ele>
        <time>2018-05-20T10:52:16Z</time>
      </trkpt>
      <trkpt lat="44.86744" lon="1.98296">
        <ele>528.1</ele>
        <time>2018-05-20T10:52:23Z</time>
      </trkpt>
      <trkpt lat="44.86741" lon="1.98302">
        <ele>528.4</ele>
        <time>2018-05-20T10:52:28Z</time>
      </trkpt>
      <trkpt lat="44.86738" lon="1.98307">
        <ele>528.6</ele>
        <time>2018-05-20T10:52:31Z</time>
      </trkpt>
      <trkpt lat="44.86741" lon="1.98315">
        <ele>528.9</ele>
        <time>2018-05-20T10:52:45Z</time>
      </trkpt>
      <trkpt lat="44.86745" lon="1.98316">
        <ele>528.8</ele>
        <time>2018-05-20T10:52:49Z</time>
      </trkpt>
      <trkpt lat="44.86749" lon="1.9832">
        <ele>528.5</ele>
        <time>2018-05-20T10:53:06Z</time>
      </trkpt>
      <trkpt lat="44.86745" lon="1.98326">
        <ele>528.1</ele>
        <time>2018-05-20T10:53:46Z</time>
      </trkpt>
      <trkpt lat="44.86741" lon="1.98329">
        <ele>527.5</ele>
        <time>2018-05-20T10:53:50Z</time>
      </trkpt>
      <trkpt lat="44.8674" lon="1.98336">
        <ele>526.7</ele>
        <time>2018-05-20T10:54:13Z</time>
      </trkpt>
      <trkpt lat="44.86741" lon="1.98343">
        <ele>526.1</ele>
        <time>2018-05-20T10:54:18Z</time>
      </trkpt>
      <trkpt lat="44.8674" lon="1.98349">
        <ele>525.5</ele>
        <time>2018-05-20T10:54:24Z</time>
      </trkpt>
      <trkpt lat="44.86741" lon="1.98356">
        <ele>524.9</ele>
        <time>2018-05-20T10:54:31Z</time>
      </trkpt>
      <trkpt lat="44.86741" lon="1.98362">
        <ele>524.5</ele>
        <time>2018-05-20T10:54:37Z</time>
      </trkpt>
      <trkpt lat="44.86743" lon="1.98369">
        <ele>524.2</ele>
        <time>2018-05-20T10:54:41Z</time>
      </trkpt>
      <trkpt lat="44.86741" lon="1.98375">
        <ele>523.8</ele>
        <time>2018-05-20T10:54:51Z</time>
      </trkpt>
      <trkpt lat="44.86737" lon="1.98379">
        <ele>523.4</ele>
        <time>2018-05-20T10:54:56Z</time>
      </trkpt>
      <trkpt lat="44.86732" lon="1.98381">
        <ele>522.9</ele>
        <time>2018-05-20T10:55:02Z</time>
      </trkpt>
      <trkpt lat="44.86727" lon="1.98381">
        <ele>522.5</ele>
        <time>2018-05-20T10:55:08Z</time>
      </trkpt>
      <trkpt lat="44.86723" lon="1.98385">
        <ele>521.9</ele>
        <time>2018-05-20T10:55:20Z</time>
      </trkpt>
      <trkpt lat="44.86721" lon="1.98392">
        <ele>521.2</ele>
        <time>2018-05-20T10:55:25Z</time>
      </trkpt>
      <trkpt lat="44.86719" lon="1.98397">
        <ele>520.5</ele>
        <time>2018-05-20T10:55:30Z</time>
      </trkpt>
      <trkpt lat="44.86718" lon="1.98404">
        <ele>519.6</ele>
        <time>2018-05-20T10:55:34Z</time>
      </trkpt>
      <trkpt lat="44.86717" lon="1.9841">
        <ele>518.5</ele>
        <time>2018-05-20T10:55:41Z</time>
      </trkpt>
      <trkpt lat="44.86714" lon="1.98416">
        <ele>517.5</ele>
        <time>2018-05-20T10:55:50Z</time>
      </trkpt>
      <trkpt lat="44.86712" lon="1.98422">
        <ele>516.6</ele>
        <time>2018-05-20T10:55:55Z</time>
      </trkpt>
      <trkpt lat="44.86709" lon="1.98427">
        <ele>515.7</ele>
        <time>2018-05-20T10:56:02Z</time>
      </trkpt>
      <trkpt lat="44.86707" lon="1.98434">
        <ele>514.8</ele>
        <time>2018-05-20T10:56:11Z</time>
      </trkpt>
      <trkpt lat="44.86705" lon="1.98441">
        <ele>514.2</ele>
        <time>2018-05-20T10:56:14Z</time>
      </trkpt>
      <trkpt lat="44.86702" lon="1.98447">
        <ele>513.6</ele>
        <time>2018-05-20T10:56:18Z</time>
      </trkpt>
      <trkpt lat="44.86699" lon="1.98452">
        <ele>513.2</ele>
        <time>2018-05-20T10:56:26Z</time>
      </trkpt>
      <trkpt lat="44.86696" lon="1.98457">
        <ele>512.9</ele>
        <time>2018-05-20T10:56:33Z</time>
      </trkpt>
      <trkpt lat="44.86694" lon="1.98464">
        <ele>512.7</ele>
        <time>2018-05-20T10:56:39Z</time>
      </trkpt>
      <trkpt lat="44.86692" lon="1.9847">
        <ele>512.3</ele>
        <time>2018-05-20T10:56:44Z</time>
      </trkpt>
      <trkpt lat="44.86689" lon="1.98476">
        <ele>511.9</ele>
        <time>2018-05-20T10:56:50Z</time>
      </trkpt>
      <trkpt lat="44.86686" lon="1.98482">
        <ele>511.3</ele>
        <time>2018-05-20T10:56:53Z</time>
      </trkpt>
      <trkpt lat="44.86683" lon="1.98488">
        <ele>510.5</ele>
        <time>2018-05-20T10:57:00Z</time>
      </trkpt>
      <trkpt lat="44.8668" lon="1.98494">
        <ele>509.6</ele>
        <time>2018-05-20T10:57:15Z</time>
      </trkpt>
      <trkpt lat="44.86678" lon="1.985">
        <ele>508.6</ele>
        <time>2018-05-20T10:57:24Z</time>
      </trkpt>
      <trkpt lat="44.86676" lon="1.98505">
        <ele>507.5</ele>
        <time>2018-05-20T10:57:30Z</time>
      </trkpt>
      <trkpt lat="44.86675" lon="1.98512">
        <ele>506.4</ele>
        <time>2018-05-20T10:57:39Z</time>
      </trkpt>
      <trkpt lat="44.86674" lon="1.98518">
        <ele>505.5</ele>
        <time>2018-05-20T10:57:45Z</time>
      </trkpt>
      <trkpt lat="44.86673" lon="1.98526">
        <ele>504.3</ele>
        <time>2018-05-20T10:57:53Z</time>
      </trkpt>
      <trkpt lat="44.86671" lon="1.98532">
        <ele>503.2</ele>
        <time>2018-05-20T10:58:01Z</time>
      </trkpt>
      <trkpt lat="44.8667" lon="1.98539">
        <ele>502.3</ele>
        <time>2018-05-20T10:58:06Z</time>
      </trkpt>
      <trkpt lat="44.86668" lon="1.98546">
        <ele>501.5</ele>
        <time>2018-05-20T10:58:13Z</time>
      </trkpt>
      <trkpt lat="44.86668" lon="1.98553">
        <ele>501.1</ele>
        <time>2018-05-20T10:58:19Z</time>
      </trkpt>
      <trkpt lat="44.86667" lon="1.9856">
        <ele>501</ele>
        <time>2018-05-20T10:58:24Z</time>
      </trkpt>
      <trkpt lat="44.86664" lon="1.98578">
        <ele>501.2</ele>
        <time>2018-05-20T10:58:34Z</time>
      </trkpt>
      <trkpt lat="44.86663" lon="1.98585">
        <ele>501.6</ele>
        <time>2018-05-20T10:58:39Z</time>
      </trkpt>
      <trkpt lat="44.86661" lon="1.9859">
        <ele>502</ele>
        <time>2018-05-20T10:58:44Z</time>
      </trkpt>
      <trkpt lat="44.86664" lon="1.98597">
        <ele>502.4</ele>
        <time>2018-05-20T10:58:49Z</time>
      </trkpt>
      <trkpt lat="44.86663" lon="1.98604">
        <ele>502.7</ele>
        <time>2018-05-20T10:58:53Z</time>
      </trkpt>
      <trkpt lat="44.86661" lon="1.98611">
        <ele>503.1</ele>
        <time>2018-05-20T10:58:58Z</time>
      </trkpt>
      <trkpt lat="44.86659" lon="1.98622">
        <ele>503.3</ele>
        <time>2018-05-20T10:59:03Z</time>
      </trkpt>
      <trkpt lat="44.86658" lon="1.98629">
        <ele>503.5</ele>
        <time>2018-05-20T10:59:08Z</time>
      </trkpt>
      <trkpt lat="44.86657" lon="1.98635">
        <ele>503.6</ele>
        <time>2018-05-20T10:59:13Z</time>
      </trkpt>
      <trkpt lat="44.86656" lon="1.98643">
        <ele>503.6</ele>
        <time>2018-05-20T10:59:16Z</time>
      </trkpt>
      <trkpt lat="44.86655" lon="1.98652">
        <ele>503.7</ele>
        <time>2018-05-20T10:59:21Z</time>
      </trkpt>
      <trkpt lat="44.86653" lon="1.98658">
        <ele>503.7</ele>
        <time>2018-05-20T10:59:30Z</time>
      </trkpt>
      <trkpt lat="44.86653" lon="1.98666">
        <ele>503.7</ele>
        <time>2018-05-20T10:59:38Z</time>
      </trkpt>
      <trkpt lat="44.86653" lon="1.9868">
        <ele>503.8</ele>
        <time>2018-05-20T10:59:43Z</time>
      </trkpt>
      <trkpt lat="44.86653" lon="1.98687">
        <ele>504.1</ele>
        <time>2018-05-20T10:59:49Z</time>
      </trkpt>
      <trkpt lat="44.86656" lon="1.98695">
        <ele>504.4</ele>
        <time>2018-05-20T10:59:55Z</time>
      </trkpt>
      <trkpt lat="44.86657" lon="1.98707">
        <ele>504.8</ele>
        <time>2018-05-20T10:59:58Z</time>
      </trkpt>
      <trkpt lat="44.86658" lon="1.98714">
        <ele>505.2</ele>
        <time>2018-05-20T11:00:05Z</time>
      </trkpt>
      <trkpt lat="44.86656" lon="1.98721">
        <ele>505.5</ele>
        <time>2018-05-20T11:00:14Z</time>
      </trkpt>
      <trkpt lat="44.86657" lon="1.98729">
        <ele>505.6</ele>
        <time>2018-05-20T11:00:17Z</time>
      </trkpt>
      <trkpt lat="44.8666" lon="1.98737">
        <ele>505.8</ele>
        <time>2018-05-20T11:00:24Z</time>
      </trkpt>
      <trkpt lat="44.86664" lon="1.98742">
        <ele>505.9</ele>
        <time>2018-05-20T11:00:27Z</time>
      </trkpt>
      <trkpt lat="44.86667" lon="1.9875">
        <ele>506.2</ele>
        <time>2018-05-20T11:00:29Z</time>
      </trkpt>
      <trkpt lat="44.8667" lon="1.98757">
        <ele>506.5</ele>
        <time>2018-05-20T11:00:32Z</time>
      </trkpt>
      <trkpt lat="44.86669" lon="1.98763">
        <ele>506.9</ele>
        <time>2018-05-20T11:00:38Z</time>
      </trkpt>
      <trkpt lat="44.8667" lon="1.98771">
        <ele>507.3</ele>
        <time>2018-05-20T11:00:43Z</time>
      </trkpt>
      <trkpt lat="44.8667" lon="1.98778">
        <ele>507.5</ele>
        <time>2018-05-20T11:00:46Z</time>
      </trkpt>
      <trkpt lat="44.86671" lon="1.98785">
        <ele>507.6</ele>
        <time>2018-05-20T11:00:51Z</time>
      </trkpt>
      <trkpt lat="44.86672" lon="1.98792">
        <ele>507.5</ele>
        <time>2018-05-20T11:00:54Z</time>
      </trkpt>
      <trkpt lat="44.86674" lon="1.98798">
        <ele>507.1</ele>
        <time>2018-05-20T11:00:57Z</time>
      </trkpt>
      <trkpt lat="44.86675" lon="1.98806">
        <ele>506.6</ele>
        <time>2018-05-20T11:01:00Z</time>
      </trkpt>
      <trkpt lat="44.86677" lon="1.98812">
        <ele>505.8</ele>
        <time>2018-05-20T11:01:10Z</time>
      </trkpt>
      <trkpt lat="44.8668" lon="1.98818">
        <ele>505</ele>
        <time>2018-05-20T11:01:13Z</time>
      </trkpt>
      <trkpt lat="44.86682" lon="1.98825">
        <ele>504.1</ele>
        <time>2018-05-20T11:01:19Z</time>
      </trkpt>
      <trkpt lat="44.86685" lon="1.98833">
        <ele>503.1</ele>
        <time>2018-05-20T11:01:25Z</time>
      </trkpt>
      <trkpt lat="44.86687" lon="1.9884">
        <ele>502</ele>
        <time>2018-05-20T11:01:32Z</time>
      </trkpt>
      <trkpt lat="44.86682" lon="1.98843">
        <ele>501</ele>
        <time>2018-05-20T11:01:38Z</time>
      </trkpt>
      <trkpt lat="44.86678" lon="1.98839">
        <ele>500</ele>
        <time>2018-05-20T11:01:43Z</time>
      </trkpt>
      <trkpt lat="44.86673" lon="1.98844">
        <ele>498.9</ele>
        <time>2018-05-20T11:01:49Z</time>
      </trkpt>
      <trkpt lat="44.86675" lon="1.98851">
        <ele>498</ele>
        <time>2018-05-20T11:01:58Z</time>
      </trkpt>
      <trkpt lat="44.86681" lon="1.98853">
        <ele>497.1</ele>
        <time>2018-05-20T11:02:03Z</time>
      </trkpt>
      <trkpt lat="44.86686" lon="1.98856">
        <ele>496.3</ele>
        <time>2018-05-20T11:02:07Z</time>
      </trkpt>
      <trkpt lat="44.86691" lon="1.98858">
        <ele>495.4</ele>
        <time>2018-05-20T11:02:13Z</time>
      </trkpt>
      <trkpt lat="44.86695" lon="1.98861">
        <ele>494.8</ele>
        <time>2018-05-20T11:02:16Z</time>
      </trkpt>
      <trkpt lat="44.867" lon="1.98864">
        <ele>494</ele>
        <time>2018-05-20T11:02:21Z</time>
      </trkpt>
      <trkpt lat="44.86704" lon="1.98868">
        <ele>492.8</ele>
        <time>2018-05-20T11:02:26Z</time>
      </trkpt>
      <trkpt lat="44.86707" lon="1.98874">
        <ele>491.3</ele>
        <time>2018-05-20T11:02:37Z</time>
      </trkpt>
      <trkpt lat="44.86711" lon="1.98879">
        <ele>489.8</ele>
        <time>2018-05-20T11:02:41Z</time>
      </trkpt>
      <trkpt lat="44.86714" lon="1.98884">
        <ele>488.5</ele>
        <time>2018-05-20T11:02:45Z</time>
      </trkpt>
      <trkpt lat="44.86717" lon="1.98891">
        <ele>487.3</ele>
        <time>2018-05-20T11:02:55Z</time>
      </trkpt>
      <trkpt lat="44.86718" lon="1.98897">
        <ele>486.7</ele>
        <time>2018-05-20T11:03:00Z</time>
      </trkpt>
      <trkpt lat="44.86721" lon="1.98904">
        <ele>486.1</ele>
        <time>2018-05-20T11:03:07Z</time>
      </trkpt>
      <trkpt lat="44.86724" lon="1.98912">
        <ele>485.5</ele>
        <time>2018-05-20T11:03:14Z</time>
      </trkpt>
      <trkpt lat="44.86728" lon="1.98919">
        <ele>484.7</ele>
        <time>2018-05-20T11:03:19Z</time>
      </trkpt>
      <trkpt lat="44.86729" lon="1.98926">
        <ele>483.8</ele>
        <time>2018-05-20T11:03:29Z</time>
      </trkpt>
      <trkpt lat="44.86731" lon="1.98931">
        <ele>482.8</ele>
        <time>2018-05-20T11:03:39Z</time>
      </trkpt>
      <trkpt lat="44.8673" lon="1.98938">
        <ele>481.5</ele>
        <time>2018-05-20T11:03:53Z</time>
      </trkpt>
      <trkpt lat="44.86724" lon="1.9894">
        <ele>480.4</ele>
        <time>2018-05-20T11:03:59Z</time>
      </trkpt>
      <trkpt lat="44.8672" lon="1.98944">
        <ele>479.3</ele>
        <time>2018-05-20T11:04:07Z</time>
      </trkpt>
      <trkpt lat="44.86717" lon="1.98949">
        <ele>478.2</ele>
        <time>2018-05-20T11:04:12Z</time>
      </trkpt>
      <trkpt lat="44.86714" lon="1.98959">
        <ele>477.1</ele>
        <time>2018-05-20T11:05:11Z</time>
      </trkpt>
      <trkpt lat="44.86713" lon="1.98966">
        <ele>476.6</ele>
        <time>2018-05-20T11:05:13Z</time>
      </trkpt>
      <trkpt lat="44.86709" lon="1.98971">
        <ele>476.3</ele>
        <time>2018-05-20T11:05:19Z</time>
      </trkpt>
      <trkpt lat="44.86706" lon="1.98979">
        <ele>476.3</ele>
        <time>2018-05-20T11:05:24Z</time>
      </trkpt>
      <trkpt lat="44.86703" lon="1.98984">
        <ele>476.4</ele>
        <time>2018-05-20T11:05:27Z</time>
      </trkpt>
      <trkpt lat="44.867" lon="1.98992">
        <ele>476.7</ele>
        <time>2018-05-20T11:05:35Z</time>
      </trkpt>
      <trkpt lat="44.86699" lon="1.99">
        <ele>476.9</ele>
        <time>2018-05-20T11:05:40Z</time>
      </trkpt>
      <trkpt lat="44.867" lon="1.99006">
        <ele>476.9</ele>
        <time>2018-05-20T11:05:44Z</time>
      </trkpt>
      <trkpt lat="44.867" lon="1.99013">
        <ele>477</ele>
        <time>2018-05-20T11:05:48Z</time>
      </trkpt>
      <trkpt lat="44.86697" lon="1.9902">
        <ele>477.2</ele>
        <time>2018-05-20T11:05:53Z</time>
      </trkpt>
      <trkpt lat="44.86695" lon="1.99026">
        <ele>477.4</ele>
        <time>2018-05-20T11:05:58Z</time>
      </trkpt>
      <trkpt lat="44.86692" lon="1.99033">
        <ele>477.6</ele>
        <time>2018-05-20T11:06:03Z</time>
      </trkpt>
      <trkpt lat="44.86689" lon="1.9904">
        <ele>477.7</ele>
        <time>2018-05-20T11:06:06Z</time>
      </trkpt>
      <trkpt lat="44.86688" lon="1.99047">
        <ele>477.6</ele>
        <time>2018-05-20T11:06:10Z</time>
      </trkpt>
      <trkpt lat="44.86689" lon="1.99054">
        <ele>477.4</ele>
        <time>2018-05-20T11:06:18Z</time>
      </trkpt>
      <trkpt lat="44.8669" lon="1.99061">
        <ele>477.1</ele>
        <time>2018-05-20T11:06:21Z</time>
      </trkpt>
      <trkpt lat="44.86691" lon="1.99067">
        <ele>476.7</ele>
        <time>2018-05-20T11:06:24Z</time>
      </trkpt>
      <trkpt lat="44.86694" lon="1.99075">
        <ele>476.4</ele>
        <time>2018-05-20T11:06:28Z</time>
      </trkpt>
      <trkpt lat="44.86696" lon="1.99081">
        <ele>476.1</ele>
        <time>2018-05-20T11:06:32Z</time>
      </trkpt>
      <trkpt lat="44.86697" lon="1.99089">
        <ele>475.8</ele>
        <time>2018-05-20T11:06:38Z</time>
      </trkpt>
      <trkpt lat="44.86698" lon="1.99095">
        <ele>475.6</ele>
        <time>2018-05-20T11:06:41Z</time>
      </trkpt>
      <trkpt lat="44.867" lon="1.99101">
        <ele>475.4</ele>
        <time>2018-05-20T11:06:46Z</time>
      </trkpt>
      <trkpt lat="44.86701" lon="1.99108">
        <ele>475.2</ele>
        <time>2018-05-20T11:06:50Z</time>
      </trkpt>
      <trkpt lat="44.86702" lon="1.99115">
        <ele>475.1</ele>
        <time>2018-05-20T11:06:55Z</time>
      </trkpt>
      <trkpt lat="44.86703" lon="1.99122">
        <ele>474.9</ele>
        <time>2018-05-20T11:06:59Z</time>
      </trkpt>
      <trkpt lat="44.86704" lon="1.99128">
        <ele>474.7</ele>
        <time>2018-05-20T11:07:02Z</time>
      </trkpt>
      <trkpt lat="44.86707" lon="1.99135">
        <ele>474.4</ele>
        <time>2018-05-20T11:07:07Z</time>
      </trkpt>
      <trkpt lat="44.86707" lon="1.99143">
        <ele>474.1</ele>
        <time>2018-05-20T11:07:12Z</time>
      </trkpt>
      <trkpt lat="44.86708" lon="1.9915">
        <ele>473.7</ele>
        <time>2018-05-20T11:07:17Z</time>
      </trkpt>
      <trkpt lat="44.86709" lon="1.99157">
        <ele>473.2</ele>
        <time>2018-05-20T11:07:22Z</time>
      </trkpt>
      <trkpt lat="44.86708" lon="1.99165">
        <ele>472.7</ele>
        <time>2018-05-20T11:07:27Z</time>
      </trkpt>
      <trkpt lat="44.86706" lon="1.99172">
        <ele>472.1</ele>
        <time>2018-05-20T11:07:31Z</time>
      </trkpt>
      <trkpt lat="44.86704" lon="1.9918">
        <ele>471.4</ele>
        <time>2018-05-20T11:07:36Z</time>
      </trkpt>
      <trkpt lat="44.86704" lon="1.99188">
        <ele>470.9</ele>
        <time>2018-05-20T11:07:40Z</time>
      </trkpt>
      <trkpt lat="44.86706" lon="1.99195">
        <ele>470.3</ele>
        <time>2018-05-20T11:07:44Z</time>
      </trkpt>
      <trkpt lat="44.86706" lon="1.99202">
        <ele>469.8</ele>
        <time>2018-05-20T11:07:50Z</time>
      </trkpt>
      <trkpt lat="44.86708" lon="1.99209">
        <ele>469.3</ele>
        <time>2018-05-20T11:07:55Z</time>
      </trkpt>
      <trkpt lat="44.8671" lon="1.99218">
        <ele>468.6</ele>
        <time>2018-05-20T11:08:00Z</time>
      </trkpt>
      <trkpt lat="44.86712" lon="1.99225">
        <ele>467.8</ele>
        <time>2018-05-20T11:08:04Z</time>
      </trkpt>
      <trkpt lat="44.86714" lon="1.99232">
        <ele>466.8</ele>
        <time>2018-05-20T11:08:08Z</time>
      </trkpt>
      <trkpt lat="44.86718" lon="1.99237">
        <ele>465.9</ele>
        <time>2018-05-20T11:08:13Z</time>
      </trkpt>
      <trkpt lat="44.86724" lon="1.99241">
        <ele>465.1</ele>
        <time>2018-05-20T11:08:20Z</time>
      </trkpt>
      <trkpt lat="44.86727" lon="1.99246">
        <ele>464.4</ele>
        <time>2018-05-20T11:08:28Z</time>
      </trkpt>
      <trkpt lat="44.86726" lon="1.99254">
        <ele>464</ele>
        <time>2018-05-20T11:08:32Z</time>
      </trkpt>
      <trkpt lat="44.86725" lon="1.99261">
        <ele>463.6</ele>
        <time>2018-05-20T11:08:35Z</time>
      </trkpt>
      <trkpt lat="44.86724" lon="1.99268">
        <ele>463.3</ele>
        <time>2018-05-20T11:08:40Z</time>
      </trkpt>
      <trkpt lat="44.86722" lon="1.99275">
        <ele>463.1</ele>
        <time>2018-05-20T11:08:45Z</time>
      </trkpt>
      <trkpt lat="44.8672" lon="1.99281">
        <ele>462.9</ele>
        <time>2018-05-20T11:08:49Z</time>
      </trkpt>
      <trkpt lat="44.86719" lon="1.99289">
        <ele>462.8</ele>
        <time>2018-05-20T11:08:55Z</time>
      </trkpt>
      <trkpt lat="44.86716" lon="1.99295">
        <ele>462.6</ele>
        <time>2018-05-20T11:08:59Z</time>
      </trkpt>
      <trkpt lat="44.86716" lon="1.99302">
        <ele>462.3</ele>
        <time>2018-05-20T11:09:03Z</time>
      </trkpt>
      <trkpt lat="44.86715" lon="1.99309">
        <ele>461.9</ele>
        <time>2018-05-20T11:09:09Z</time>
      </trkpt>
      <trkpt lat="44.86714" lon="1.99316">
        <ele>461.3</ele>
        <time>2018-05-20T11:09:14Z</time>
      </trkpt>
      <trkpt lat="44.86712" lon="1.99323">
        <ele>460.7</ele>
        <time>2018-05-20T11:09:19Z</time>
      </trkpt>
      <trkpt lat="44.8671" lon="1.99329">
        <ele>460.1</ele>
        <time>2018-05-20T11:09:23Z</time>
      </trkpt>
      <trkpt lat="44.86708" lon="1.99335">
        <ele>459.5</ele>
        <time>2018-05-20T11:09:27Z</time>
      </trkpt>
      <trkpt lat="44.86707" lon="1.99341">
        <ele>459.1</ele>
        <time>2018-05-20T11:09:32Z</time>
      </trkpt>
      <trkpt lat="44.86705" lon="1.99348">
        <ele>458.9</ele>
        <time>2018-05-20T11:09:36Z</time>
      </trkpt>
      <trkpt lat="44.86703" lon="1.99354">
        <ele>459</ele>
        <time>2018-05-20T11:09:39Z</time>
      </trkpt>
      <trkpt lat="44.86701" lon="1.99361">
        <ele>459.2</ele>
        <time>2018-05-20T11:09:45Z</time>
      </trkpt>
      <trkpt lat="44.86699" lon="1.99368">
        <ele>459.7</ele>
        <time>2018-05-20T11:09:53Z</time>
      </trkpt>
      <trkpt lat="44.86698" lon="1.99375">
        <ele>460.2</ele>
        <time>2018-05-20T11:09:57Z</time>
      </trkpt>
      <trkpt lat="44.86696" lon="1.99382">
        <ele>460.7</ele>
        <time>2018-05-20T11:10:00Z</time>
      </trkpt>
      <trkpt lat="44.86695" lon="1.9939">
        <ele>461.3</ele>
        <time>2018-05-20T11:10:03Z</time>
      </trkpt>
      <trkpt lat="44.86693" lon="1.99397">
        <ele>461.9</ele>
        <time>2018-05-20T11:10:08Z</time>
      </trkpt>
      <trkpt lat="44.86693" lon="1.99404">
        <ele>462.3</ele>
        <time>2018-05-20T11:10:12Z</time>
      </trkpt>
      <trkpt lat="44.86691" lon="1.99412">
        <ele>462.7</ele>
        <time>2018-05-20T11:10:16Z</time>
      </trkpt>
      <trkpt lat="44.86688" lon="1.99418">
        <ele>463</ele>
        <time>2018-05-20T11:10:19Z</time>
      </trkpt>
      <trkpt lat="44.86684" lon="1.99423">
        <ele>463.2</ele>
        <time>2018-05-20T11:10:22Z</time>
      </trkpt>
      <trkpt lat="44.86682" lon="1.9943">
        <ele>463.3</ele>
        <time>2018-05-20T11:10:28Z</time>
      </trkpt>
      <trkpt lat="44.8668" lon="1.99436">
        <ele>463.2</ele>
        <time>2018-05-20T11:10:34Z</time>
      </trkpt>
      <trkpt lat="44.86677" lon="1.99441">
        <ele>463.5</ele>
        <time>2018-05-20T11:10:43Z</time>
      </trkpt>
      <trkpt lat="44.86674" lon="1.99449">
        <ele>464</ele>
        <time>2018-05-20T11:10:48Z</time>
      </trkpt>
      <trkpt lat="44.8667" lon="1.99454">
        <ele>464.5</ele>
        <time>2018-05-20T11:10:52Z</time>
      </trkpt>
      <trkpt lat="44.86667" lon="1.9946">
        <ele>465.1</ele>
        <time>2018-05-20T11:10:56Z</time>
      </trkpt>
      <trkpt lat="44.86665" lon="1.99466">
        <ele>465.7</ele>
        <time>2018-05-20T11:11:14Z</time>
      </trkpt>
      <trkpt lat="44.86663" lon="1.99472">
        <ele>465.8</ele>
        <time>2018-05-20T11:11:19Z</time>
      </trkpt>
      <trkpt lat="44.86661" lon="1.9948">
        <ele>465.8</ele>
        <time>2018-05-20T11:11:22Z</time>
      </trkpt>
      <trkpt lat="44.86658" lon="1.99485">
        <ele>465.5</ele>
        <time>2018-05-20T11:11:28Z</time>
      </trkpt>
      <trkpt lat="44.86655" lon="1.99492">
        <ele>465</ele>
        <time>2018-05-20T11:11:33Z</time>
      </trkpt>
      <trkpt lat="44.86653" lon="1.99498">
        <ele>464.1</ele>
        <time>2018-05-20T11:11:39Z</time>
      </trkpt>
      <trkpt lat="44.86649" lon="1.99504">
        <ele>463</ele>
        <time>2018-05-20T11:11:43Z</time>
      </trkpt>
      <trkpt lat="44.86647" lon="1.9951">
        <ele>461.9</ele>
        <time>2018-05-20T11:11:48Z</time>
      </trkpt>
      <trkpt lat="44.86647" lon="1.99517">
        <ele>460.8</ele>
        <time>2018-05-20T11:11:54Z</time>
      </trkpt>
      <trkpt lat="44.86646" lon="1.99524">
        <ele>459.9</ele>
        <time>2018-05-20T11:12:00Z</time>
      </trkpt>
      <trkpt lat="44.86643" lon="1.9953">
        <ele>459.3</ele>
        <time>2018-05-20T11:12:07Z</time>
      </trkpt>
      <trkpt lat="44.86643" lon="1.99536">
        <ele>459</ele>
        <time>2018-05-20T11:12:14Z</time>
      </trkpt>
      <trkpt lat="44.86644" lon="1.99543">
        <ele>459.1</ele>
        <time>2018-05-20T11:12:18Z</time>
      </trkpt>
      <trkpt lat="44.86645" lon="1.9955">
        <ele>459.4</ele>
        <time>2018-05-20T11:12:24Z</time>
      </trkpt>
      <trkpt lat="44.86646" lon="1.99556">
        <ele>460.3</ele>
        <time>2018-05-20T11:12:27Z</time>
      </trkpt>
      <trkpt lat="44.8665" lon="1.99561">
        <ele>461.4</ele>
        <time>2018-05-20T11:12:31Z</time>
      </trkpt>
      <trkpt lat="44.86653" lon="1.99566">
        <ele>462.6</ele>
        <time>2018-05-20T11:12:38Z</time>
      </trkpt>
      <trkpt lat="44.86657" lon="1.9957">
        <ele>463.6</ele>
        <time>2018-05-20T11:12:44Z</time>
      </trkpt>
      <trkpt lat="44.86661" lon="1.99574">
        <ele>464.2</ele>
        <time>2018-05-20T11:12:59Z</time>
      </trkpt>
      <trkpt lat="44.8666" lon="1.99582">
        <ele>464.2</ele>
        <time>2018-05-20T11:13:07Z</time>
      </trkpt>
      <trkpt lat="44.8666" lon="1.99589">
        <ele>464.3</ele>
        <time>2018-05-20T11:13:10Z</time>
      </trkpt>
      <trkpt lat="44.86658" lon="1.99595">
        <ele>464.3</ele>
        <time>2018-05-20T11:13:17Z</time>
      </trkpt>
      <trkpt lat="44.86653" lon="1.99596">
        <ele>464.3</ele>
        <time>2018-05-20T11:13:39Z</time>
      </trkpt>
      <trkpt lat="44.8665" lon="1.99601">
        <ele>464.3</ele>
        <time>2018-05-20T11:13:50Z</time>
      </trkpt>
      <trkpt lat="44.86646" lon="1.99605">
        <ele>464</ele>
        <time>2018-05-20T11:14:00Z</time>
      </trkpt>
      <trkpt lat="44.86642" lon="1.99609">
        <ele>463.2</ele>
        <time>2018-05-20T11:14:08Z</time>
      </trkpt>
      <trkpt lat="44.86638" lon="1.99614">
        <ele>462.5</ele>
        <time>2018-05-20T11:14:16Z</time>
      </trkpt>
      <trkpt lat="44.86636" lon="1.99621">
        <ele>461.8</ele>
        <time>2018-05-20T11:14:23Z</time>
      </trkpt>
      <trkpt lat="44.86632" lon="1.99629">
        <ele>461.2</ele>
        <time>2018-05-20T11:14:31Z</time>
      </trkpt>
      <trkpt lat="44.86626" lon="1.99634">
        <ele>460.8</ele>
        <time>2018-05-20T11:14:38Z</time>
      </trkpt>
      <trkpt lat="44.86621" lon="1.99637">
        <ele>460.5</ele>
        <time>2018-05-20T11:14:42Z</time>
      </trkpt>
      <trkpt lat="44.86616" lon="1.99638">
        <ele>460.2</ele>
        <time>2018-05-20T11:14:48Z</time>
      </trkpt>
      <trkpt lat="44.86612" lon="1.99637">
        <ele>459.7</ele>
        <time>2018-05-20T11:14:56Z</time>
      </trkpt>
      <trkpt lat="44.86608" lon="1.99639">
        <ele>459.1</ele>
        <time>2018-05-20T11:15:01Z</time>
      </trkpt>
      <trkpt lat="44.86602" lon="1.99643">
        <ele>458.2</ele>
        <time>2018-05-20T11:15:03Z</time>
      </trkpt>
      <trkpt lat="44.86597" lon="1.99649">
        <ele>457</ele>
        <time>2018-05-20T11:15:08Z</time>
      </trkpt>
      <trkpt lat="44.86592" lon="1.99651">
        <ele>455.7</ele>
        <time>2018-05-20T11:15:16Z</time>
      </trkpt>
      <trkpt lat="44.86588" lon="1.99652">
        <ele>454.4</ele>
        <time>2018-05-20T11:15:19Z</time>
      </trkpt>
      <trkpt lat="44.86584" lon="1.99655">
        <ele>453.3</ele>
        <time>2018-05-20T11:15:29Z</time>
      </trkpt>
      <trkpt lat="44.86578" lon="1.99658">
        <ele>452.5</ele>
        <time>2018-05-20T11:15:51Z</time>
      </trkpt>
      <trkpt lat="44.86572" lon="1.9966">
        <ele>451.9</ele>
        <time>2018-05-20T11:15:59Z</time>
      </trkpt>
      <trkpt lat="44.86568" lon="1.99659">
        <ele>451.6</ele>
        <time>2018-05-20T11:16:04Z</time>
      </trkpt>
      <trkpt lat="44.86561" lon="1.99661">
        <ele>451.3</ele>
        <time>2018-05-20T11:16:06Z</time>
      </trkpt>
      <trkpt lat="44.86556" lon="1.99663">
        <ele>450.9</ele>
        <time>2018-05-20T11:16:10Z</time>
      </trkpt>
      <trkpt lat="44.86551" lon="1.99664">
        <ele>450.5</ele>
        <time>2018-05-20T11:16:19Z</time>
      </trkpt>
      <trkpt lat="44.86547" lon="1.9966">
        <ele>450.1</ele>
        <time>2018-05-20T11:16:24Z</time>
      </trkpt>
      <trkpt lat="44.86543" lon="1.99657">
        <ele>449.6</ele>
        <time>2018-05-20T11:16:34Z</time>
      </trkpt>
      <trkpt lat="44.86538" lon="1.99654">
        <ele>449.2</ele>
        <time>2018-05-20T11:16:41Z</time>
      </trkpt>
      <trkpt lat="44.86532" lon="1.99652">
        <ele>448.7</ele>
        <time>2018-05-20T11:16:45Z</time>
      </trkpt>
      <trkpt lat="44.86527" lon="1.99651">
        <ele>448.1</ele>
        <time>2018-05-20T11:16:51Z</time>
      </trkpt>
      <trkpt lat="44.86523" lon="1.99649">
        <ele>447.3</ele>
        <time>2018-05-20T11:16:58Z</time>
      </trkpt>
      <trkpt lat="44.86519" lon="1.99644">
        <ele>446.5</ele>
        <time>2018-05-20T11:17:02Z</time>
      </trkpt>
      <trkpt lat="44.86514" lon="1.99636">
        <ele>444.7</ele>
        <time>2018-05-20T11:17:11Z</time>
      </trkpt>
      <trkpt lat="44.86511" lon="1.9963">
        <ele>441</ele>
        <time>2018-05-20T11:17:20Z</time>
      </trkpt>
      <trkpt lat="44.86509" lon="1.99623">
        <ele>437.5</ele>
        <time>2018-05-20T11:17:28Z</time>
      </trkpt>
      <trkpt lat="44.86508" lon="1.99616">
        <ele>434.4</ele>
        <time>2018-05-20T11:17:57Z</time>
      </trkpt>
      <trkpt lat="44.86506" lon="1.9961">
        <ele>430.9</ele>
        <time>2018-05-20T11:19:05Z</time>
      </trkpt>
      <trkpt lat="44.865" lon="1.99605">
        <ele>429.2</ele>
        <time>2018-05-20T11:19:59Z</time>
      </trkpt>
      <trkpt lat="44.86496" lon="1.996">
        <ele>430.5</ele>
        <time>2018-05-20T11:20:07Z</time>
      </trkpt>
      <trkpt lat="44.86495" lon="1.99592">
        <ele>431.8</ele>
        <time>2018-05-20T11:20:16Z</time>
      </trkpt>
      <trkpt lat="44.86494" lon="1.99585">
        <ele>432.6</ele>
        <time>2018-05-20T11:20:27Z</time>
      </trkpt>
      <trkpt lat="44.86494" lon="1.99592">
        <ele>433.9</ele>
        <time>2018-05-20T11:20:48Z</time>
      </trkpt>
      <trkpt lat="44.86498" lon="1.99602">
        <ele>435.3</ele>
        <time>2018-05-20T11:21:11Z</time>
      </trkpt>
      <trkpt lat="44.86502" lon="1.99605">
        <ele>435.7</ele>
        <time>2018-05-20T11:22:01Z</time>
      </trkpt>
      <trkpt lat="44.86498" lon="1.99602">
        <ele>436.9</ele>
        <time>2018-05-20T12:00:23Z</time>
      </trkpt>
      <trkpt lat="44.86493" lon="1.99602">
        <ele>439.2</ele>
        <time>2018-05-20T12:00:33Z</time>
      </trkpt>
      <trkpt lat="44.8649" lon="1.99593">
        <ele>441.5</ele>
        <time>2018-05-20T12:00:53Z</time>
      </trkpt>
      <trkpt lat="44.86489" lon="1.99586">
        <ele>443.4</ele>
        <time>2018-05-20T12:00:55Z</time>
      </trkpt>
      <trkpt lat="44.86487" lon="1.9958">
        <ele>445.3</ele>
        <time>2018-05-20T12:01:16Z</time>
      </trkpt>
      <trkpt lat="44.86481" lon="1.99573">
        <ele>446.8</ele>
        <time>2018-05-20T12:01:27Z</time>
      </trkpt>
      <trkpt lat="44.86476" lon="1.99572">
        <ele>448</ele>
        <time>2018-05-20T12:01:32Z</time>
      </trkpt>
      <trkpt lat="44.86471" lon="1.99578">
        <ele>448.5</ele>
        <time>2018-05-20T12:01:38Z</time>
      </trkpt>
      <trkpt lat="44.86467" lon="1.99583">
        <ele>448.6</ele>
        <time>2018-05-20T12:01:40Z</time>
      </trkpt>
      <trkpt lat="44.86462" lon="1.99582">
        <ele>448.5</ele>
        <time>2018-05-20T12:01:49Z</time>
      </trkpt>
      <trkpt lat="44.86457" lon="1.99582">
        <ele>447.9</ele>
        <time>2018-05-20T12:02:00Z</time>
      </trkpt>
      <trkpt lat="44.86452" lon="1.99582">
        <ele>447.2</ele>
        <time>2018-05-20T12:02:19Z</time>
      </trkpt>
      <trkpt lat="44.86448" lon="1.99583">
        <ele>446.5</ele>
        <time>2018-05-20T12:02:23Z</time>
      </trkpt>
      <trkpt lat="44.86443" lon="1.99582">
        <ele>446.2</ele>
        <time>2018-05-20T12:02:47Z</time>
      </trkpt>
      <trkpt lat="44.86446" lon="1.99587">
        <ele>446.3</ele>
        <time>2018-05-20T12:03:05Z</time>
      </trkpt>
      <trkpt lat="44.86446" lon="1.99594">
        <ele>446.4</ele>
        <time>2018-05-20T12:03:10Z</time>
      </trkpt>
      <trkpt lat="44.86445" lon="1.99601">
        <ele>446.5</ele>
        <time>2018-05-20T12:03:20Z</time>
      </trkpt>
      <trkpt lat="44.8644" lon="1.99602">
        <ele>446.7</ele>
        <time>2018-05-20T12:03:58Z</time>
      </trkpt>
      <trkpt lat="44.86436" lon="1.99606">
        <ele>446.6</ele>
        <time>2018-05-20T12:04:27Z</time>
      </trkpt>
      <trkpt lat="44.86431" lon="1.99607">
        <ele>446</ele>
        <time>2018-05-20T12:04:46Z</time>
      </trkpt>
      <trkpt lat="44.86426" lon="1.99606">
        <ele>445.8</ele>
        <time>2018-05-20T12:04:49Z</time>
      </trkpt>
      <trkpt lat="44.86421" lon="1.99607">
        <ele>446.4</ele>
        <time>2018-05-20T12:04:51Z</time>
      </trkpt>
      <trkpt lat="44.86417" lon="1.9961">
        <ele>447.3</ele>
        <time>2018-05-20T12:04:54Z</time>
      </trkpt>
      <trkpt lat="44.86412" lon="1.99615">
        <ele>448.9</ele>
        <time>2018-05-20T12:04:57Z</time>
      </trkpt>
      <trkpt lat="44.86408" lon="1.99619">
        <ele>450.9</ele>
        <time>2018-05-20T12:05:08Z</time>
      </trkpt>
      <trkpt lat="44.86405" lon="1.99624">
        <ele>452.9</ele>
        <time>2018-05-20T12:05:17Z</time>
      </trkpt>
      <trkpt lat="44.86404" lon="1.9963">
        <ele>454.8</ele>
        <time>2018-05-20T12:05:22Z</time>
      </trkpt>
      <trkpt lat="44.86402" lon="1.99636">
        <ele>456.7</ele>
        <time>2018-05-20T12:05:29Z</time>
      </trkpt>
      <trkpt lat="44.864" lon="1.99642">
        <ele>458.4</ele>
        <time>2018-05-20T12:05:37Z</time>
      </trkpt>
      <trkpt lat="44.86396" lon="1.99646">
        <ele>459.8</ele>
        <time>2018-05-20T12:05:46Z</time>
      </trkpt>
      <trkpt lat="44.86391" lon="1.99652">
        <ele>461.2</ele>
        <time>2018-05-20T12:05:54Z</time>
      </trkpt>
      <trkpt lat="44.86388" lon="1.99657">
        <ele>462.7</ele>
        <time>2018-05-20T12:06:03Z</time>
      </trkpt>
      <trkpt lat="44.86388" lon="1.99664">
        <ele>464.1</ele>
        <time>2018-05-20T12:06:13Z</time>
      </trkpt>
      <trkpt lat="44.86387" lon="1.9967">
        <ele>465.5</ele>
        <time>2018-05-20T12:06:15Z</time>
      </trkpt>
      <trkpt lat="44.86385" lon="1.99677">
        <ele>466.8</ele>
        <time>2018-05-20T12:06:28Z</time>
      </trkpt>
      <trkpt lat="44.86383" lon="1.99685">
        <ele>467.9</ele>
        <time>2018-05-20T12:06:37Z</time>
      </trkpt>
      <trkpt lat="44.86384" lon="1.99693">
        <ele>468.6</ele>
        <time>2018-05-20T12:06:43Z</time>
      </trkpt>
      <trkpt lat="44.86384" lon="1.997">
        <ele>469.1</ele>
        <time>2018-05-20T12:06:52Z</time>
      </trkpt>
      <trkpt lat="44.86382" lon="1.99706">
        <ele>469.5</ele>
        <time>2018-05-20T12:06:57Z</time>
      </trkpt>
      <trkpt lat="44.86381" lon="1.99713">
        <ele>470.3</ele>
        <time>2018-05-20T12:07:03Z</time>
      </trkpt>
      <trkpt lat="44.86382" lon="1.99722">
        <ele>471.3</ele>
        <time>2018-05-20T12:07:08Z</time>
      </trkpt>
      <trkpt lat="44.86383" lon="1.99729">
        <ele>472.2</ele>
        <time>2018-05-20T12:07:11Z</time>
      </trkpt>
      <trkpt lat="44.86383" lon="1.99736">
        <ele>473.2</ele>
        <time>2018-05-20T12:07:16Z</time>
      </trkpt>
      <trkpt lat="44.86378" lon="1.99737">
        <ele>474.2</ele>
        <time>2018-05-20T12:07:29Z</time>
      </trkpt>
      <trkpt lat="44.86375" lon="1.99732">
        <ele>474.9</ele>
        <time>2018-05-20T12:07:37Z</time>
      </trkpt>
      <trkpt lat="44.86369" lon="1.99728">
        <ele>475.3</ele>
        <time>2018-05-20T12:07:40Z</time>
      </trkpt>
      <trkpt lat="44.86366" lon="1.99723">
        <ele>475.6</ele>
        <time>2018-05-20T12:07:42Z</time>
      </trkpt>
      <trkpt lat="44.86362" lon="1.99718">
        <ele>475.7</ele>
        <time>2018-05-20T12:07:47Z</time>
      </trkpt>
      <trkpt lat="44.8636" lon="1.9971">
        <ele>475.7</ele>
        <time>2018-05-20T12:07:54Z</time>
      </trkpt>
      <trkpt lat="44.86358" lon="1.99704">
        <ele>475.8</ele>
        <time>2018-05-20T12:07:57Z</time>
      </trkpt>
      <trkpt lat="44.86355" lon="1.99699">
        <ele>476.4</ele>
        <time>2018-05-20T12:08:03Z</time>
      </trkpt>
      <trkpt lat="44.86352" lon="1.99692">
        <ele>477.3</ele>
        <time>2018-05-20T12:08:10Z</time>
      </trkpt>
      <trkpt lat="44.86349" lon="1.99687">
        <ele>478.4</ele>
        <time>2018-05-20T12:08:15Z</time>
      </trkpt>
      <trkpt lat="44.86346" lon="1.99683">
        <ele>479.5</ele>
        <time>2018-05-20T12:08:22Z</time>
      </trkpt>
      <trkpt lat="44.86341" lon="1.99682">
        <ele>480.4</ele>
        <time>2018-05-20T12:08:31Z</time>
      </trkpt>
      <trkpt lat="44.86336" lon="1.99683">
        <ele>481.1</ele>
        <time>2018-05-20T12:08:38Z</time>
      </trkpt>
      <trkpt lat="44.86332" lon="1.99686">
        <ele>482.1</ele>
        <time>2018-05-20T12:08:43Z</time>
      </trkpt>
      <trkpt lat="44.86328" lon="1.9969">
        <ele>483.3</ele>
        <time>2018-05-20T12:08:53Z</time>
      </trkpt>
      <trkpt lat="44.86326" lon="1.99696">
        <ele>484.9</ele>
        <time>2018-05-20T12:09:00Z</time>
      </trkpt>
      <trkpt lat="44.86323" lon="1.99702">
        <ele>486.7</ele>
        <time>2018-05-20T12:09:05Z</time>
      </trkpt>
      <trkpt lat="44.86321" lon="1.9971">
        <ele>488.5</ele>
        <time>2018-05-20T12:09:16Z</time>
      </trkpt>
      <trkpt lat="44.8632" lon="1.99716">
        <ele>490.1</ele>
        <time>2018-05-20T12:09:21Z</time>
      </trkpt>
      <trkpt lat="44.86317" lon="1.99721">
        <ele>491.9</ele>
        <time>2018-05-20T12:09:26Z</time>
      </trkpt>
      <trkpt lat="44.86314" lon="1.99728">
        <ele>493.6</ele>
        <time>2018-05-20T12:09:33Z</time>
      </trkpt>
      <trkpt lat="44.86313" lon="1.99734">
        <ele>495.3</ele>
        <time>2018-05-20T12:09:40Z</time>
      </trkpt>
      <trkpt lat="44.8631" lon="1.99739">
        <ele>496.9</ele>
        <time>2018-05-20T12:09:48Z</time>
      </trkpt>
      <trkpt lat="44.86307" lon="1.99743">
        <ele>498.3</ele>
        <time>2018-05-20T12:09:57Z</time>
      </trkpt>
      <trkpt lat="44.86302" lon="1.99751">
        <ele>499.1</ele>
        <time>2018-05-20T12:10:00Z</time>
      </trkpt>
      <trkpt lat="44.86298" lon="1.99755">
        <ele>499.8</ele>
        <time>2018-05-20T12:10:04Z</time>
      </trkpt>
      <trkpt lat="44.86293" lon="1.99759">
        <ele>500.5</ele>
        <time>2018-05-20T12:10:07Z</time>
      </trkpt>
      <trkpt lat="44.86289" lon="1.99761">
        <ele>501.1</ele>
        <time>2018-05-20T12:10:16Z</time>
      </trkpt>
      <trkpt lat="44.86284" lon="1.99765">
        <ele>501.6</ele>
        <time>2018-05-20T12:10:27Z</time>
      </trkpt>
      <trkpt lat="44.86275" lon="1.99766">
        <ele>502.2</ele>
        <time>2018-05-20T12:10:36Z</time>
      </trkpt>
      <trkpt lat="44.8627" lon="1.99766">
        <ele>503.1</ele>
        <time>2018-05-20T12:10:45Z</time>
      </trkpt>
      <trkpt lat="44.86259" lon="1.99763">
        <ele>503.8</ele>
        <time>2018-05-20T12:10:53Z</time>
      </trkpt>
      <trkpt lat="44.8625" lon="1.99765">
        <ele>504.7</ele>
        <time>2018-05-20T12:10:57Z</time>
      </trkpt>
      <trkpt lat="44.86245" lon="1.99765">
        <ele>505.9</ele>
        <time>2018-05-20T12:11:04Z</time>
      </trkpt>
      <trkpt lat="44.86241" lon="1.99763">
        <ele>507.2</ele>
        <time>2018-05-20T12:11:08Z</time>
      </trkpt>
      <trkpt lat="44.86236" lon="1.99762">
        <ele>508.6</ele>
        <time>2018-05-20T12:11:11Z</time>
      </trkpt>
      <trkpt lat="44.86232" lon="1.99758">
        <ele>509.8</ele>
        <time>2018-05-20T12:11:32Z</time>
      </trkpt>
      <trkpt lat="44.86227" lon="1.99758">
        <ele>511.5</ele>
        <time>2018-05-20T12:11:40Z</time>
      </trkpt>
      <trkpt lat="44.86222" lon="1.99761">
        <ele>513.2</ele>
        <time>2018-05-20T12:11:50Z</time>
      </trkpt>
      <trkpt lat="44.86217" lon="1.99759">
        <ele>514.5</ele>
        <time>2018-05-20T12:12:04Z</time>
      </trkpt>
      <trkpt lat="44.86212" lon="1.99759">
        <ele>516</ele>
        <time>2018-05-20T12:12:07Z</time>
      </trkpt>
      <trkpt lat="44.86207" lon="1.99761">
        <ele>517.7</ele>
        <time>2018-05-20T12:14:49Z</time>
      </trkpt>
      <trkpt lat="44.86203" lon="1.99764">
        <ele>518.7</ele>
        <time>2018-05-20T12:18:43Z</time>
      </trkpt>
      <trkpt lat="44.86201" lon="1.9977">
        <ele>519.7</ele>
        <time>2018-05-20T12:18:54Z</time>
      </trkpt>
      <trkpt lat="44.86196" lon="1.99777">
        <ele>520.7</ele>
        <time>2018-05-20T12:18:59Z</time>
      </trkpt>
      <trkpt lat="44.86192" lon="1.99783">
        <ele>521.8</ele>
        <time>2018-05-20T12:19:03Z</time>
      </trkpt>
      <trkpt lat="44.86191" lon="1.99789">
        <ele>523</ele>
        <time>2018-05-20T12:19:07Z</time>
      </trkpt>
      <trkpt lat="44.86187" lon="1.99795">
        <ele>524.4</ele>
        <time>2018-05-20T12:19:12Z</time>
      </trkpt>
      <trkpt lat="44.86182" lon="1.99803">
        <ele>526.1</ele>
        <time>2018-05-20T12:19:16Z</time>
      </trkpt>
      <trkpt lat="44.8618" lon="1.99809">
        <ele>528.1</ele>
        <time>2018-05-20T12:19:21Z</time>
      </trkpt>
      <trkpt lat="44.86177" lon="1.99814">
        <ele>530</ele>
        <time>2018-05-20T12:19:29Z</time>
      </trkpt>
      <trkpt lat="44.86173" lon="1.99819">
        <ele>531.8</ele>
        <time>2018-05-20T12:19:38Z</time>
      </trkpt>
      <trkpt lat="44.86168" lon="1.99822">
        <ele>533.4</ele>
        <time>2018-05-20T12:19:48Z</time>
      </trkpt>
      <trkpt lat="44.86166" lon="1.99827">
        <ele>534.5</ele>
        <time>2018-05-20T12:19:57Z</time>
      </trkpt>
      <trkpt lat="44.86165" lon="1.99834">
        <ele>535.2</ele>
        <time>2018-05-20T12:20:00Z</time>
      </trkpt>
      <trkpt lat="44.8616" lon="1.99838">
        <ele>535.7</ele>
        <time>2018-05-20T12:20:05Z</time>
      </trkpt>
      <trkpt lat="44.86157" lon="1.99843">
        <ele>536.2</ele>
        <time>2018-05-20T12:20:15Z</time>
      </trkpt>
      <trkpt lat="44.86152" lon="1.99849">
        <ele>536.5</ele>
        <time>2018-05-20T12:20:17Z</time>
      </trkpt>
      <trkpt lat="44.86147" lon="1.99853">
        <ele>536.8</ele>
        <time>2018-05-20T12:20:26Z</time>
      </trkpt>
      <trkpt lat="44.86143" lon="1.99858">
        <ele>537.2</ele>
        <time>2018-05-20T12:20:33Z</time>
      </trkpt>
      <trkpt lat="44.86138" lon="1.99858">
        <ele>537.6</ele>
        <time>2018-05-20T12:20:37Z</time>
      </trkpt>
      <trkpt lat="44.86133" lon="1.99861">
        <ele>538</ele>
        <time>2018-05-20T12:20:39Z</time>
      </trkpt>
      <trkpt lat="44.86129" lon="1.99866">
        <ele>538.4</ele>
        <time>2018-05-20T12:20:42Z</time>
      </trkpt>
      <trkpt lat="44.86125" lon="1.9987">
        <ele>538.8</ele>
        <time>2018-05-20T12:20:45Z</time>
      </trkpt>
      <trkpt lat="44.86121" lon="1.99876">
        <ele>539.3</ele>
        <time>2018-05-20T12:20:53Z</time>
      </trkpt>
      <trkpt lat="44.86118" lon="1.99882">
        <ele>540.1</ele>
        <time>2018-05-20T12:20:56Z</time>
      </trkpt>
      <trkpt lat="44.86114" lon="1.99885">
        <ele>541.1</ele>
        <time>2018-05-20T12:20:59Z</time>
      </trkpt>
      <trkpt lat="44.86109" lon="1.99888">
        <ele>542.6</ele>
        <time>2018-05-20T12:21:08Z</time>
      </trkpt>
      <trkpt lat="44.86104" lon="1.99894">
        <ele>544.3</ele>
        <time>2018-05-20T12:21:10Z</time>
      </trkpt>
      <trkpt lat="44.86099" lon="1.999">
        <ele>546</ele>
        <time>2018-05-20T12:21:20Z</time>
      </trkpt>
      <trkpt lat="44.86094" lon="1.99903">
        <ele>547.2</ele>
        <time>2018-05-20T12:21:25Z</time>
      </trkpt>
      <trkpt lat="44.86089" lon="1.99904">
        <ele>548.1</ele>
        <time>2018-05-20T12:21:34Z</time>
      </trkpt>
      <trkpt lat="44.86087" lon="1.9991">
        <ele>548.7</ele>
        <time>2018-05-20T12:21:42Z</time>
      </trkpt>
      <trkpt lat="44.86082" lon="1.99913">
        <ele>549</ele>
        <time>2018-05-20T12:21:46Z</time>
      </trkpt>
      <trkpt lat="44.86076" lon="1.99916">
        <ele>549.1</ele>
        <time>2018-05-20T12:21:53Z</time>
      </trkpt>
      <trkpt lat="44.86069" lon="1.99919">
        <ele>549.2</ele>
        <time>2018-05-20T12:21:55Z</time>
      </trkpt>
      <trkpt lat="44.86065" lon="1.99921">
        <ele>549.2</ele>
        <time>2018-05-20T12:22:04Z</time>
      </trkpt>
      <trkpt lat="44.86061" lon="1.99925">
        <ele>549.1</ele>
        <time>2018-05-20T12:22:11Z</time>
      </trkpt>
      <trkpt lat="44.86056" lon="1.9993">
        <ele>549.1</ele>
        <time>2018-05-20T12:22:15Z</time>
      </trkpt>
      <trkpt lat="44.86052" lon="1.99933">
        <ele>549.1</ele>
        <time>2018-05-20T12:22:22Z</time>
      </trkpt>
      <trkpt lat="44.86049" lon="1.99937">
        <ele>549</ele>
        <time>2018-05-20T12:22:29Z</time>
      </trkpt>
      <trkpt lat="44.86043" lon="1.99942">
        <ele>548.9</ele>
        <time>2018-05-20T12:22:38Z</time>
      </trkpt>
      <trkpt lat="44.86038" lon="1.99946">
        <ele>548.5</ele>
        <time>2018-05-20T12:22:46Z</time>
      </trkpt>
      <trkpt lat="44.86033" lon="1.99951">
        <ele>548.1</ele>
        <time>2018-05-20T12:22:49Z</time>
      </trkpt>
      <trkpt lat="44.86029" lon="1.99955">
        <ele>547.5</ele>
        <time>2018-05-20T12:22:55Z</time>
      </trkpt>
      <trkpt lat="44.86025" lon="1.99959">
        <ele>546.9</ele>
        <time>2018-05-20T12:23:04Z</time>
      </trkpt>
      <trkpt lat="44.86021" lon="1.99964">
        <ele>546.1</ele>
        <time>2018-05-20T12:23:09Z</time>
      </trkpt>
      <trkpt lat="44.86016" lon="1.99968">
        <ele>545.5</ele>
        <time>2018-05-20T12:23:12Z</time>
      </trkpt>
      <trkpt lat="44.86013" lon="1.99973">
        <ele>544.7</ele>
        <time>2018-05-20T12:23:18Z</time>
      </trkpt>
      <trkpt lat="44.8601" lon="1.99979">
        <ele>544.1</ele>
        <time>2018-05-20T12:23:25Z</time>
      </trkpt>
      <trkpt lat="44.86006" lon="1.99984">
        <ele>543.6</ele>
        <time>2018-05-20T12:23:33Z</time>
      </trkpt>
      <trkpt lat="44.86002" lon="1.99991">
        <ele>543.3</ele>
        <time>2018-05-20T12:23:35Z</time>
      </trkpt>
      <trkpt lat="44.85998" lon="1.99994">
        <ele>542.9</ele>
        <time>2018-05-20T12:23:42Z</time>
      </trkpt>
      <trkpt lat="44.85994" lon="1.99998">
        <ele>542.6</ele>
        <time>2018-05-20T12:23:45Z</time>
      </trkpt>
      <trkpt lat="44.85991" lon="2.00003">
        <ele>542.2</ele>
        <time>2018-05-20T12:23:51Z</time>
      </trkpt>
      <trkpt lat="44.85987" lon="2.00008">
        <ele>541.8</ele>
        <time>2018-05-20T12:23:58Z</time>
      </trkpt>
      <trkpt lat="44.85983" lon="2.00011">
        <ele>541.4</ele>
        <time>2018-05-20T12:24:01Z</time>
      </trkpt>
      <trkpt lat="44.85978" lon="2.00014">
        <ele>541</ele>
        <time>2018-05-20T12:24:06Z</time>
      </trkpt>
      <trkpt lat="44.85975" lon="2.00019">
        <ele>540.8</ele>
        <time>2018-05-20T12:24:14Z</time>
      </trkpt>
      <trkpt lat="44.8597" lon="2.00023">
        <ele>540.4</ele>
        <time>2018-05-20T12:24:20Z</time>
      </trkpt>
      <trkpt lat="44.85966" lon="2.00028">
        <ele>540.1</ele>
        <time>2018-05-20T12:24:23Z</time>
      </trkpt>
      <trkpt lat="44.85962" lon="2.00032">
        <ele>539.9</ele>
        <time>2018-05-20T12:24:29Z</time>
      </trkpt>
      <trkpt lat="44.85955" lon="2.00033">
        <ele>539.7</ele>
        <time>2018-05-20T12:24:36Z</time>
      </trkpt>
      <trkpt lat="44.8595" lon="2.00031">
        <ele>539.6</ele>
        <time>2018-05-20T12:24:49Z</time>
      </trkpt>
      <trkpt lat="44.85946" lon="2.00025">
        <ele>539.7</ele>
        <time>2018-05-20T12:24:55Z</time>
      </trkpt>
      <trkpt lat="44.85942" lon="2.00019">
        <ele>540.1</ele>
        <time>2018-05-20T12:25:01Z</time>
      </trkpt>
      <trkpt lat="44.85938" lon="2.00014">
        <ele>540.5</ele>
        <time>2018-05-20T12:25:03Z</time>
      </trkpt>
      <trkpt lat="44.85933" lon="2.0001">
        <ele>540.8</ele>
        <time>2018-05-20T12:25:06Z</time>
      </trkpt>
      <trkpt lat="44.85929" lon="2.00007">
        <ele>540.9</ele>
        <time>2018-05-20T12:25:09Z</time>
      </trkpt>
      <trkpt lat="44.85924" lon="2.00004">
        <ele>540.8</ele>
        <time>2018-05-20T12:25:16Z</time>
      </trkpt>
      <trkpt lat="44.85917" lon="2.00003">
        <ele>540.5</ele>
        <time>2018-05-20T12:25:21Z</time>
      </trkpt>
      <trkpt lat="44.8591" lon="2.00003">
        <ele>540.2</ele>
        <time>2018-05-20T12:25:23Z</time>
      </trkpt>
      <trkpt lat="44.85906" lon="2.00005">
        <ele>539.9</ele>
        <time>2018-05-20T12:25:29Z</time>
      </trkpt>
      <trkpt lat="44.85902" lon="2.0001">
        <ele>539.6</ele>
        <time>2018-05-20T12:25:33Z</time>
      </trkpt>
      <trkpt lat="44.85899" lon="2.00014">
        <ele>539.3</ele>
        <time>2018-05-20T12:25:36Z</time>
      </trkpt>
      <trkpt lat="44.85894" lon="2.00017">
        <ele>539</ele>
        <time>2018-05-20T12:25:43Z</time>
      </trkpt>
      <trkpt lat="44.85889" lon="2.0002">
        <ele>538.5</ele>
        <time>2018-05-20T12:25:49Z</time>
      </trkpt>
      <trkpt lat="44.85884" lon="2.00023">
        <ele>538.1</ele>
        <time>2018-05-20T12:25:55Z</time>
      </trkpt>
      <trkpt lat="44.85883" lon="2.00029">
        <ele>537.7</ele>
        <time>2018-05-20T12:26:01Z</time>
      </trkpt>
      <trkpt lat="44.85881" lon="2.00036">
        <ele>537.3</ele>
        <time>2018-05-20T12:26:06Z</time>
      </trkpt>
      <trkpt lat="44.85879" lon="2.00043">
        <ele>536.8</ele>
        <time>2018-05-20T12:26:12Z</time>
      </trkpt>
      <trkpt lat="44.85879" lon="2.0005">
        <ele>536.3</ele>
        <time>2018-05-20T12:26:15Z</time>
      </trkpt>
      <trkpt lat="44.85878" lon="2.00056">
        <ele>535.6</ele>
        <time>2018-05-20T12:26:19Z</time>
      </trkpt>
      <trkpt lat="44.85876" lon="2.00062">
        <ele>534.8</ele>
        <time>2018-05-20T12:26:26Z</time>
      </trkpt>
      <trkpt lat="44.85872" lon="2.00068">
        <ele>534.2</ele>
        <time>2018-05-20T12:26:35Z</time>
      </trkpt>
      <trkpt lat="44.8587" lon="2.00074">
        <ele>533.8</ele>
        <time>2018-05-20T12:26:40Z</time>
      </trkpt>
      <trkpt lat="44.85866" lon="2.00079">
        <ele>533.4</ele>
        <time>2018-05-20T12:26:46Z</time>
      </trkpt>
      <trkpt lat="44.85863" lon="2.00084">
        <ele>533.4</ele>
        <time>2018-05-20T12:26:56Z</time>
      </trkpt>
      <trkpt lat="44.85856" lon="2.00088">
        <ele>533.4</ele>
        <time>2018-05-20T12:26:58Z</time>
      </trkpt>
      <trkpt lat="44.85852" lon="2.00092">
        <ele>533.5</ele>
        <time>2018-05-20T12:27:04Z</time>
      </trkpt>
      <trkpt lat="44.85846" lon="2.00095">
        <ele>533.7</ele>
        <time>2018-05-20T12:27:10Z</time>
      </trkpt>
      <trkpt lat="44.85842" lon="2.00097">
        <ele>533.8</ele>
        <time>2018-05-20T12:27:14Z</time>
      </trkpt>
      <trkpt lat="44.85837" lon="2.00098">
        <ele>533.9</ele>
        <time>2018-05-20T12:27:17Z</time>
      </trkpt>
      <trkpt lat="44.85831" lon="2.00097">
        <ele>533.9</ele>
        <time>2018-05-20T12:27:24Z</time>
      </trkpt>
      <trkpt lat="44.85824" lon="2.001">
        <ele>533.8</ele>
        <time>2018-05-20T12:27:28Z</time>
      </trkpt>
      <trkpt lat="44.8582" lon="2.00106">
        <ele>533.8</ele>
        <time>2018-05-20T12:27:34Z</time>
      </trkpt>
      <trkpt lat="44.85816" lon="2.00109">
        <ele>533.7</ele>
        <time>2018-05-20T12:27:38Z</time>
      </trkpt>
      <trkpt lat="44.85811" lon="2.0011">
        <ele>533.5</ele>
        <time>2018-05-20T12:27:45Z</time>
      </trkpt>
      <trkpt lat="44.85806" lon="2.00113">
        <ele>533.5</ele>
        <time>2018-05-20T12:27:53Z</time>
      </trkpt>
      <trkpt lat="44.85798" lon="2.00115">
        <ele>533.7</ele>
        <time>2018-05-20T12:28:00Z</time>
      </trkpt>
      <trkpt lat="44.85792" lon="2.00117">
        <ele>533.9</ele>
        <time>2018-05-20T12:28:10Z</time>
      </trkpt>
      <trkpt lat="44.85788" lon="2.0012">
        <ele>534.3</ele>
        <time>2018-05-20T12:28:13Z</time>
      </trkpt>
      <trkpt lat="44.85783" lon="2.00123">
        <ele>534.9</ele>
        <time>2018-05-20T12:28:22Z</time>
      </trkpt>
      <trkpt lat="44.85777" lon="2.00126">
        <ele>535.7</ele>
        <time>2018-05-20T12:28:25Z</time>
      </trkpt>
      <trkpt lat="44.85772" lon="2.00127">
        <ele>536.4</ele>
        <time>2018-05-20T12:28:28Z</time>
      </trkpt>
      <trkpt lat="44.85768" lon="2.00128">
        <ele>537.3</ele>
        <time>2018-05-20T12:28:32Z</time>
      </trkpt>
      <trkpt lat="44.85763" lon="2.00131">
        <ele>538.1</ele>
        <time>2018-05-20T12:28:37Z</time>
      </trkpt>
      <trkpt lat="44.85757" lon="2.00137">
        <ele>538.9</ele>
        <time>2018-05-20T12:28:50Z</time>
      </trkpt>
      <trkpt lat="44.85753" lon="2.00142">
        <ele>539.4</ele>
        <time>2018-05-20T12:28:54Z</time>
      </trkpt>
      <trkpt lat="44.8575" lon="2.00148">
        <ele>540</ele>
        <time>2018-05-20T12:28:59Z</time>
      </trkpt>
      <trkpt lat="44.85745" lon="2.00151">
        <ele>540.6</ele>
        <time>2018-05-20T12:29:04Z</time>
      </trkpt>
      <trkpt lat="44.8574" lon="2.00155">
        <ele>541.3</ele>
        <time>2018-05-20T12:29:08Z</time>
      </trkpt>
      <trkpt lat="44.85737" lon="2.0016">
        <ele>542</ele>
        <time>2018-05-20T12:29:13Z</time>
      </trkpt>
      <trkpt lat="44.85732" lon="2.00166">
        <ele>542.5</ele>
        <time>2018-05-20T12:29:17Z</time>
      </trkpt>
      <trkpt lat="44.85729" lon="2.00171">
        <ele>543</ele>
        <time>2018-05-20T12:29:23Z</time>
      </trkpt>
      <trkpt lat="44.85725" lon="2.00176">
        <ele>543.4</ele>
        <time>2018-05-20T12:29:34Z</time>
      </trkpt>
      <trkpt lat="44.8572" lon="2.00179">
        <ele>543.6</ele>
        <time>2018-05-20T12:29:40Z</time>
      </trkpt>
      <trkpt lat="44.85716" lon="2.00182">
        <ele>543.7</ele>
        <time>2018-05-20T12:29:44Z</time>
      </trkpt>
      <trkpt lat="44.85712" lon="2.00184">
        <ele>543.7</ele>
        <time>2018-05-20T12:29:49Z</time>
      </trkpt>
      <trkpt lat="44.85707" lon="2.00186">
        <ele>543.5</ele>
        <time>2018-05-20T12:29:55Z</time>
      </trkpt>
      <trkpt lat="44.85702" lon="2.00189">
        <ele>543.2</ele>
        <time>2018-05-20T12:29:59Z</time>
      </trkpt>
      <trkpt lat="44.85699" lon="2.00194">
        <ele>542.7</ele>
        <time>2018-05-20T12:30:05Z</time>
      </trkpt>
      <trkpt lat="44.85692" lon="2.00196">
        <ele>542.1</ele>
        <time>2018-05-20T12:30:12Z</time>
      </trkpt>
      <trkpt lat="44.85685" lon="2.00207">
        <ele>541.5</ele>
        <time>2018-05-20T12:30:20Z</time>
      </trkpt>
      <trkpt lat="44.85681" lon="2.0021">
        <ele>541.1</ele>
        <time>2018-05-20T12:30:26Z</time>
      </trkpt>
      <trkpt lat="44.85677" lon="2.00215">
        <ele>541</ele>
        <time>2018-05-20T12:30:32Z</time>
      </trkpt>
      <trkpt lat="44.85672" lon="2.0022">
        <ele>541.4</ele>
        <time>2018-05-20T12:30:38Z</time>
      </trkpt>
      <trkpt lat="44.85669" lon="2.00225">
        <ele>542.2</ele>
        <time>2018-05-20T12:30:49Z</time>
      </trkpt>
      <trkpt lat="44.85665" lon="2.0023">
        <ele>543.2</ele>
        <time>2018-05-20T12:30:54Z</time>
      </trkpt>
      <trkpt lat="44.85662" lon="2.00236">
        <ele>544.4</ele>
        <time>2018-05-20T12:30:59Z</time>
      </trkpt>
      <trkpt lat="44.85655" lon="2.0024">
        <ele>545.5</ele>
        <time>2018-05-20T12:31:11Z</time>
      </trkpt>
      <trkpt lat="44.85649" lon="2.00242">
        <ele>546.2</ele>
        <time>2018-05-20T12:31:13Z</time>
      </trkpt>
      <trkpt lat="44.85644" lon="2.00244">
        <ele>547.1</ele>
        <time>2018-05-20T12:31:15Z</time>
      </trkpt>
      <trkpt lat="44.85641" lon="2.00248">
        <ele>547.9</ele>
        <time>2018-05-20T12:31:23Z</time>
      </trkpt>
      <trkpt lat="44.85636" lon="2.00251">
        <ele>548.7</ele>
        <time>2018-05-20T12:31:27Z</time>
      </trkpt>
      <trkpt lat="44.85632" lon="2.00252">
        <ele>549.6</ele>
        <time>2018-05-20T12:31:30Z</time>
      </trkpt>
      <trkpt lat="44.85627" lon="2.00255">
        <ele>550.7</ele>
        <time>2018-05-20T12:31:40Z</time>
      </trkpt>
      <trkpt lat="44.85617" lon="2.00264">
        <ele>551.6</ele>
        <time>2018-05-20T12:31:44Z</time>
      </trkpt>
      <trkpt lat="44.85613" lon="2.00268">
        <ele>552.3</ele>
        <time>2018-05-20T12:31:50Z</time>
      </trkpt>
      <trkpt lat="44.85608" lon="2.0027">
        <ele>552.8</ele>
        <time>2018-05-20T12:31:57Z</time>
      </trkpt>
      <trkpt lat="44.85602" lon="2.00276">
        <ele>553</ele>
        <time>2018-05-20T12:32:06Z</time>
      </trkpt>
      <trkpt lat="44.85598" lon="2.00281">
        <ele>552.8</ele>
        <time>2018-05-20T12:32:11Z</time>
      </trkpt>
      <trkpt lat="44.85595" lon="2.00286">
        <ele>552.4</ele>
        <time>2018-05-20T12:32:16Z</time>
      </trkpt>
      <trkpt lat="44.85591" lon="2.0029">
        <ele>552</ele>
        <time>2018-05-20T12:32:20Z</time>
      </trkpt>
      <trkpt lat="44.85588" lon="2.00296">
        <ele>551.5</ele>
        <time>2018-05-20T12:32:25Z</time>
      </trkpt>
      <trkpt lat="44.85587" lon="2.00303">
        <ele>550.9</ele>
        <time>2018-05-20T12:32:30Z</time>
      </trkpt>
      <trkpt lat="44.85586" lon="2.0031">
        <ele>550.4</ele>
        <time>2018-05-20T12:32:35Z</time>
      </trkpt>
      <trkpt lat="44.85585" lon="2.00317">
        <ele>549.9</ele>
        <time>2018-05-20T12:32:41Z</time>
      </trkpt>
      <trkpt lat="44.85584" lon="2.00324">
        <ele>549.6</ele>
        <time>2018-05-20T12:32:49Z</time>
      </trkpt>
      <trkpt lat="44.85584" lon="2.00331">
        <ele>549.5</ele>
        <time>2018-05-20T12:32:56Z</time>
      </trkpt>
      <trkpt lat="44.85583" lon="2.00338">
        <ele>549.6</ele>
        <time>2018-05-20T12:33:01Z</time>
      </trkpt>
      <trkpt lat="44.85583" lon="2.00344">
        <ele>550.1</ele>
        <time>2018-05-20T12:33:05Z</time>
      </trkpt>
      <trkpt lat="44.85581" lon="2.0035">
        <ele>550.8</ele>
        <time>2018-05-20T12:33:09Z</time>
      </trkpt>
      <trkpt lat="44.85579" lon="2.00356">
        <ele>551.9</ele>
        <time>2018-05-20T12:33:14Z</time>
      </trkpt>
      <trkpt lat="44.85577" lon="2.00362">
        <ele>553.3</ele>
        <time>2018-05-20T12:33:20Z</time>
      </trkpt>
      <trkpt lat="44.85575" lon="2.0037">
        <ele>554.6</ele>
        <time>2018-05-20T12:33:23Z</time>
      </trkpt>
      <trkpt lat="44.85573" lon="2.00376">
        <ele>555.8</ele>
        <time>2018-05-20T12:33:28Z</time>
      </trkpt>
      <trkpt lat="44.85574" lon="2.00385">
        <ele>556.8</ele>
        <time>2018-05-20T12:33:37Z</time>
      </trkpt>
      <trkpt lat="44.85575" lon="2.00391">
        <ele>557.5</ele>
        <time>2018-05-20T12:33:47Z</time>
      </trkpt>
      <trkpt lat="44.85575" lon="2.004">
        <ele>558.2</ele>
        <time>2018-05-20T12:33:50Z</time>
      </trkpt>
      <trkpt lat="44.85576" lon="2.00409">
        <ele>558.8</ele>
        <time>2018-05-20T12:33:53Z</time>
      </trkpt>
      <trkpt lat="44.85578" lon="2.00414">
        <ele>559.3</ele>
        <time>2018-05-20T12:33:59Z</time>
      </trkpt>
      <trkpt lat="44.8558" lon="2.00421">
        <ele>559.7</ele>
        <time>2018-05-20T12:34:04Z</time>
      </trkpt>
      <trkpt lat="44.85575" lon="2.00417">
        <ele>560.1</ele>
        <time>2018-05-20T12:39:50Z</time>
      </trkpt>
      <trkpt lat="44.85572" lon="2.00412">
        <ele>560.1</ele>
        <time>2018-05-20T12:39:54Z</time>
      </trkpt>
      <trkpt lat="44.85568" lon="2.00408">
        <ele>560.1</ele>
        <time>2018-05-20T12:40:00Z</time>
      </trkpt>
      <trkpt lat="44.85564" lon="2.00403">
        <ele>560.2</ele>
        <time>2018-05-20T12:40:03Z</time>
      </trkpt>
      <trkpt lat="44.85561" lon="2.00397">
        <ele>560.1</ele>
        <time>2018-05-20T12:40:07Z</time>
      </trkpt>
      <trkpt lat="44.85557" lon="2.00393">
        <ele>560</ele>
        <time>2018-05-20T12:40:12Z</time>
      </trkpt>
      <trkpt lat="44.85553" lon="2.00389">
        <ele>559.7</ele>
        <time>2018-05-20T12:40:17Z</time>
      </trkpt>
      <trkpt lat="44.8555" lon="2.00382">
        <ele>559.2</ele>
        <time>2018-05-20T12:40:23Z</time>
      </trkpt>
      <trkpt lat="44.85549" lon="2.00375">
        <ele>558.6</ele>
        <time>2018-05-20T12:40:29Z</time>
      </trkpt>
      <trkpt lat="44.85549" lon="2.00367">
        <ele>558</ele>
        <time>2018-05-20T12:40:34Z</time>
      </trkpt>
      <trkpt lat="44.85548" lon="2.00359">
        <ele>557.6</ele>
        <time>2018-05-20T12:40:39Z</time>
      </trkpt>
      <trkpt lat="44.85546" lon="2.00353">
        <ele>557.2</ele>
        <time>2018-05-20T12:40:44Z</time>
      </trkpt>
      <trkpt lat="44.85544" lon="2.00347">
        <ele>557</ele>
        <time>2018-05-20T12:40:48Z</time>
      </trkpt>
      <trkpt lat="44.85542" lon="2.00341">
        <ele>556.8</ele>
        <time>2018-05-20T12:40:52Z</time>
      </trkpt>
      <trkpt lat="44.8554" lon="2.00334">
        <ele>556.5</ele>
        <time>2018-05-20T12:40:56Z</time>
      </trkpt>
      <trkpt lat="44.85537" lon="2.00328">
        <ele>556.2</ele>
        <time>2018-05-20T12:41:00Z</time>
      </trkpt>
      <trkpt lat="44.85535" lon="2.00323">
        <ele>555.9</ele>
        <time>2018-05-20T12:41:03Z</time>
      </trkpt>
      <trkpt lat="44.85533" lon="2.00316">
        <ele>555.5</ele>
        <time>2018-05-20T12:41:06Z</time>
      </trkpt>
      <trkpt lat="44.85531" lon="2.0031">
        <ele>555.1</ele>
        <time>2018-05-20T12:41:11Z</time>
      </trkpt>
      <trkpt lat="44.85529" lon="2.00304">
        <ele>554.6</ele>
        <time>2018-05-20T12:41:16Z</time>
      </trkpt>
      <trkpt lat="44.85526" lon="2.00297">
        <ele>554.3</ele>
        <time>2018-05-20T12:41:21Z</time>
      </trkpt>
      <trkpt lat="44.85524" lon="2.00291">
        <ele>553.9</ele>
        <time>2018-05-20T12:41:25Z</time>
      </trkpt>
      <trkpt lat="44.85522" lon="2.00285">
        <ele>553.5</ele>
        <time>2018-05-20T12:41:31Z</time>
      </trkpt>
      <trkpt lat="44.85519" lon="2.00279">
        <ele>553.2</ele>
        <time>2018-05-20T12:41:36Z</time>
      </trkpt>
      <trkpt lat="44.85517" lon="2.00273">
        <ele>552.8</ele>
        <time>2018-05-20T12:41:42Z</time>
      </trkpt>
      <trkpt lat="44.85516" lon="2.00266">
        <ele>552.4</ele>
        <time>2018-05-20T12:41:46Z</time>
      </trkpt>
      <trkpt lat="44.85514" lon="2.0026">
        <ele>552</ele>
        <time>2018-05-20T12:41:50Z</time>
      </trkpt>
      <trkpt lat="44.85512" lon="2.00253">
        <ele>551.6</ele>
        <time>2018-05-20T12:41:54Z</time>
      </trkpt>
      <trkpt lat="44.85511" lon="2.00246">
        <ele>551.1</ele>
        <time>2018-05-20T12:41:58Z</time>
      </trkpt>
      <trkpt lat="44.85509" lon="2.0024">
        <ele>550.6</ele>
        <time>2018-05-20T12:42:03Z</time>
      </trkpt>
      <trkpt lat="44.85508" lon="2.00234">
        <ele>550.1</ele>
        <time>2018-05-20T12:42:07Z</time>
      </trkpt>
      <trkpt lat="44.85505" lon="2.00227">
        <ele>549.6</ele>
        <time>2018-05-20T12:42:12Z</time>
      </trkpt>
      <trkpt lat="44.85503" lon="2.0022">
        <ele>549.2</ele>
        <time>2018-05-20T12:42:17Z</time>
      </trkpt>
      <trkpt lat="44.85501" lon="2.00214">
        <ele>549</ele>
        <time>2018-05-20T12:42:22Z</time>
      </trkpt>
      <trkpt lat="44.85498" lon="2.00206">
        <ele>548.8</ele>
        <time>2018-05-20T12:42:27Z</time>
      </trkpt>
      <trkpt lat="44.85497" lon="2.002">
        <ele>548.6</ele>
        <time>2018-05-20T12:42:31Z</time>
      </trkpt>
      <trkpt lat="44.85494" lon="2.00194">
        <ele>548.4</ele>
        <time>2018-05-20T12:42:35Z</time>
      </trkpt>
      <trkpt lat="44.85492" lon="2.00188">
        <ele>548.1</ele>
        <time>2018-05-20T12:42:39Z</time>
      </trkpt>
      <trkpt lat="44.8549" lon="2.00182">
        <ele>547.8</ele>
        <time>2018-05-20T12:42:44Z</time>
      </trkpt>
      <trkpt lat="44.85487" lon="2.00175">
        <ele>547.6</ele>
        <time>2018-05-20T12:42:48Z</time>
      </trkpt>
      <trkpt lat="44.85485" lon="2.00169">
        <ele>547.3</ele>
        <time>2018-05-20T12:42:53Z</time>
      </trkpt>
      <trkpt lat="44.85483" lon="2.00162">
        <ele>547.2</ele>
        <time>2018-05-20T12:42:57Z</time>
      </trkpt>
      <trkpt lat="44.85481" lon="2.00156">
        <ele>547.1</ele>
        <time>2018-05-20T12:43:01Z</time>
      </trkpt>
      <trkpt lat="44.85479" lon="2.00149">
        <ele>547</ele>
        <time>2018-05-20T12:43:05Z</time>
      </trkpt>
      <trkpt lat="44.85477" lon="2.00142">
        <ele>546.9</ele>
        <time>2018-05-20T12:43:11Z</time>
      </trkpt>
      <trkpt lat="44.85475" lon="2.00137">
        <ele>546.8</ele>
        <time>2018-05-20T12:43:15Z</time>
      </trkpt>
      <trkpt lat="44.85472" lon="2.00131">
        <ele>546.7</ele>
        <time>2018-05-20T12:43:19Z</time>
      </trkpt>
      <trkpt lat="44.85469" lon="2.00123">
        <ele>546.6</ele>
        <time>2018-05-20T12:43:23Z</time>
      </trkpt>
      <trkpt lat="44.85467" lon="2.00116">
        <ele>546.5</ele>
        <time>2018-05-20T12:43:27Z</time>
      </trkpt>
      <trkpt lat="44.85464" lon="2.0011">
        <ele>546.4</ele>
        <time>2018-05-20T12:43:32Z</time>
      </trkpt>
      <trkpt lat="44.85462" lon="2.00103">
        <ele>546.4</ele>
        <time>2018-05-20T12:43:36Z</time>
      </trkpt>
      <trkpt lat="44.85459" lon="2.00097">
        <ele>546.5</ele>
        <time>2018-05-20T12:43:40Z</time>
      </trkpt>
      <trkpt lat="44.85457" lon="2.0009">
        <ele>546.5</ele>
        <time>2018-05-20T12:43:45Z</time>
      </trkpt>
      <trkpt lat="44.85454" lon="2.00084">
        <ele>546.5</ele>
        <time>2018-05-20T12:43:50Z</time>
      </trkpt>
      <trkpt lat="44.85452" lon="2.00078">
        <ele>546.6</ele>
        <time>2018-05-20T12:43:54Z</time>
      </trkpt>
      <trkpt lat="44.8545" lon="2.0007">
        <ele>546.6</ele>
        <time>2018-05-20T12:43:58Z</time>
      </trkpt>
      <trkpt lat="44.85449" lon="2.00064">
        <ele>546.6</ele>
        <time>2018-05-20T12:44:01Z</time>
      </trkpt>
      <trkpt lat="44.85447" lon="2.00057">
        <ele>546.7</ele>
        <time>2018-05-20T12:44:06Z</time>
      </trkpt>
      <trkpt lat="44.85445" lon="2.00051">
        <ele>546.7</ele>
        <time>2018-05-20T12:44:11Z</time>
      </trkpt>
      <trkpt lat="44.85444" lon="2.00045">
        <ele>546.7</ele>
        <time>2018-05-20T12:44:15Z</time>
      </trkpt>
      <trkpt lat="44.85443" lon="2.00037">
        <ele>546.6</ele>
        <time>2018-05-20T12:44:19Z</time>
      </trkpt>
      <trkpt lat="44.85443" lon="2.0003">
        <ele>546.4</ele>
        <time>2018-05-20T12:44:24Z</time>
      </trkpt>
      <trkpt lat="44.85443" lon="2.00023">
        <ele>546.3</ele>
        <time>2018-05-20T12:44:28Z</time>
      </trkpt>
      <trkpt lat="44.85444" lon="2.00016">
        <ele>546.1</ele>
        <time>2018-05-20T12:44:33Z</time>
      </trkpt>
      <trkpt lat="44.85444" lon="2.00009">
        <ele>546</ele>
        <time>2018-05-20T12:44:37Z</time>
      </trkpt>
      <trkpt lat="44.85445" lon="2">
        <ele>545.9</ele>
        <time>2018-05-20T12:44:41Z</time>
      </trkpt>
      <trkpt lat="44.85446" lon="1.99992">
        <ele>545.8</ele>
        <time>2018-05-20T12:44:46Z</time>
      </trkpt>
      <trkpt lat="44.85448" lon="1.99985">
        <ele>545.8</ele>
        <time>2018-05-20T12:44:52Z</time>
      </trkpt>
      <trkpt lat="44.8545" lon="1.99979">
        <ele>545.7</ele>
        <time>2018-05-20T12:44:57Z</time>
      </trkpt>
      <trkpt lat="44.8545" lon="1.99972">
        <ele>545.7</ele>
        <time>2018-05-20T12:45:02Z</time>
      </trkpt>
      <trkpt lat="44.85451" lon="1.99965">
        <ele>545.6</ele>
        <time>2018-05-20T12:45:05Z</time>
      </trkpt>
      <trkpt lat="44.85452" lon="1.99957">
        <ele>545.5</ele>
        <time>2018-05-20T12:45:10Z</time>
      </trkpt>
      <trkpt lat="44.85453" lon="1.9995">
        <ele>545.3</ele>
        <time>2018-05-20T12:45:15Z</time>
      </trkpt>
      <trkpt lat="44.85455" lon="1.99942">
        <ele>545.1</ele>
        <time>2018-05-20T12:45:21Z</time>
      </trkpt>
      <trkpt lat="44.85457" lon="1.99936">
        <ele>544.8</ele>
        <time>2018-05-20T12:45:24Z</time>
      </trkpt>
      <trkpt lat="44.85459" lon="1.99929">
        <ele>544.6</ele>
        <time>2018-05-20T12:45:28Z</time>
      </trkpt>
      <trkpt lat="44.85463" lon="1.99925">
        <ele>544.3</ele>
        <time>2018-05-20T12:45:33Z</time>
      </trkpt>
      <trkpt lat="44.85467" lon="1.9992">
        <ele>544.2</ele>
        <time>2018-05-20T12:45:37Z</time>
      </trkpt>
      <trkpt lat="44.85471" lon="1.99915">
        <ele>544</ele>
        <time>2018-05-20T12:45:41Z</time>
      </trkpt>
      <trkpt lat="44.85474" lon="1.9991">
        <ele>543.9</ele>
        <time>2018-05-20T12:45:45Z</time>
      </trkpt>
      <trkpt lat="44.85476" lon="1.99905">
        <ele>543.8</ele>
        <time>2018-05-20T12:45:49Z</time>
      </trkpt>
      <trkpt lat="44.85479" lon="1.99899">
        <ele>543.8</ele>
        <time>2018-05-20T12:45:53Z</time>
      </trkpt>
      <trkpt lat="44.85482" lon="1.99894">
        <ele>543.8</ele>
        <time>2018-05-20T12:45:59Z</time>
      </trkpt>
      <trkpt lat="44.85484" lon="1.99887">
        <ele>543.8</ele>
        <time>2018-05-20T12:46:03Z</time>
      </trkpt>
      <trkpt lat="44.85487" lon="1.99882">
        <ele>543.7</ele>
        <time>2018-05-20T12:46:07Z</time>
      </trkpt>
      <trkpt lat="44.85491" lon="1.99875">
        <ele>543.6</ele>
        <time>2018-05-20T12:46:12Z</time>
      </trkpt>
      <trkpt lat="44.85494" lon="1.99871">
        <ele>543.4</ele>
        <time>2018-05-20T12:46:17Z</time>
      </trkpt>
      <trkpt lat="44.85498" lon="1.99864">
        <ele>543.2</ele>
        <time>2018-05-20T12:46:21Z</time>
      </trkpt>
      <trkpt lat="44.85502" lon="1.99859">
        <ele>543</ele>
        <time>2018-05-20T12:46:25Z</time>
      </trkpt>
      <trkpt lat="44.85506" lon="1.99854">
        <ele>542.7</ele>
        <time>2018-05-20T12:46:29Z</time>
      </trkpt>
      <trkpt lat="44.85509" lon="1.99848">
        <ele>542.5</ele>
        <time>2018-05-20T12:46:34Z</time>
      </trkpt>
      <trkpt lat="44.85512" lon="1.99842">
        <ele>542.1</ele>
        <time>2018-05-20T12:46:41Z</time>
      </trkpt>
      <trkpt lat="44.85515" lon="1.99836">
        <ele>541.7</ele>
        <time>2018-05-20T12:46:46Z</time>
      </trkpt>
      <trkpt lat="44.85518" lon="1.9983">
        <ele>541.4</ele>
        <time>2018-05-20T12:46:50Z</time>
      </trkpt>
      <trkpt lat="44.85521" lon="1.99824">
        <ele>541.1</ele>
        <time>2018-05-20T12:46:55Z</time>
      </trkpt>
      <trkpt lat="44.85523" lon="1.99818">
        <ele>541</ele>
        <time>2018-05-20T12:46:59Z</time>
      </trkpt>
      <trkpt lat="44.85526" lon="1.99811">
        <ele>540.8</ele>
        <time>2018-05-20T12:47:04Z</time>
      </trkpt>
      <trkpt lat="44.85527" lon="1.99805">
        <ele>540.8</ele>
        <time>2018-05-20T12:47:08Z</time>
      </trkpt>
      <trkpt lat="44.8553" lon="1.99799">
        <ele>540.7</ele>
        <time>2018-05-20T12:47:13Z</time>
      </trkpt>
      <trkpt lat="44.85533" lon="1.99792">
        <ele>540.6</ele>
        <time>2018-05-20T12:47:17Z</time>
      </trkpt>
      <trkpt lat="44.85536" lon="1.99787">
        <ele>540.5</ele>
        <time>2018-05-20T12:47:22Z</time>
      </trkpt>
      <trkpt lat="44.8554" lon="1.99781">
        <ele>540.3</ele>
        <time>2018-05-20T12:47:26Z</time>
      </trkpt>
      <trkpt lat="44.85542" lon="1.99775">
        <ele>540.1</ele>
        <time>2018-05-20T12:47:30Z</time>
      </trkpt>
      <trkpt lat="44.85544" lon="1.9977">
        <ele>539.8</ele>
        <time>2018-05-20T12:47:34Z</time>
      </trkpt>
      <trkpt lat="44.85546" lon="1.99763">
        <ele>539.5</ele>
        <time>2018-05-20T12:47:39Z</time>
      </trkpt>
      <trkpt lat="44.85549" lon="1.99756">
        <ele>539.2</ele>
        <time>2018-05-20T12:47:44Z</time>
      </trkpt>
      <trkpt lat="44.8555" lon="1.99748">
        <ele>539.1</ele>
        <time>2018-05-20T12:47:48Z</time>
      </trkpt>
      <trkpt lat="44.85553" lon="1.99742">
        <ele>539</ele>
        <time>2018-05-20T12:47:53Z</time>
      </trkpt>
      <trkpt lat="44.85555" lon="1.99735">
        <ele>539</ele>
        <time>2018-05-20T12:47:57Z</time>
      </trkpt>
      <trkpt lat="44.85557" lon="1.99727">
        <ele>539.1</ele>
        <time>2018-05-20T12:48:02Z</time>
      </trkpt>
      <trkpt lat="44.8556" lon="1.99721">
        <ele>539.1</ele>
        <time>2018-05-20T12:48:07Z</time>
      </trkpt>
      <trkpt lat="44.85561" lon="1.99714">
        <ele>539.1</ele>
        <time>2018-05-20T12:48:12Z</time>
      </trkpt>
      <trkpt lat="44.85564" lon="1.99707">
        <ele>539.2</ele>
        <time>2018-05-20T12:48:16Z</time>
      </trkpt>
      <trkpt lat="44.85566" lon="1.99701">
        <ele>539.3</ele>
        <time>2018-05-20T12:48:19Z</time>
      </trkpt>
      <trkpt lat="44.85567" lon="1.99694">
        <ele>539.4</ele>
        <time>2018-05-20T12:48:24Z</time>
      </trkpt>
      <trkpt lat="44.85568" lon="1.99687">
        <ele>539.5</ele>
        <time>2018-05-20T12:48:28Z</time>
      </trkpt>
      <trkpt lat="44.85569" lon="1.9968">
        <ele>539.7</ele>
        <time>2018-05-20T12:48:33Z</time>
      </trkpt>
      <trkpt lat="44.85571" lon="1.99671">
        <ele>539.7</ele>
        <time>2018-05-20T12:48:38Z</time>
      </trkpt>
      <trkpt lat="44.85572" lon="1.99665">
        <ele>539.8</ele>
        <time>2018-05-20T12:48:42Z</time>
      </trkpt>
      <trkpt lat="44.85572" lon="1.99657">
        <ele>539.8</ele>
        <time>2018-05-20T12:48:47Z</time>
      </trkpt>
      <trkpt lat="44.85573" lon="1.99649">
        <ele>539.9</ele>
        <time>2018-05-20T12:48:51Z</time>
      </trkpt>
      <trkpt lat="44.85574" lon="1.99642">
        <ele>540</ele>
        <time>2018-05-20T12:48:56Z</time>
      </trkpt>
      <trkpt lat="44.85574" lon="1.99636">
        <ele>540.2</ele>
        <time>2018-05-20T12:49:01Z</time>
      </trkpt>
      <trkpt lat="44.85574" lon="1.99629">
        <ele>540.4</ele>
        <time>2018-05-20T12:49:04Z</time>
      </trkpt>
      <trkpt lat="44.85574" lon="1.99622">
        <ele>540.6</ele>
        <time>2018-05-20T12:49:09Z</time>
      </trkpt>
      <trkpt lat="44.85575" lon="1.99615">
        <ele>540.7</ele>
        <time>2018-05-20T12:49:13Z</time>
      </trkpt>
      <trkpt lat="44.85576" lon="1.99608">
        <ele>540.8</ele>
        <time>2018-05-20T12:49:17Z</time>
      </trkpt>
      <trkpt lat="44.85576" lon="1.996">
        <ele>540.9</ele>
        <time>2018-05-20T12:49:22Z</time>
      </trkpt>
      <trkpt lat="44.85576" lon="1.99593">
        <ele>540.9</ele>
        <time>2018-05-20T12:49:26Z</time>
      </trkpt>
      <trkpt lat="44.85576" lon="1.99587">
        <ele>541</ele>
        <time>2018-05-20T12:49:31Z</time>
      </trkpt>
      <trkpt lat="44.85575" lon="1.9958">
        <ele>541</ele>
        <time>2018-05-20T12:49:37Z</time>
      </trkpt>
      <trkpt lat="44.85574" lon="1.99573">
        <ele>541.1</ele>
        <time>2018-05-20T12:49:42Z</time>
      </trkpt>
      <trkpt lat="44.85572" lon="1.99565">
        <ele>541.2</ele>
        <time>2018-05-20T12:49:48Z</time>
      </trkpt>
      <trkpt lat="44.85571" lon="1.99558">
        <ele>541.3</ele>
        <time>2018-05-20T12:49:51Z</time>
      </trkpt>
      <trkpt lat="44.85569" lon="1.9955">
        <ele>541.3</ele>
        <time>2018-05-20T12:49:54Z</time>
      </trkpt>
      <trkpt lat="44.85568" lon="1.99543">
        <ele>541.2</ele>
        <time>2018-05-20T12:49:59Z</time>
      </trkpt>
      <trkpt lat="44.85566" lon="1.99537">
        <ele>541.1</ele>
        <time>2018-05-20T12:50:04Z</time>
      </trkpt>
      <trkpt lat="44.85563" lon="1.99531">
        <ele>540.9</ele>
        <time>2018-05-20T12:50:07Z</time>
      </trkpt>
      <trkpt lat="44.85562" lon="1.99524">
        <ele>540.7</ele>
        <time>2018-05-20T12:50:12Z</time>
      </trkpt>
      <trkpt lat="44.85561" lon="1.99517">
        <ele>540.6</ele>
        <time>2018-05-20T12:50:15Z</time>
      </trkpt>
      <trkpt lat="44.8556" lon="1.99511">
        <ele>540.6</ele>
        <time>2018-05-20T12:50:19Z</time>
      </trkpt>
      <trkpt lat="44.85559" lon="1.99504">
        <ele>540.7</ele>
        <time>2018-05-20T12:50:24Z</time>
      </trkpt>
      <trkpt lat="44.85559" lon="1.99497">
        <ele>540.8</ele>
        <time>2018-05-20T12:50:28Z</time>
      </trkpt>
      <trkpt lat="44.85557" lon="1.9949">
        <ele>540.9</ele>
        <time>2018-05-20T12:50:32Z</time>
      </trkpt>
      <trkpt lat="44.85556" lon="1.99482">
        <ele>541</ele>
        <time>2018-05-20T12:50:37Z</time>
      </trkpt>
      <trkpt lat="44.85557" lon="1.99475">
        <ele>541.1</ele>
        <time>2018-05-20T12:50:40Z</time>
      </trkpt>
      <trkpt lat="44.85558" lon="1.99467">
        <ele>541.3</ele>
        <time>2018-05-20T12:50:46Z</time>
      </trkpt>
      <trkpt lat="44.85559" lon="1.99461">
        <ele>541.4</ele>
        <time>2018-05-20T12:50:50Z</time>
      </trkpt>
      <trkpt lat="44.85561" lon="1.99455">
        <ele>541.5</ele>
        <time>2018-05-20T12:50:56Z</time>
      </trkpt>
      <trkpt lat="44.85563" lon="1.99448">
        <ele>541.5</ele>
        <time>2018-05-20T12:51:00Z</time>
      </trkpt>
      <trkpt lat="44.85567" lon="1.99444">
        <ele>541.5</ele>
        <time>2018-05-20T12:51:04Z</time>
      </trkpt>
      <trkpt lat="44.8557" lon="1.99439">
        <ele>541.3</ele>
        <time>2018-05-20T12:51:11Z</time>
      </trkpt>
      <trkpt lat="44.85575" lon="1.99438">
        <ele>541.8</ele>
        <time>2018-05-20T12:51:15Z</time>
      </trkpt>
      <trkpt lat="44.8558" lon="1.99437">
        <ele>542.4</ele>
        <time>2018-05-20T12:51:21Z</time>
      </trkpt>
      <trkpt lat="44.85585" lon="1.99438">
        <ele>542.9</ele>
        <time>2018-05-20T12:51:26Z</time>
      </trkpt>
      <trkpt lat="44.85589" lon="1.99438">
        <ele>543.5</ele>
        <time>2018-05-20T12:51:38Z</time>
      </trkpt>
      <trkpt lat="44.85594" lon="1.99437">
        <ele>544.2</ele>
        <time>2018-05-20T12:51:55Z</time>
      </trkpt>
      <trkpt lat="44.85595" lon="1.99431">
        <ele>544.2</ele>
        <time>2018-05-20T12:52:00Z</time>
      </trkpt>
      <trkpt lat="44.85597" lon="1.99423">
        <ele>544.4</ele>
        <time>2018-05-20T12:52:12Z</time>
      </trkpt>
      <trkpt lat="44.85599" lon="1.99416">
        <ele>544.5</ele>
        <time>2018-05-20T12:52:14Z</time>
      </trkpt>
      <trkpt lat="44.85599" lon="1.99409">
        <ele>544.6</ele>
        <time>2018-05-20T12:52:18Z</time>
      </trkpt>
      <trkpt lat="44.856" lon="1.99402">
        <ele>544.6</ele>
        <time>2018-05-20T12:52:21Z</time>
      </trkpt>
      <trkpt lat="44.85601" lon="1.99397">
        <ele>544.6</ele>
        <time>2018-05-20T12:52:28Z</time>
      </trkpt>
      <trkpt lat="44.85603" lon="1.9939">
        <ele>544.5</ele>
        <time>2018-05-20T12:52:36Z</time>
      </trkpt>
      <trkpt lat="44.85602" lon="1.99383">
        <ele>544.4</ele>
        <time>2018-05-20T12:52:45Z</time>
      </trkpt>
      <trkpt lat="44.85602" lon="1.99376">
        <ele>544.3</ele>
        <time>2018-05-20T12:52:51Z</time>
      </trkpt>
      <trkpt lat="44.85603" lon="1.99369">
        <ele>544.3</ele>
        <time>2018-05-20T12:52:57Z</time>
      </trkpt>
      <trkpt lat="44.85603" lon="1.99362">
        <ele>544.2</ele>
        <time>2018-05-20T12:53:00Z</time>
      </trkpt>
      <trkpt lat="44.85604" lon="1.99355">
        <ele>544</ele>
        <time>2018-05-20T12:53:04Z</time>
      </trkpt>
      <trkpt lat="44.85602" lon="1.99348">
        <ele>543.7</ele>
        <time>2018-05-20T12:53:10Z</time>
      </trkpt>
      <trkpt lat="44.85602" lon="1.99342">
        <ele>543.4</ele>
        <time>2018-05-20T12:53:14Z</time>
      </trkpt>
      <trkpt lat="44.85601" lon="1.99335">
        <ele>543.1</ele>
        <time>2018-05-20T12:53:18Z</time>
      </trkpt>
      <trkpt lat="44.85599" lon="1.99328">
        <ele>542.8</ele>
        <time>2018-05-20T12:53:23Z</time>
      </trkpt>
      <trkpt lat="44.85597" lon="1.99321">
        <ele>542.6</ele>
        <time>2018-05-20T12:53:28Z</time>
      </trkpt>
      <trkpt lat="44.85595" lon="1.99316">
        <ele>542.4</ele>
        <time>2018-05-20T12:53:32Z</time>
      </trkpt>
      <trkpt lat="44.85592" lon="1.99311">
        <ele>542.3</ele>
        <time>2018-05-20T12:53:36Z</time>
      </trkpt>
      <trkpt lat="44.85588" lon="1.99305">
        <ele>542.3</ele>
        <time>2018-05-20T12:53:41Z</time>
      </trkpt>
      <trkpt lat="44.85582" lon="1.99296">
        <ele>542.3</ele>
        <time>2018-05-20T12:53:56Z</time>
      </trkpt>
      <trkpt lat="44.85578" lon="1.99291">
        <ele>542.2</ele>
        <time>2018-05-20T12:53:56Z</time>
      </trkpt>
      <trkpt lat="44.85576" lon="1.99285">
        <ele>542</ele>
        <time>2018-05-20T12:54:00Z</time>
      </trkpt>
      <trkpt lat="44.85572" lon="1.9928">
        <ele>541.7</ele>
        <time>2018-05-20T12:54:05Z</time>
      </trkpt>
      <trkpt lat="44.85568" lon="1.99275">
        <ele>541.3</ele>
        <time>2018-05-20T12:54:11Z</time>
      </trkpt>
      <trkpt lat="44.85564" lon="1.9927">
        <ele>540.9</ele>
        <time>2018-05-20T12:54:17Z</time>
      </trkpt>
      <trkpt lat="44.8556" lon="1.99265">
        <ele>540.5</ele>
        <time>2018-05-20T12:54:22Z</time>
      </trkpt>
      <trkpt lat="44.85556" lon="1.9926">
        <ele>540.2</ele>
        <time>2018-05-20T12:54:27Z</time>
      </trkpt>
      <trkpt lat="44.85551" lon="1.99255">
        <ele>539.9</ele>
        <time>2018-05-20T12:54:33Z</time>
      </trkpt>
      <trkpt lat="44.85547" lon="1.99252">
        <ele>539.6</ele>
        <time>2018-05-20T12:54:37Z</time>
      </trkpt>
      <trkpt lat="44.85542" lon="1.99249">
        <ele>539.3</ele>
        <time>2018-05-20T12:54:42Z</time>
      </trkpt>
      <trkpt lat="44.85538" lon="1.99247">
        <ele>538.8</ele>
        <time>2018-05-20T12:54:46Z</time>
      </trkpt>
      <trkpt lat="44.85533" lon="1.99244">
        <ele>538.2</ele>
        <time>2018-05-20T12:54:51Z</time>
      </trkpt>
      <trkpt lat="44.85529" lon="1.99244">
        <ele>537.5</ele>
        <time>2018-05-20T12:54:56Z</time>
      </trkpt>
      <trkpt lat="44.85524" lon="1.99243">
        <ele>536.8</ele>
        <time>2018-05-20T12:55:01Z</time>
      </trkpt>
      <trkpt lat="44.85518" lon="1.99239">
        <ele>536</ele>
        <time>2018-05-20T12:55:06Z</time>
      </trkpt>
      <trkpt lat="44.85514" lon="1.99235">
        <ele>535.5</ele>
        <time>2018-05-20T12:55:12Z</time>
      </trkpt>
      <trkpt lat="44.8551" lon="1.99232">
        <ele>535.3</ele>
        <time>2018-05-20T12:55:17Z</time>
      </trkpt>
      <trkpt lat="44.85504" lon="1.99228">
        <ele>535.3</ele>
        <time>2018-05-20T12:55:22Z</time>
      </trkpt>
      <trkpt lat="44.855" lon="1.99227">
        <ele>535.4</ele>
        <time>2018-05-20T12:55:25Z</time>
      </trkpt>
      <trkpt lat="44.85495" lon="1.99226">
        <ele>535.5</ele>
        <time>2018-05-20T12:55:33Z</time>
      </trkpt>
      <trkpt lat="44.8549" lon="1.99224">
        <ele>535.7</ele>
        <time>2018-05-20T12:55:40Z</time>
      </trkpt>
      <trkpt lat="44.85482" lon="1.99225">
        <ele>536</ele>
        <time>2018-05-20T12:55:43Z</time>
      </trkpt>
      <trkpt lat="44.85487" lon="1.99225">
        <ele>536.3</ele>
        <time>2018-05-20T12:55:44Z</time>
      </trkpt>
      <trkpt lat="44.85482" lon="1.99225">
        <ele>536.6</ele>
        <time>2018-05-20T12:55:44Z</time>
      </trkpt>
      <trkpt lat="44.85477" lon="1.99227">
        <ele>537.2</ele>
        <time>2018-05-20T12:55:47Z</time>
      </trkpt>
      <trkpt lat="44.85472" lon="1.99225">
        <ele>537.7</ele>
        <time>2018-05-20T12:55:55Z</time>
      </trkpt>
      <trkpt lat="44.85468" lon="1.99222">
        <ele>538.1</ele>
        <time>2018-05-20T12:56:09Z</time>
      </trkpt>
      <trkpt lat="44.85462" lon="1.99216">
        <ele>538.3</ele>
        <time>2018-05-20T12:56:14Z</time>
      </trkpt>
      <trkpt lat="44.85456" lon="1.99211">
        <ele>538.5</ele>
        <time>2018-05-20T12:56:22Z</time>
      </trkpt>
      <trkpt lat="44.85452" lon="1.99207">
        <ele>538.3</ele>
        <time>2018-05-20T12:56:27Z</time>
      </trkpt>
      <trkpt lat="44.85447" lon="1.99207">
        <ele>538.1</ele>
        <time>2018-05-20T12:56:29Z</time>
      </trkpt>
      <trkpt lat="44.85439" lon="1.99208">
        <ele>537.6</ele>
        <time>2018-05-20T12:56:31Z</time>
      </trkpt>
      <trkpt lat="44.85432" lon="1.9921">
        <ele>537.2</ele>
        <time>2018-05-20T12:56:33Z</time>
      </trkpt>
      <trkpt lat="44.85427" lon="1.99211">
        <ele>536.7</ele>
        <time>2018-05-20T12:56:38Z</time>
      </trkpt>
      <trkpt lat="44.85423" lon="1.99207">
        <ele>536.1</ele>
        <time>2018-05-20T12:56:45Z</time>
      </trkpt>
      <trkpt lat="44.85419" lon="1.99202">
        <ele>535.5</ele>
        <time>2018-05-20T12:56:51Z</time>
      </trkpt>
      <trkpt lat="44.85419" lon="1.99193">
        <ele>535</ele>
        <time>2018-05-20T12:56:56Z</time>
      </trkpt>
      <trkpt lat="44.85419" lon="1.99187">
        <ele>534.4</ele>
        <time>2018-05-20T12:56:59Z</time>
      </trkpt>
      <trkpt lat="44.85419" lon="1.99179">
        <ele>533.9</ele>
        <time>2018-05-20T12:57:03Z</time>
      </trkpt>
      <trkpt lat="44.85419" lon="1.99172">
        <ele>533.2</ele>
        <time>2018-05-20T12:57:07Z</time>
      </trkpt>
      <trkpt lat="44.8542" lon="1.99166">
        <ele>532.6</ele>
        <time>2018-05-20T12:57:09Z</time>
      </trkpt>
      <trkpt lat="44.85421" lon="1.9916">
        <ele>531.9</ele>
        <time>2018-05-20T12:57:12Z</time>
      </trkpt>
      <trkpt lat="44.85423" lon="1.99152">
        <ele>531.2</ele>
        <time>2018-05-20T12:57:16Z</time>
      </trkpt>
      <trkpt lat="44.85425" lon="1.99145">
        <ele>530.4</ele>
        <time>2018-05-20T12:57:23Z</time>
      </trkpt>
      <trkpt lat="44.85427" lon="1.99139">
        <ele>529.7</ele>
        <time>2018-05-20T12:57:27Z</time>
      </trkpt>
      <trkpt lat="44.8543" lon="1.99132">
        <ele>529</ele>
        <time>2018-05-20T12:57:33Z</time>
      </trkpt>
      <trkpt lat="44.85431" lon="1.99125">
        <ele>528.4</ele>
        <time>2018-05-20T12:57:35Z</time>
      </trkpt>
      <trkpt lat="44.85432" lon="1.99118">
        <ele>527.7</ele>
        <time>2018-05-20T12:57:39Z</time>
      </trkpt>
      <trkpt lat="44.85433" lon="1.99111">
        <ele>527.1</ele>
        <time>2018-05-20T12:57:45Z</time>
      </trkpt>
      <trkpt lat="44.85433" lon="1.99104">
        <ele>526.8</ele>
        <time>2018-05-20T12:57:49Z</time>
      </trkpt>
      <trkpt lat="44.85432" lon="1.99096">
        <ele>526.4</ele>
        <time>2018-05-20T12:57:57Z</time>
      </trkpt>
      <trkpt lat="44.85433" lon="1.99087">
        <ele>526.2</ele>
        <time>2018-05-20T12:58:05Z</time>
      </trkpt>
      <trkpt lat="44.85432" lon="1.9908">
        <ele>525.8</ele>
        <time>2018-05-20T12:58:08Z</time>
      </trkpt>
      <trkpt lat="44.85432" lon="1.99073">
        <ele>525.4</ele>
        <time>2018-05-20T12:58:10Z</time>
      </trkpt>
      <trkpt lat="44.85432" lon="1.99067">
        <ele>524.6</ele>
        <time>2018-05-20T12:58:14Z</time>
      </trkpt>
      <trkpt lat="44.85432" lon="1.9906">
        <ele>523.7</ele>
        <time>2018-05-20T12:58:20Z</time>
      </trkpt>
      <trkpt lat="44.85432" lon="1.99052">
        <ele>522.8</ele>
        <time>2018-05-20T12:58:24Z</time>
      </trkpt>
      <trkpt lat="44.85431" lon="1.99046">
        <ele>521.8</ele>
        <time>2018-05-20T12:58:28Z</time>
      </trkpt>
      <trkpt lat="44.85429" lon="1.9904">
        <ele>521</ele>
        <time>2018-05-20T12:58:37Z</time>
      </trkpt>
      <trkpt lat="44.85425" lon="1.99034">
        <ele>520.3</ele>
        <time>2018-05-20T12:58:42Z</time>
      </trkpt>
      <trkpt lat="44.85424" lon="1.99027">
        <ele>519.8</ele>
        <time>2018-05-20T12:58:46Z</time>
      </trkpt>
      <trkpt lat="44.85421" lon="1.9902">
        <ele>519.3</ele>
        <time>2018-05-20T12:58:53Z</time>
      </trkpt>
      <trkpt lat="44.85419" lon="1.99013">
        <ele>518.9</ele>
        <time>2018-05-20T12:58:58Z</time>
      </trkpt>
      <trkpt lat="44.85416" lon="1.99005">
        <ele>518.3</ele>
        <time>2018-05-20T12:59:03Z</time>
      </trkpt>
      <trkpt lat="44.85414" lon="1.99">
        <ele>517.8</ele>
        <time>2018-05-20T12:59:08Z</time>
      </trkpt>
      <trkpt lat="44.85412" lon="1.98993">
        <ele>517.4</ele>
        <time>2018-05-20T12:59:13Z</time>
      </trkpt>
      <trkpt lat="44.85409" lon="1.98988">
        <ele>517</ele>
        <time>2018-05-20T12:59:18Z</time>
      </trkpt>
      <trkpt lat="44.85406" lon="1.98982">
        <ele>516.9</ele>
        <time>2018-05-20T12:59:24Z</time>
      </trkpt>
      <trkpt lat="44.85404" lon="1.98975">
        <ele>516.9</ele>
        <time>2018-05-20T12:59:29Z</time>
      </trkpt>
      <trkpt lat="44.85402" lon="1.98967">
        <ele>517</ele>
        <time>2018-05-20T12:59:33Z</time>
      </trkpt>
      <trkpt lat="44.85401" lon="1.98959">
        <ele>517.1</ele>
        <time>2018-05-20T12:59:37Z</time>
      </trkpt>
      <trkpt lat="44.85399" lon="1.98952">
        <ele>517.3</ele>
        <time>2018-05-20T12:59:42Z</time>
      </trkpt>
      <trkpt lat="44.85397" lon="1.98946">
        <ele>517.4</ele>
        <time>2018-05-20T12:59:46Z</time>
      </trkpt>
      <trkpt lat="44.85396" lon="1.9894">
        <ele>517.5</ele>
        <time>2018-05-20T12:59:52Z</time>
      </trkpt>
      <trkpt lat="44.85394" lon="1.98933">
        <ele>517.4</ele>
        <time>2018-05-20T13:00:01Z</time>
      </trkpt>
      <trkpt lat="44.85392" lon="1.98927">
        <ele>517.2</ele>
        <time>2018-05-20T13:00:03Z</time>
      </trkpt>
      <trkpt lat="44.8539" lon="1.98921">
        <ele>517</ele>
        <time>2018-05-20T13:00:08Z</time>
      </trkpt>
      <trkpt lat="44.8539" lon="1.98914">
        <ele>516.7</ele>
        <time>2018-05-20T13:00:16Z</time>
      </trkpt>
      <trkpt lat="44.85385" lon="1.98911">
        <ele>516.4</ele>
        <time>2018-05-20T13:00:23Z</time>
      </trkpt>
      <trkpt lat="44.8538" lon="1.98908">
        <ele>516.3</ele>
        <time>2018-05-20T13:00:29Z</time>
      </trkpt>
      <trkpt lat="44.85375" lon="1.98907">
        <ele>516</ele>
        <time>2018-05-20T13:00:36Z</time>
      </trkpt>
      <trkpt lat="44.8537" lon="1.98905">
        <ele>515.8</ele>
        <time>2018-05-20T13:00:44Z</time>
      </trkpt>
      <trkpt lat="44.85365" lon="1.98906">
        <ele>515.6</ele>
        <time>2018-05-20T13:00:50Z</time>
      </trkpt>
      <trkpt lat="44.8536" lon="1.98907">
        <ele>515.5</ele>
        <time>2018-05-20T13:00:55Z</time>
      </trkpt>
      <trkpt lat="44.85354" lon="1.98909">
        <ele>515.5</ele>
        <time>2018-05-20T13:00:59Z</time>
      </trkpt>
      <trkpt lat="44.85348" lon="1.9891">
        <ele>515.5</ele>
        <time>2018-05-20T13:01:04Z</time>
      </trkpt>
      <trkpt lat="44.85343" lon="1.98911">
        <ele>515.4</ele>
        <time>2018-05-20T13:01:08Z</time>
      </trkpt>
      <trkpt lat="44.85338" lon="1.9891">
        <ele>515.4</ele>
        <time>2018-05-20T13:01:12Z</time>
      </trkpt>
      <trkpt lat="44.85333" lon="1.9891">
        <ele>515.4</ele>
        <time>2018-05-20T13:01:17Z</time>
      </trkpt>
      <trkpt lat="44.85328" lon="1.98913">
        <ele>516.5</ele>
        <time>2018-05-20T13:01:22Z</time>
      </trkpt>
      <trkpt lat="44.85322" lon="1.98914">
        <ele>517.7</ele>
        <time>2018-05-20T13:01:26Z</time>
      </trkpt>
      <trkpt lat="44.85318" lon="1.98911">
        <ele>518.9</ele>
        <time>2018-05-20T13:01:49Z</time>
      </trkpt>
      <trkpt lat="44.85317" lon="1.98905">
        <ele>519.9</ele>
        <time>2018-05-20T13:01:54Z</time>
      </trkpt>
      <trkpt lat="44.85314" lon="1.9891">
        <ele>520.9</ele>
        <time>2018-05-20T13:05:12Z</time>
      </trkpt>
      <trkpt lat="44.85311" lon="1.98913">
        <ele>520.6</ele>
        <time>2018-05-20T13:05:20Z</time>
      </trkpt>
      <trkpt lat="44.85307" lon="1.98918">
        <ele>520.2</ele>
        <time>2018-05-20T13:05:27Z</time>
      </trkpt>
      <trkpt lat="44.85302" lon="1.98922">
        <ele>519.4</ele>
        <time>2018-05-20T13:05:32Z</time>
      </trkpt>
      <trkpt lat="44.85297" lon="1.98924">
        <ele>518.5</ele>
        <time>2018-05-20T13:05:37Z</time>
      </trkpt>
      <trkpt lat="44.85292" lon="1.98922">
        <ele>517.5</ele>
        <time>2018-05-20T13:05:42Z</time>
      </trkpt>
      <trkpt lat="44.85289" lon="1.98916">
        <ele>516.7</ele>
        <time>2018-05-20T13:05:47Z</time>
      </trkpt>
      <trkpt lat="44.85289" lon="1.9891">
        <ele>515.7</ele>
        <time>2018-05-20T13:05:54Z</time>
      </trkpt>
      <trkpt lat="44.85285" lon="1.98905">
        <ele>514.8</ele>
        <time>2018-05-20T13:06:01Z</time>
      </trkpt>
      <trkpt lat="44.85283" lon="1.98899">
        <ele>513.7</ele>
        <time>2018-05-20T13:06:07Z</time>
      </trkpt>
      <trkpt lat="44.85284" lon="1.98892">
        <ele>512.7</ele>
        <time>2018-05-20T13:06:12Z</time>
      </trkpt>
      <trkpt lat="44.85281" lon="1.98887">
        <ele>511.5</ele>
        <time>2018-05-20T13:06:24Z</time>
      </trkpt>
      <trkpt lat="44.85278" lon="1.98892">
        <ele>510.4</ele>
        <time>2018-05-20T13:06:34Z</time>
      </trkpt>
      <trkpt lat="44.85275" lon="1.98899">
        <ele>509.5</ele>
        <time>2018-05-20T13:06:40Z</time>
      </trkpt>
      <trkpt lat="44.85272" lon="1.98907">
        <ele>508.7</ele>
        <time>2018-05-20T13:06:45Z</time>
      </trkpt>
      <trkpt lat="44.8527" lon="1.98912">
        <ele>508</ele>
        <time>2018-05-20T13:06:50Z</time>
      </trkpt>
      <trkpt lat="44.85268" lon="1.98918">
        <ele>507.4</ele>
        <time>2018-05-20T13:06:57Z</time>
      </trkpt>
      <trkpt lat="44.85265" lon="1.98925">
        <ele>507</ele>
        <time>2018-05-20T13:07:03Z</time>
      </trkpt>
      <trkpt lat="44.85262" lon="1.9893">
        <ele>506.7</ele>
        <time>2018-05-20T13:07:06Z</time>
      </trkpt>
      <trkpt lat="44.85259" lon="1.98935">
        <ele>506.4</ele>
        <time>2018-05-20T13:07:12Z</time>
      </trkpt>
      <trkpt lat="44.85256" lon="1.98941">
        <ele>506.2</ele>
        <time>2018-05-20T13:07:18Z</time>
      </trkpt>
      <trkpt lat="44.85252" lon="1.98948">
        <ele>506.1</ele>
        <time>2018-05-20T13:07:24Z</time>
      </trkpt>
      <trkpt lat="44.8525" lon="1.98954">
        <ele>505.9</ele>
        <time>2018-05-20T13:07:28Z</time>
      </trkpt>
      <trkpt lat="44.85248" lon="1.98961">
        <ele>505.8</ele>
        <time>2018-05-20T13:07:31Z</time>
      </trkpt>
      <trkpt lat="44.85246" lon="1.98967">
        <ele>505.5</ele>
        <time>2018-05-20T13:07:35Z</time>
      </trkpt>
      <trkpt lat="44.85244" lon="1.98973">
        <ele>505.1</ele>
        <time>2018-05-20T13:07:38Z</time>
      </trkpt>
      <trkpt lat="44.8524" lon="1.98977">
        <ele>504.7</ele>
        <time>2018-05-20T13:07:44Z</time>
      </trkpt>
      <trkpt lat="44.85236" lon="1.9898">
        <ele>504.2</ele>
        <time>2018-05-20T13:07:49Z</time>
      </trkpt>
      <trkpt lat="44.85231" lon="1.98978">
        <ele>503.5</ele>
        <time>2018-05-20T13:07:57Z</time>
      </trkpt>
      <trkpt lat="44.85226" lon="1.98973">
        <ele>503</ele>
        <time>2018-05-20T13:08:02Z</time>
      </trkpt>
      <trkpt lat="44.85222" lon="1.98967">
        <ele>502.3</ele>
        <time>2018-05-20T13:08:06Z</time>
      </trkpt>
      <trkpt lat="44.85219" lon="1.98962">
        <ele>501.5</ele>
        <time>2018-05-20T13:08:09Z</time>
      </trkpt>
      <trkpt lat="44.85215" lon="1.98957">
        <ele>500.7</ele>
        <time>2018-05-20T13:08:14Z</time>
      </trkpt>
      <trkpt lat="44.85213" lon="1.98951">
        <ele>500.1</ele>
        <time>2018-05-20T13:08:19Z</time>
      </trkpt>
      <trkpt lat="44.85208" lon="1.98945">
        <ele>499.6</ele>
        <time>2018-05-20T13:08:30Z</time>
      </trkpt>
      <trkpt lat="44.85204" lon="1.98941">
        <ele>499.3</ele>
        <time>2018-05-20T13:08:36Z</time>
      </trkpt>
      <trkpt lat="44.85199" lon="1.98938">
        <ele>499.4</ele>
        <time>2018-05-20T13:08:40Z</time>
      </trkpt>
      <trkpt lat="44.85194" lon="1.98938">
        <ele>499.7</ele>
        <time>2018-05-20T13:08:47Z</time>
      </trkpt>
      <trkpt lat="44.85189" lon="1.9894">
        <ele>500.3</ele>
        <time>2018-05-20T13:08:53Z</time>
      </trkpt>
      <trkpt lat="44.85187" lon="1.98946">
        <ele>501.4</ele>
        <time>2018-05-20T13:09:00Z</time>
      </trkpt>
      <trkpt lat="44.85185" lon="1.98952">
        <ele>502.5</ele>
        <time>2018-05-20T13:09:05Z</time>
      </trkpt>
      <trkpt lat="44.85184" lon="1.98959">
        <ele>503.6</ele>
        <time>2018-05-20T13:09:10Z</time>
      </trkpt>
      <trkpt lat="44.85185" lon="1.98966">
        <ele>504.6</ele>
        <time>2018-05-20T13:09:16Z</time>
      </trkpt>
      <trkpt lat="44.85185" lon="1.98972">
        <ele>505.4</ele>
        <time>2018-05-20T13:09:22Z</time>
      </trkpt>
      <trkpt lat="44.85185" lon="1.9898">
        <ele>505.9</ele>
        <time>2018-05-20T13:09:27Z</time>
      </trkpt>
      <trkpt lat="44.85184" lon="1.98987">
        <ele>506.3</ele>
        <time>2018-05-20T13:09:31Z</time>
      </trkpt>
      <trkpt lat="44.85182" lon="1.98993">
        <ele>506.6</ele>
        <time>2018-05-20T13:09:35Z</time>
      </trkpt>
      <trkpt lat="44.85181" lon="1.99">
        <ele>507</ele>
        <time>2018-05-20T13:09:39Z</time>
      </trkpt>
      <trkpt lat="44.8518" lon="1.99007">
        <ele>507.5</ele>
        <time>2018-05-20T13:09:41Z</time>
      </trkpt>
      <trkpt lat="44.85179" lon="1.99014">
        <ele>508.1</ele>
        <time>2018-05-20T13:09:46Z</time>
      </trkpt>
      <trkpt lat="44.85177" lon="1.9902">
        <ele>508.6</ele>
        <time>2018-05-20T13:09:51Z</time>
      </trkpt>
      <trkpt lat="44.85173" lon="1.99025">
        <ele>509</ele>
        <time>2018-05-20T13:09:58Z</time>
      </trkpt>
      <trkpt lat="44.85169" lon="1.99029">
        <ele>509.3</ele>
        <time>2018-05-20T13:10:04Z</time>
      </trkpt>
      <trkpt lat="44.85165" lon="1.99032">
        <ele>509.5</ele>
        <time>2018-05-20T13:10:12Z</time>
      </trkpt>
      <trkpt lat="44.85162" lon="1.99037">
        <ele>509.6</ele>
        <time>2018-05-20T13:10:17Z</time>
      </trkpt>
      <trkpt lat="44.85157" lon="1.99042">
        <ele>509.7</ele>
        <time>2018-05-20T13:10:22Z</time>
      </trkpt>
      <trkpt lat="44.85153" lon="1.99047">
        <ele>509.7</ele>
        <time>2018-05-20T13:10:27Z</time>
      </trkpt>
      <trkpt lat="44.85148" lon="1.9905">
        <ele>509.6</ele>
        <time>2018-05-20T13:10:32Z</time>
      </trkpt>
      <trkpt lat="44.85143" lon="1.99048">
        <ele>509.5</ele>
        <time>2018-05-20T13:10:40Z</time>
      </trkpt>
      <trkpt lat="44.85138" lon="1.99046">
        <ele>509.4</ele>
        <time>2018-05-20T13:10:45Z</time>
      </trkpt>
      <trkpt lat="44.85133" lon="1.99044">
        <ele>509.1</ele>
        <time>2018-05-20T13:10:51Z</time>
      </trkpt>
      <trkpt lat="44.85127" lon="1.99044">
        <ele>509</ele>
        <time>2018-05-20T13:10:58Z</time>
      </trkpt>
      <trkpt lat="44.85122" lon="1.99044">
        <ele>509</ele>
        <time>2018-05-20T13:11:03Z</time>
      </trkpt>
      <trkpt lat="44.85117" lon="1.99043">
        <ele>508.9</ele>
        <time>2018-05-20T13:11:14Z</time>
      </trkpt>
      <trkpt lat="44.85113" lon="1.99043">
        <ele>509</ele>
        <time>2018-05-20T13:11:19Z</time>
      </trkpt>
      <trkpt lat="44.85107" lon="1.99045">
        <ele>509</ele>
        <time>2018-05-20T13:11:26Z</time>
      </trkpt>
      <trkpt lat="44.85102" lon="1.99044">
        <ele>509</ele>
        <time>2018-05-20T13:11:33Z</time>
      </trkpt>
      <trkpt lat="44.85096" lon="1.99041">
        <ele>509</ele>
        <time>2018-05-20T13:11:37Z</time>
      </trkpt>
      <trkpt lat="44.85091" lon="1.99042">
        <ele>509</ele>
        <time>2018-05-20T13:11:42Z</time>
      </trkpt>
      <trkpt lat="44.85085" lon="1.99042">
        <ele>508.9</ele>
        <time>2018-05-20T13:11:46Z</time>
      </trkpt>
      <trkpt lat="44.85081" lon="1.99039">
        <ele>508.8</ele>
        <time>2018-05-20T13:11:52Z</time>
      </trkpt>
      <trkpt lat="44.85076" lon="1.99037">
        <ele>508.7</ele>
        <time>2018-05-20T13:11:58Z</time>
      </trkpt>
      <trkpt lat="44.85071" lon="1.99034">
        <ele>508.6</ele>
        <time>2018-05-20T13:12:03Z</time>
      </trkpt>
      <trkpt lat="44.85065" lon="1.99033">
        <ele>508.5</ele>
        <time>2018-05-20T13:12:08Z</time>
      </trkpt>
      <trkpt lat="44.85059" lon="1.99031">
        <ele>508.2</ele>
        <time>2018-05-20T13:12:12Z</time>
      </trkpt>
      <trkpt lat="44.85055" lon="1.99028">
        <ele>507.7</ele>
        <time>2018-05-20T13:12:15Z</time>
      </trkpt>
      <trkpt lat="44.85053" lon="1.99021">
        <ele>507</ele>
        <time>2018-05-20T13:12:20Z</time>
      </trkpt>
      <trkpt lat="44.85052" lon="1.99014">
        <ele>506.3</ele>
        <time>2018-05-20T13:12:25Z</time>
      </trkpt>
      <trkpt lat="44.85053" lon="1.99006">
        <ele>505.5</ele>
        <time>2018-05-20T13:12:33Z</time>
      </trkpt>
      <trkpt lat="44.85054" lon="1.98999">
        <ele>504.8</ele>
        <time>2018-05-20T13:12:41Z</time>
      </trkpt>
      <trkpt lat="44.85055" lon="1.98993">
        <ele>504.1</ele>
        <time>2018-05-20T13:12:45Z</time>
      </trkpt>
      <trkpt lat="44.85055" lon="1.98987">
        <ele>503.4</ele>
        <time>2018-05-20T13:12:50Z</time>
      </trkpt>
      <trkpt lat="44.85054" lon="1.9898">
        <ele>502.8</ele>
        <time>2018-05-20T13:12:54Z</time>
      </trkpt>
      <trkpt lat="44.85054" lon="1.98972">
        <ele>502.1</ele>
        <time>2018-05-20T13:12:59Z</time>
      </trkpt>
      <trkpt lat="44.85054" lon="1.98964">
        <ele>501.3</ele>
        <time>2018-05-20T13:13:03Z</time>
      </trkpt>
      <trkpt lat="44.85054" lon="1.98956">
        <ele>500.6</ele>
        <time>2018-05-20T13:13:06Z</time>
      </trkpt>
      <trkpt lat="44.85052" lon="1.98949">
        <ele>499.8</ele>
        <time>2018-05-20T13:13:11Z</time>
      </trkpt>
      <trkpt lat="44.85052" lon="1.98943">
        <ele>499</ele>
        <time>2018-05-20T13:13:26Z</time>
      </trkpt>
      <trkpt lat="44.8505" lon="1.98936">
        <ele>498.3</ele>
        <time>2018-05-20T13:13:32Z</time>
      </trkpt>
      <trkpt lat="44.85049" lon="1.98929">
        <ele>497.7</ele>
        <time>2018-05-20T13:13:36Z</time>
      </trkpt>
      <trkpt lat="44.85049" lon="1.98923">
        <ele>497</ele>
        <time>2018-05-20T13:13:40Z</time>
      </trkpt>
      <trkpt lat="44.8505" lon="1.98915">
        <ele>496.4</ele>
        <time>2018-05-20T13:13:45Z</time>
      </trkpt>
      <trkpt lat="44.85052" lon="1.9891">
        <ele>496</ele>
        <time>2018-05-20T13:13:49Z</time>
      </trkpt>
      <trkpt lat="44.85053" lon="1.98902">
        <ele>495.7</ele>
        <time>2018-05-20T13:13:53Z</time>
      </trkpt>
      <trkpt lat="44.85054" lon="1.98896">
        <ele>495.5</ele>
        <time>2018-05-20T13:13:57Z</time>
      </trkpt>
      <trkpt lat="44.85053" lon="1.98888">
        <ele>495.3</ele>
        <time>2018-05-20T13:14:02Z</time>
      </trkpt>
      <trkpt lat="44.85051" lon="1.98882">
        <ele>495.1</ele>
        <time>2018-05-20T13:14:08Z</time>
      </trkpt>
      <trkpt lat="44.85049" lon="1.98876">
        <ele>494.8</ele>
        <time>2018-05-20T13:14:13Z</time>
      </trkpt>
      <trkpt lat="44.85046" lon="1.98871">
        <ele>494.5</ele>
        <time>2018-05-20T13:14:17Z</time>
      </trkpt>
      <trkpt lat="44.85044" lon="1.98865">
        <ele>494.2</ele>
        <time>2018-05-20T13:14:23Z</time>
      </trkpt>
      <trkpt lat="44.85042" lon="1.98859">
        <ele>494.1</ele>
        <time>2018-05-20T13:14:29Z</time>
      </trkpt>
      <trkpt lat="44.8504" lon="1.98853">
        <ele>494</ele>
        <time>2018-05-20T13:14:34Z</time>
      </trkpt>
      <trkpt lat="44.85036" lon="1.98849">
        <ele>493.9</ele>
        <time>2018-05-20T13:14:40Z</time>
      </trkpt>
      <trkpt lat="44.85033" lon="1.98843">
        <ele>493.7</ele>
        <time>2018-05-20T13:14:55Z</time>
      </trkpt>
      <trkpt lat="44.85028" lon="1.98838">
        <ele>493.2</ele>
        <time>2018-05-20T13:15:01Z</time>
      </trkpt>
      <trkpt lat="44.85024" lon="1.98834">
        <ele>492.6</ele>
        <time>2018-05-20T13:15:06Z</time>
      </trkpt>
      <trkpt lat="44.8502" lon="1.98829">
        <ele>491.9</ele>
        <time>2018-05-20T13:15:12Z</time>
      </trkpt>
      <trkpt lat="44.85019" lon="1.98821">
        <ele>491.5</ele>
        <time>2018-05-20T13:15:21Z</time>
      </trkpt>
      <trkpt lat="44.85018" lon="1.98814">
        <ele>491</ele>
        <time>2018-05-20T13:15:27Z</time>
      </trkpt>
      <trkpt lat="44.85018" lon="1.98805">
        <ele>490.7</ele>
        <time>2018-05-20T13:15:34Z</time>
      </trkpt>
      <trkpt lat="44.85017" lon="1.98798">
        <ele>490.5</ele>
        <time>2018-05-20T13:15:39Z</time>
      </trkpt>
      <trkpt lat="44.85015" lon="1.98792">
        <ele>490.2</ele>
        <time>2018-05-20T13:15:42Z</time>
      </trkpt>
      <trkpt lat="44.85016" lon="1.98785">
        <ele>489.9</ele>
        <time>2018-05-20T13:15:50Z</time>
      </trkpt>
      <trkpt lat="44.85019" lon="1.98779">
        <ele>489.6</ele>
        <time>2018-05-20T13:15:55Z</time>
      </trkpt>
      <trkpt lat="44.85022" lon="1.98774">
        <ele>489.2</ele>
        <time>2018-05-20T13:16:02Z</time>
      </trkpt>
      <trkpt lat="44.85026" lon="1.9877">
        <ele>488.7</ele>
        <time>2018-05-20T13:16:05Z</time>
      </trkpt>
      <trkpt lat="44.8503" lon="1.98768">
        <ele>488.2</ele>
        <time>2018-05-20T13:16:12Z</time>
      </trkpt>
      <trkpt lat="44.85034" lon="1.98764">
        <ele>487.7</ele>
        <time>2018-05-20T13:16:18Z</time>
      </trkpt>
      <trkpt lat="44.85039" lon="1.98763">
        <ele>487.3</ele>
        <time>2018-05-20T13:16:26Z</time>
      </trkpt>
      <trkpt lat="44.85044" lon="1.98762">
        <ele>487</ele>
        <time>2018-05-20T13:16:30Z</time>
      </trkpt>
      <trkpt lat="44.85049" lon="1.98758">
        <ele>486.8</ele>
        <time>2018-05-20T13:16:32Z</time>
      </trkpt>
      <trkpt lat="44.85054" lon="1.98755">
        <ele>486.5</ele>
        <time>2018-05-20T13:16:39Z</time>
      </trkpt>
      <trkpt lat="44.8506" lon="1.98753">
        <ele>486.2</ele>
        <time>2018-05-20T13:16:43Z</time>
      </trkpt>
      <trkpt lat="44.85066" lon="1.98752">
        <ele>485.8</ele>
        <time>2018-05-20T13:16:47Z</time>
      </trkpt>
      <trkpt lat="44.85071" lon="1.9875">
        <ele>485.5</ele>
        <time>2018-05-20T13:16:49Z</time>
      </trkpt>
      <trkpt lat="44.85076" lon="1.98747">
        <ele>485</ele>
        <time>2018-05-20T13:16:56Z</time>
      </trkpt>
      <trkpt lat="44.8508" lon="1.98744">
        <ele>484.6</ele>
        <time>2018-05-20T13:17:02Z</time>
      </trkpt>
      <trkpt lat="44.85085" lon="1.98742">
        <ele>484.2</ele>
        <time>2018-05-20T13:17:05Z</time>
      </trkpt>
      <trkpt lat="44.85089" lon="1.98737">
        <ele>483.8</ele>
        <time>2018-05-20T13:17:09Z</time>
      </trkpt>
      <trkpt lat="44.85093" lon="1.98734">
        <ele>483.2</ele>
        <time>2018-05-20T13:17:12Z</time>
      </trkpt>
      <trkpt lat="44.85098" lon="1.98733">
        <ele>482.7</ele>
        <time>2018-05-20T13:17:19Z</time>
      </trkpt>
      <trkpt lat="44.85103" lon="1.98731">
        <ele>482.2</ele>
        <time>2018-05-20T13:17:23Z</time>
      </trkpt>
      <trkpt lat="44.85107" lon="1.98729">
        <ele>481.6</ele>
        <time>2018-05-20T13:17:31Z</time>
      </trkpt>
      <trkpt lat="44.85114" lon="1.98726">
        <ele>481</ele>
        <time>2018-05-20T13:17:36Z</time>
      </trkpt>
      <trkpt lat="44.85119" lon="1.98724">
        <ele>480.4</ele>
        <time>2018-05-20T13:17:40Z</time>
      </trkpt>
      <trkpt lat="44.85125" lon="1.98725">
        <ele>479.2</ele>
        <time>2018-05-20T13:17:44Z</time>
      </trkpt>
      <trkpt lat="44.8513" lon="1.98727">
        <ele>478.3</ele>
        <time>2018-05-20T13:17:52Z</time>
      </trkpt>
      <trkpt lat="44.85135" lon="1.98727">
        <ele>477.8</ele>
        <time>2018-05-20T13:17:56Z</time>
      </trkpt>
      <trkpt lat="44.85139" lon="1.98723">
        <ele>477.4</ele>
        <time>2018-05-20T13:18:09Z</time>
      </trkpt>
      <trkpt lat="44.85136" lon="1.98718">
        <ele>477.3</ele>
        <time>2018-05-20T13:18:47Z</time>
      </trkpt>
      <trkpt lat="44.85131" lon="1.98717">
        <ele>477.9</ele>
        <time>2018-05-20T13:18:54Z</time>
      </trkpt>
      <trkpt lat="44.85127" lon="1.98714">
        <ele>478.3</ele>
        <time>2018-05-20T13:19:03Z</time>
      </trkpt>
      <trkpt lat="44.85122" lon="1.98711">
        <ele>478.6</ele>
        <time>2018-05-20T13:19:12Z</time>
      </trkpt>
      <trkpt lat="44.85115" lon="1.9871">
        <ele>478.8</ele>
        <time>2018-05-20T13:19:16Z</time>
      </trkpt>
      <trkpt lat="44.85109" lon="1.98707">
        <ele>478.8</ele>
        <time>2018-05-20T13:19:21Z</time>
      </trkpt>
      <trkpt lat="44.85102" lon="1.98706">
        <ele>478.7</ele>
        <time>2018-05-20T13:19:25Z</time>
      </trkpt>
      <trkpt lat="44.85097" lon="1.98703">
        <ele>478.4</ele>
        <time>2018-05-20T13:19:33Z</time>
      </trkpt>
      <trkpt lat="44.85091" lon="1.98704">
        <ele>477.9</ele>
        <time>2018-05-20T13:19:38Z</time>
      </trkpt>
      <trkpt lat="44.85087" lon="1.98701">
        <ele>477.3</ele>
        <time>2018-05-20T13:19:46Z</time>
      </trkpt>
      <trkpt lat="44.85082" lon="1.987">
        <ele>476.7</ele>
        <time>2018-05-20T13:19:50Z</time>
      </trkpt>
      <trkpt lat="44.85078" lon="1.98697">
        <ele>476</ele>
        <time>2018-05-20T13:19:58Z</time>
      </trkpt>
      <trkpt lat="44.85073" lon="1.98696">
        <ele>475.4</ele>
        <time>2018-05-20T13:20:05Z</time>
      </trkpt>
      <trkpt lat="44.85069" lon="1.98692">
        <ele>474.6</ele>
        <time>2018-05-20T13:20:10Z</time>
      </trkpt>
      <trkpt lat="44.85063" lon="1.9869">
        <ele>473.8</ele>
        <time>2018-05-20T13:20:15Z</time>
      </trkpt>
      <trkpt lat="44.85059" lon="1.98685">
        <ele>472.8</ele>
        <time>2018-05-20T13:20:19Z</time>
      </trkpt>
      <trkpt lat="44.85054" lon="1.98684">
        <ele>471.6</ele>
        <time>2018-05-20T13:20:23Z</time>
      </trkpt>
      <trkpt lat="44.85049" lon="1.98682">
        <ele>470.2</ele>
        <time>2018-05-20T13:20:28Z</time>
      </trkpt>
      <trkpt lat="44.85045" lon="1.98679">
        <ele>468.8</ele>
        <time>2018-05-20T13:20:32Z</time>
      </trkpt>
      <trkpt lat="44.8504" lon="1.98678">
        <ele>467.3</ele>
        <time>2018-05-20T13:20:38Z</time>
      </trkpt>
      <trkpt lat="44.85035" lon="1.98677">
        <ele>466.1</ele>
        <time>2018-05-20T13:20:43Z</time>
      </trkpt>
      <trkpt lat="44.85031" lon="1.98674">
        <ele>465.2</ele>
        <time>2018-05-20T13:20:49Z</time>
      </trkpt>
      <trkpt lat="44.85026" lon="1.9867">
        <ele>464.7</ele>
        <time>2018-05-20T13:20:55Z</time>
      </trkpt>
      <trkpt lat="44.85018" lon="1.98669">
        <ele>464.5</ele>
        <time>2018-05-20T13:21:01Z</time>
      </trkpt>
      <trkpt lat="44.85009" lon="1.98667">
        <ele>464.5</ele>
        <time>2018-05-20T13:21:03Z</time>
      </trkpt>
      <trkpt lat="44.85003" lon="1.98667">
        <ele>464.4</ele>
        <time>2018-05-20T13:21:09Z</time>
      </trkpt>
      <trkpt lat="44.84998" lon="1.9867">
        <ele>464.3</ele>
        <time>2018-05-20T13:21:12Z</time>
      </trkpt>
      <trkpt lat="44.84992" lon="1.9867">
        <ele>464</ele>
        <time>2018-05-20T13:21:19Z</time>
      </trkpt>
      <trkpt lat="44.84986" lon="1.98673">
        <ele>463.5</ele>
        <time>2018-05-20T13:21:22Z</time>
      </trkpt>
      <trkpt lat="44.84982" lon="1.98676">
        <ele>462.8</ele>
        <time>2018-05-20T13:21:28Z</time>
      </trkpt>
      <trkpt lat="44.84977" lon="1.98678">
        <ele>462</ele>
        <time>2018-05-20T13:21:35Z</time>
      </trkpt>
      <trkpt lat="44.84972" lon="1.98682">
        <ele>461</ele>
        <time>2018-05-20T13:21:40Z</time>
      </trkpt>
      <trkpt lat="44.84969" lon="1.98687">
        <ele>459.8</ele>
        <time>2018-05-20T13:21:44Z</time>
      </trkpt>
      <trkpt lat="44.84966" lon="1.98692">
        <ele>458.5</ele>
        <time>2018-05-20T13:21:50Z</time>
      </trkpt>
      <trkpt lat="44.84961" lon="1.98697">
        <ele>457</ele>
        <time>2018-05-20T13:21:53Z</time>
      </trkpt>
      <trkpt lat="44.84957" lon="1.98704">
        <ele>455.6</ele>
        <time>2018-05-20T13:21:58Z</time>
      </trkpt>
      <trkpt lat="44.84954" lon="1.98708">
        <ele>454</ele>
        <time>2018-05-20T13:22:05Z</time>
      </trkpt>
      <trkpt lat="44.84949" lon="1.98712">
        <ele>452.7</ele>
        <time>2018-05-20T13:22:10Z</time>
      </trkpt>
      <trkpt lat="44.84944" lon="1.98716">
        <ele>451.6</ele>
        <time>2018-05-20T13:22:18Z</time>
      </trkpt>
      <trkpt lat="44.8494" lon="1.98721">
        <ele>450.6</ele>
        <time>2018-05-20T13:22:22Z</time>
      </trkpt>
      <trkpt lat="44.84936" lon="1.98724">
        <ele>449.6</ele>
        <time>2018-05-20T13:22:32Z</time>
      </trkpt>
      <trkpt lat="44.84931" lon="1.98733">
        <ele>448.8</ele>
        <time>2018-05-20T13:22:34Z</time>
      </trkpt>
      <trkpt lat="44.84928" lon="1.98738">
        <ele>447.7</ele>
        <time>2018-05-20T13:22:37Z</time>
      </trkpt>
      <trkpt lat="44.84925" lon="1.98743">
        <ele>446.5</ele>
        <time>2018-05-20T13:22:43Z</time>
      </trkpt>
      <trkpt lat="44.8492" lon="1.98747">
        <ele>445.3</ele>
        <time>2018-05-20T13:22:48Z</time>
      </trkpt>
      <trkpt lat="44.84917" lon="1.98753">
        <ele>444.1</ele>
        <time>2018-05-20T13:22:53Z</time>
      </trkpt>
      <trkpt lat="44.84915" lon="1.98759">
        <ele>442.7</ele>
        <time>2018-05-20T13:22:58Z</time>
      </trkpt>
      <trkpt lat="44.84912" lon="1.98764">
        <ele>441.3</ele>
        <time>2018-05-20T13:23:03Z</time>
      </trkpt>
      <trkpt lat="44.84909" lon="1.98769">
        <ele>440</ele>
        <time>2018-05-20T13:23:07Z</time>
      </trkpt>
      <trkpt lat="44.84908" lon="1.98777">
        <ele>438.8</ele>
        <time>2018-05-20T13:23:12Z</time>
      </trkpt>
      <trkpt lat="44.84908" lon="1.98784">
        <ele>437.4</ele>
        <time>2018-05-20T13:23:19Z</time>
      </trkpt>
      <trkpt lat="44.84905" lon="1.98792">
        <ele>435.7</ele>
        <time>2018-05-20T13:23:24Z</time>
      </trkpt>
      <trkpt lat="44.84904" lon="1.98798">
        <ele>434.1</ele>
        <time>2018-05-20T13:23:28Z</time>
      </trkpt>
      <trkpt lat="44.84902" lon="1.98804">
        <ele>432.6</ele>
        <time>2018-05-20T13:23:31Z</time>
      </trkpt>
      <trkpt lat="44.84906" lon="1.98808">
        <ele>431.4</ele>
        <time>2018-05-20T13:23:38Z</time>
      </trkpt>
      <trkpt lat="44.84901" lon="1.98815">
        <ele>430.2</ele>
        <time>2018-05-20T13:23:48Z</time>
      </trkpt>
      <trkpt lat="44.84899" lon="1.9882">
        <ele>429.6</ele>
        <time>2018-05-20T13:23:53Z</time>
      </trkpt>
      <trkpt lat="44.84895" lon="1.98825">
        <ele>429.7</ele>
        <time>2018-05-20T13:24:01Z</time>
      </trkpt>
      <trkpt lat="44.84892" lon="1.9883">
        <ele>429.8</ele>
        <time>2018-05-20T13:24:11Z</time>
      </trkpt>
      <trkpt lat="44.84888" lon="1.98839">
        <ele>430</ele>
        <time>2018-05-20T13:28:37Z</time>
      </trkpt>
      <trkpt lat="44.84888" lon="1.98846">
        <ele>430.4</ele>
        <time>2018-05-20T13:28:40Z</time>
      </trkpt>
      <trkpt lat="44.84884" lon="1.98851">
        <ele>430.9</ele>
        <time>2018-05-20T13:28:58Z</time>
      </trkpt>
      <trkpt lat="44.84882" lon="1.98856">
        <ele>430.9</ele>
        <time>2018-05-20T13:29:02Z</time>
      </trkpt>
      <trkpt lat="44.84879" lon="1.98862">
        <ele>430.9</ele>
        <time>2018-05-20T13:29:07Z</time>
      </trkpt>
      <trkpt lat="44.84874" lon="1.98866">
        <ele>430.8</ele>
        <time>2018-05-20T13:29:14Z</time>
      </trkpt>
      <trkpt lat="44.8487" lon="1.98871">
        <ele>430.5</ele>
        <time>2018-05-20T13:29:19Z</time>
      </trkpt>
      <trkpt lat="44.84867" lon="1.98877">
        <ele>430.3</ele>
        <time>2018-05-20T13:29:23Z</time>
      </trkpt>
      <trkpt lat="44.84863" lon="1.98882">
        <ele>430.4</ele>
        <time>2018-05-20T13:29:26Z</time>
      </trkpt>
      <trkpt lat="44.84859" lon="1.98886">
        <ele>430.4</ele>
        <time>2018-05-20T13:29:32Z</time>
      </trkpt>
      <trkpt lat="44.84856" lon="1.9889">
        <ele>430.5</ele>
        <time>2018-05-20T13:29:41Z</time>
      </trkpt>
      <trkpt lat="44.84851" lon="1.98892">
        <ele>430.7</ele>
        <time>2018-05-20T13:29:44Z</time>
      </trkpt>
      <trkpt lat="44.84846" lon="1.98895">
        <ele>430.7</ele>
        <time>2018-05-20T13:29:54Z</time>
      </trkpt>
      <trkpt lat="44.84842" lon="1.98894">
        <ele>430.5</ele>
        <time>2018-05-20T13:30:10Z</time>
      </trkpt>
      <trkpt lat="44.84837" lon="1.98891">
        <ele>430.5</ele>
        <time>2018-05-20T13:30:13Z</time>
      </trkpt>
      <trkpt lat="44.84832" lon="1.98889">
        <ele>430.5</ele>
        <time>2018-05-20T13:30:24Z</time>
      </trkpt>
      <trkpt lat="44.84827" lon="1.98884">
        <ele>430.7</ele>
        <time>2018-05-20T13:30:29Z</time>
      </trkpt>
      <trkpt lat="44.84823" lon="1.9888">
        <ele>430.9</ele>
        <time>2018-05-20T13:30:32Z</time>
      </trkpt>
      <trkpt lat="44.84816" lon="1.98875">
        <ele>431.2</ele>
        <time>2018-05-20T13:30:36Z</time>
      </trkpt>
      <trkpt lat="44.84811" lon="1.98874">
        <ele>431.4</ele>
        <time>2018-05-20T13:30:39Z</time>
      </trkpt>
      <trkpt lat="44.84806" lon="1.9887">
        <ele>431.6</ele>
        <time>2018-05-20T13:30:48Z</time>
      </trkpt>
      <trkpt lat="44.84801" lon="1.98868">
        <ele>431.7</ele>
        <time>2018-05-20T13:30:54Z</time>
      </trkpt>
      <trkpt lat="44.84796" lon="1.98867">
        <ele>431.5</ele>
        <time>2018-05-20T13:30:59Z</time>
      </trkpt>
      <trkpt lat="44.84791" lon="1.98868">
        <ele>431.1</ele>
        <time>2018-05-20T13:31:01Z</time>
      </trkpt>
      <trkpt lat="44.84785" lon="1.9887">
        <ele>430</ele>
        <time>2018-05-20T13:31:03Z</time>
      </trkpt>
      <trkpt lat="44.8478" lon="1.9887">
        <ele>428.5</ele>
        <time>2018-05-20T13:31:11Z</time>
      </trkpt>
      <trkpt lat="44.84777" lon="1.98866">
        <ele>426.7</ele>
        <time>2018-05-20T13:31:19Z</time>
      </trkpt>
      <trkpt lat="44.84772" lon="1.9887">
        <ele>424.9</ele>
        <time>2018-05-20T13:31:27Z</time>
      </trkpt>
      <trkpt lat="44.84767" lon="1.9887">
        <ele>423.2</ele>
        <time>2018-05-20T13:31:36Z</time>
      </trkpt>
      <trkpt lat="44.84762" lon="1.9887">
        <ele>421.9</ele>
        <time>2018-05-20T13:31:42Z</time>
      </trkpt>
      <trkpt lat="44.84764" lon="1.98863">
        <ele>420.7</ele>
        <time>2018-05-20T13:31:49Z</time>
      </trkpt>
      <trkpt lat="44.84768" lon="1.98858">
        <ele>419.7</ele>
        <time>2018-05-20T13:31:53Z</time>
      </trkpt>
      <trkpt lat="44.84771" lon="1.98851">
        <ele>418.6</ele>
        <time>2018-05-20T13:31:58Z</time>
      </trkpt>
      <trkpt lat="44.84773" lon="1.98845">
        <ele>417.4</ele>
        <time>2018-05-20T13:32:03Z</time>
      </trkpt>
      <trkpt lat="44.84778" lon="1.98839">
        <ele>416.3</ele>
        <time>2018-05-20T13:32:09Z</time>
      </trkpt>
      <trkpt lat="44.84782" lon="1.98836">
        <ele>414.7</ele>
        <time>2018-05-20T13:32:14Z</time>
      </trkpt>
      <trkpt lat="44.84786" lon="1.98832">
        <ele>413.1</ele>
        <time>2018-05-20T13:32:21Z</time>
      </trkpt>
      <trkpt lat="44.8479" lon="1.98829">
        <ele>411.5</ele>
        <time>2018-05-20T13:32:28Z</time>
      </trkpt>
      <trkpt lat="44.84795" lon="1.98825">
        <ele>409.9</ele>
        <time>2018-05-20T13:32:33Z</time>
      </trkpt>
      <trkpt lat="44.84793" lon="1.98819">
        <ele>408.5</ele>
        <time>2018-05-20T13:32:49Z</time>
      </trkpt>
      <trkpt lat="44.84789" lon="1.98815">
        <ele>407.4</ele>
        <time>2018-05-20T13:32:57Z</time>
      </trkpt>
      <trkpt lat="44.84784" lon="1.98812">
        <ele>406.6</ele>
        <time>2018-05-20T13:33:05Z</time>
      </trkpt>
      <trkpt lat="44.84779" lon="1.98811">
        <ele>405.9</ele>
        <time>2018-05-20T13:33:10Z</time>
      </trkpt>
      <trkpt lat="44.84774" lon="1.98809">
        <ele>405.3</ele>
        <time>2018-05-20T13:33:16Z</time>
      </trkpt>
      <trkpt lat="44.84769" lon="1.98809">
        <ele>404.6</ele>
        <time>2018-05-20T13:33:22Z</time>
      </trkpt>
      <trkpt lat="44.84764" lon="1.9881">
        <ele>403.8</ele>
        <time>2018-05-20T13:33:26Z</time>
      </trkpt>
      <trkpt lat="44.84759" lon="1.98809">
        <ele>402.8</ele>
        <time>2018-05-20T13:33:30Z</time>
      </trkpt>
      <trkpt lat="44.84754" lon="1.98809">
        <ele>401.7</ele>
        <time>2018-05-20T13:33:34Z</time>
      </trkpt>
      <trkpt lat="44.8475" lon="1.98813">
        <ele>400.3</ele>
        <time>2018-05-20T13:33:38Z</time>
      </trkpt>
      <trkpt lat="44.84744" lon="1.98814">
        <ele>398.9</ele>
        <time>2018-05-20T13:33:45Z</time>
      </trkpt>
      <trkpt lat="44.8474" lon="1.98814">
        <ele>397.8</ele>
        <time>2018-05-20T13:33:48Z</time>
      </trkpt>
      <trkpt lat="44.84735" lon="1.98815">
        <ele>396.6</ele>
        <time>2018-05-20T13:33:52Z</time>
      </trkpt>
      <trkpt lat="44.84731" lon="1.98818">
        <ele>395.4</ele>
        <time>2018-05-20T13:33:58Z</time>
      </trkpt>
      <trkpt lat="44.84728" lon="1.98823">
        <ele>394.2</ele>
        <time>2018-05-20T13:34:03Z</time>
      </trkpt>
      <trkpt lat="44.84724" lon="1.98829">
        <ele>392.9</ele>
        <time>2018-05-20T13:34:06Z</time>
      </trkpt>
      <trkpt lat="44.8472" lon="1.98832">
        <ele>391.5</ele>
        <time>2018-05-20T13:34:11Z</time>
      </trkpt>
      <trkpt lat="44.84715" lon="1.98834">
        <ele>390.2</ele>
        <time>2018-05-20T13:34:15Z</time>
      </trkpt>
      <trkpt lat="44.84711" lon="1.98837">
        <ele>389</ele>
        <time>2018-05-20T13:34:23Z</time>
      </trkpt>
      <trkpt lat="44.84706" lon="1.98838">
        <ele>387.8</ele>
        <time>2018-05-20T13:34:31Z</time>
      </trkpt>
      <trkpt lat="44.847" lon="1.98839">
        <ele>386.7</ele>
        <time>2018-05-20T13:34:37Z</time>
      </trkpt>
      <trkpt lat="44.84695" lon="1.98838">
        <ele>385.5</ele>
        <time>2018-05-20T13:34:43Z</time>
      </trkpt>
      <trkpt lat="44.84691" lon="1.98837">
        <ele>384.4</ele>
        <time>2018-05-20T13:34:47Z</time>
      </trkpt>
      <trkpt lat="44.84685" lon="1.98838">
        <ele>383.4</ele>
        <time>2018-05-20T13:34:53Z</time>
      </trkpt>
      <trkpt lat="44.84681" lon="1.9884">
        <ele>382.6</ele>
        <time>2018-05-20T13:34:59Z</time>
      </trkpt>
      <trkpt lat="44.84677" lon="1.98836">
        <ele>381.9</ele>
        <time>2018-05-20T13:35:12Z</time>
      </trkpt>
      <trkpt lat="44.84677" lon="1.98829">
        <ele>381.5</ele>
        <time>2018-05-20T13:35:34Z</time>
      </trkpt>
      <trkpt lat="44.84679" lon="1.98823">
        <ele>381.1</ele>
        <time>2018-05-20T13:35:40Z</time>
      </trkpt>
      <trkpt lat="44.84682" lon="1.98818">
        <ele>380.5</ele>
        <time>2018-05-20T13:35:45Z</time>
      </trkpt>
      <trkpt lat="44.84686" lon="1.98813">
        <ele>379.8</ele>
        <time>2018-05-20T13:35:49Z</time>
      </trkpt>
      <trkpt lat="44.84688" lon="1.98804">
        <ele>378.9</ele>
        <time>2018-05-20T13:35:54Z</time>
      </trkpt>
      <trkpt lat="44.84689" lon="1.98798">
        <ele>378.2</ele>
        <time>2018-05-20T13:35:57Z</time>
      </trkpt>
      <trkpt lat="44.84691" lon="1.98792">
        <ele>377.2</ele>
        <time>2018-05-20T13:36:03Z</time>
      </trkpt>
      <trkpt lat="44.84695" lon="1.98786">
        <ele>376.1</ele>
        <time>2018-05-20T13:36:11Z</time>
      </trkpt>
      <trkpt lat="44.84699" lon="1.98781">
        <ele>375.1</ele>
        <time>2018-05-20T13:36:14Z</time>
      </trkpt>
      <trkpt lat="44.84702" lon="1.98774">
        <ele>373.7</ele>
        <time>2018-05-20T13:36:18Z</time>
      </trkpt>
      <trkpt lat="44.84705" lon="1.98768">
        <ele>372.1</ele>
        <time>2018-05-20T13:36:25Z</time>
      </trkpt>
      <trkpt lat="44.84708" lon="1.98763">
        <ele>370.5</ele>
        <time>2018-05-20T13:36:32Z</time>
      </trkpt>
      <trkpt lat="44.84712" lon="1.9876">
        <ele>368.9</ele>
        <time>2018-05-20T13:36:38Z</time>
      </trkpt>
      <trkpt lat="44.84715" lon="1.98754">
        <ele>367.4</ele>
        <time>2018-05-20T13:36:45Z</time>
      </trkpt>
      <trkpt lat="44.84718" lon="1.98747">
        <ele>366.1</ele>
        <time>2018-05-20T13:36:51Z</time>
      </trkpt>
      <trkpt lat="44.84722" lon="1.98743">
        <ele>365</ele>
        <time>2018-05-20T13:36:57Z</time>
      </trkpt>
      <trkpt lat="44.84724" lon="1.98737">
        <ele>364</ele>
        <time>2018-05-20T13:37:03Z</time>
      </trkpt>
      <trkpt lat="44.84721" lon="1.98732">
        <ele>362.9</ele>
        <time>2018-05-20T13:37:09Z</time>
      </trkpt>
      <trkpt lat="44.84718" lon="1.98723">
        <ele>361.6</ele>
        <time>2018-05-20T13:37:15Z</time>
      </trkpt>
      <trkpt lat="44.84721" lon="1.98716">
        <ele>360.4</ele>
        <time>2018-05-20T13:37:27Z</time>
      </trkpt>
      <trkpt lat="44.84724" lon="1.98707">
        <ele>359.1</ele>
        <time>2018-05-20T13:37:30Z</time>
      </trkpt>
      <trkpt lat="44.84726" lon="1.98701">
        <ele>358</ele>
        <time>2018-05-20T13:37:45Z</time>
      </trkpt>
      <trkpt lat="44.84729" lon="1.98696">
        <ele>357</ele>
        <time>2018-05-20T13:38:12Z</time>
      </trkpt>
      <trkpt lat="44.84729" lon="1.9869">
        <ele>356.2</ele>
        <time>2018-05-20T13:38:14Z</time>
      </trkpt>
      <trkpt lat="44.84732" lon="1.9868">
        <ele>355.3</ele>
        <time>2018-05-20T13:38:21Z</time>
      </trkpt>
      <trkpt lat="44.84735" lon="1.98671">
        <ele>354.3</ele>
        <time>2018-05-20T13:38:24Z</time>
      </trkpt>
      <trkpt lat="44.84736" lon="1.98664">
        <ele>353.3</ele>
        <time>2018-05-20T13:38:32Z</time>
      </trkpt>
      <trkpt lat="44.84738" lon="1.98657">
        <ele>352.3</ele>
        <time>2018-05-20T13:38:41Z</time>
      </trkpt>
      <trkpt lat="44.84739" lon="1.98649">
        <ele>351.4</ele>
        <time>2018-05-20T13:38:44Z</time>
      </trkpt>
      <trkpt lat="44.84742" lon="1.98644">
        <ele>350.7</ele>
        <time>2018-05-20T13:38:50Z</time>
      </trkpt>
      <trkpt lat="44.84746" lon="1.98639">
        <ele>349.9</ele>
        <time>2018-05-20T13:38:54Z</time>
      </trkpt>
      <trkpt lat="44.84749" lon="1.98633">
        <ele>349.2</ele>
        <time>2018-05-20T13:39:00Z</time>
      </trkpt>
      <trkpt lat="44.84752" lon="1.98628">
        <ele>348.7</ele>
        <time>2018-05-20T13:39:02Z</time>
      </trkpt>
      <trkpt lat="44.84754" lon="1.98623">
        <ele>348.1</ele>
        <time>2018-05-20T13:39:10Z</time>
      </trkpt>
      <trkpt lat="44.84756" lon="1.98615">
        <ele>347.6</ele>
        <time>2018-05-20T13:39:23Z</time>
      </trkpt>
      <trkpt lat="44.84753" lon="1.98619">
        <ele>347</ele>
        <time>2018-05-20T13:39:35Z</time>
      </trkpt>
      <trkpt lat="44.84749" lon="1.98625">
        <ele>346</ele>
        <time>2018-05-20T13:39:45Z</time>
      </trkpt>
      <trkpt lat="44.84744" lon="1.98633">
        <ele>344.3</ele>
        <time>2018-05-20T13:39:50Z</time>
      </trkpt>
      <trkpt lat="44.84742" lon="1.98638">
        <ele>342.4</ele>
        <time>2018-05-20T13:39:54Z</time>
      </trkpt>
      <trkpt lat="44.8474" lon="1.98645">
        <ele>340.3</ele>
        <time>2018-05-20T13:40:05Z</time>
      </trkpt>
      <trkpt lat="44.84735" lon="1.98648">
        <ele>338.3</ele>
        <time>2018-05-20T13:40:17Z</time>
      </trkpt>
      <trkpt lat="44.8473" lon="1.98649">
        <ele>336.5</ele>
        <time>2018-05-20T13:40:31Z</time>
      </trkpt>
      <trkpt lat="44.84728" lon="1.98644">
        <ele>334.8</ele>
        <time>2018-05-20T13:40:43Z</time>
      </trkpt>
      <trkpt lat="44.84728" lon="1.98634">
        <ele>333.2</ele>
        <time>2018-05-20T13:40:52Z</time>
      </trkpt>
      <trkpt lat="44.84726" lon="1.98628">
        <ele>332</ele>
        <time>2018-05-20T13:40:56Z</time>
      </trkpt>
      <trkpt lat="44.84725" lon="1.98621">
        <ele>331.3</ele>
        <time>2018-05-20T13:41:00Z</time>
      </trkpt>
      <trkpt lat="44.84724" lon="1.98615">
        <ele>329.7</ele>
        <time>2018-05-20T13:41:19Z</time>
      </trkpt>
      <trkpt lat="44.8472" lon="1.98617">
        <ele>328.5</ele>
        <time>2018-05-20T13:41:24Z</time>
      </trkpt>
      <trkpt lat="44.84715" lon="1.98618">
        <ele>327.8</ele>
        <time>2018-05-20T13:41:27Z</time>
      </trkpt>
      <trkpt lat="44.84719" lon="1.98614">
        <ele>327.6</ele>
        <time>2018-05-20T13:41:44Z</time>
      </trkpt>
      <trkpt lat="44.84719" lon="1.98607">
        <ele>327.9</ele>
        <time>2018-05-20T13:42:38Z</time>
      </trkpt>
      <trkpt lat="44.84714" lon="1.98607">
        <ele>329.3</ele>
        <time>2018-05-20T13:43:04Z</time>
      </trkpt>
      <trkpt lat="44.84708" lon="1.98607">
        <ele>330.9</ele>
        <time>2018-05-20T13:43:20Z</time>
      </trkpt>
      <trkpt lat="44.84711" lon="1.98603">
        <ele>332.1</ele>
        <time>2018-05-20T13:45:34Z</time>
      </trkpt>
      <trkpt lat="44.84711" lon="1.98594">
        <ele>332.6</ele>
        <time>2018-05-20T13:45:49Z</time>
      </trkpt>
      <trkpt lat="44.84711" lon="1.98587">
        <ele>332.4</ele>
        <time>2018-05-20T13:45:53Z</time>
      </trkpt>
      <trkpt lat="44.84713" lon="1.98582">
        <ele>332</ele>
        <time>2018-05-20T13:45:55Z</time>
      </trkpt>
      <trkpt lat="44.84714" lon="1.98575">
        <ele>331.3</ele>
        <time>2018-05-20T13:46:04Z</time>
      </trkpt>
      <trkpt lat="44.84716" lon="1.98568">
        <ele>331</ele>
        <time>2018-05-20T13:46:09Z</time>
      </trkpt>
      <trkpt lat="44.84719" lon="1.98561">
        <ele>330.9</ele>
        <time>2018-05-20T13:46:17Z</time>
      </trkpt>
      <trkpt lat="44.84722" lon="1.98555">
        <ele>330.9</ele>
        <time>2018-05-20T13:46:29Z</time>
      </trkpt>
      <trkpt lat="44.84727" lon="1.98548">
        <ele>331.1</ele>
        <time>2018-05-20T13:46:37Z</time>
      </trkpt>
      <trkpt lat="44.84731" lon="1.98546">
        <ele>331.3</ele>
        <time>2018-05-20T13:46:45Z</time>
      </trkpt>
      <trkpt lat="44.84736" lon="1.98546">
        <ele>331.4</ele>
        <time>2018-05-20T13:46:51Z</time>
      </trkpt>
      <trkpt lat="44.84741" lon="1.98543">
        <ele>331.1</ele>
        <time>2018-05-20T13:46:56Z</time>
      </trkpt>
      <trkpt lat="44.84746" lon="1.9854">
        <ele>330.3</ele>
        <time>2018-05-20T13:47:00Z</time>
      </trkpt>
      <trkpt lat="44.84749" lon="1.98535">
        <ele>329.5</ele>
        <time>2018-05-20T13:47:03Z</time>
      </trkpt>
      <trkpt lat="44.84752" lon="1.98529">
        <ele>328.7</ele>
        <time>2018-05-20T13:47:09Z</time>
      </trkpt>
      <trkpt lat="44.84756" lon="1.98522">
        <ele>328.3</ele>
        <time>2018-05-20T13:47:13Z</time>
      </trkpt>
      <trkpt lat="44.84759" lon="1.98516">
        <ele>328.3</ele>
        <time>2018-05-20T13:47:22Z</time>
      </trkpt>
      <trkpt lat="44.84762" lon="1.9851">
        <ele>329.3</ele>
        <time>2018-05-20T13:47:30Z</time>
      </trkpt>
      <trkpt lat="44.84767" lon="1.98495">
        <ele>330.5</ele>
        <time>2018-05-20T13:47:40Z</time>
      </trkpt>
      <trkpt lat="44.84769" lon="1.98488">
        <ele>332</ele>
        <time>2018-05-20T13:47:46Z</time>
      </trkpt>
      <trkpt lat="44.84773" lon="1.98484">
        <ele>333.2</ele>
        <time>2018-05-20T13:47:52Z</time>
      </trkpt>
      <trkpt lat="44.84769" lon="1.98488">
        <ele>334.6</ele>
        <time>2018-05-20T13:48:18Z</time>
      </trkpt>
      <trkpt lat="44.84765" lon="1.98491">
        <ele>335.6</ele>
        <time>2018-05-20T13:48:26Z</time>
      </trkpt>
      <trkpt lat="44.84759" lon="1.98489">
        <ele>336.6</ele>
        <time>2018-05-20T13:48:39Z</time>
      </trkpt>
      <trkpt lat="44.84757" lon="1.98484">
        <ele>337.8</ele>
        <time>2018-05-20T13:48:49Z</time>
      </trkpt>
      <trkpt lat="44.84761" lon="1.9848">
        <ele>338.9</ele>
        <time>2018-05-20T13:49:00Z</time>
      </trkpt>
      <trkpt lat="44.84766" lon="1.98475">
        <ele>340.1</ele>
        <time>2018-05-20T13:49:12Z</time>
      </trkpt>
      <trkpt lat="44.84771" lon="1.98472">
        <ele>341.1</ele>
        <time>2018-05-20T13:49:18Z</time>
      </trkpt>
      <trkpt lat="44.84775" lon="1.98473">
        <ele>341.4</ele>
        <time>2018-05-20T13:49:34Z</time>
      </trkpt>
      <trkpt lat="44.8478" lon="1.98474">
        <ele>341</ele>
        <time>2018-05-20T13:49:42Z</time>
      </trkpt>
      <trkpt lat="44.84783" lon="1.98468">
        <ele>340.6</ele>
        <time>2018-05-20T13:50:16Z</time>
      </trkpt>
      <trkpt lat="44.84792" lon="1.98476">
        <ele>339.6</ele>
        <time>2018-05-20T13:51:10Z</time>
      </trkpt>
      <trkpt lat="44.84801" lon="1.98472">
        <ele>338.7</ele>
        <time>2018-05-20T13:52:33Z</time>
      </trkpt>
      <trkpt lat="44.84804" lon="1.98459">
        <ele>338.4</ele>
        <time>2018-05-20T13:52:58Z</time>
      </trkpt>
      <trkpt lat="44.848" lon="1.98455">
        <ele>338.5</ele>
        <time>2018-05-20T13:53:02Z</time>
      </trkpt>
      <trkpt lat="44.84803" lon="1.98465">
        <ele>340.1</ele>
        <time>2018-05-20T13:53:22Z</time>
      </trkpt>
      <trkpt lat="44.84804" lon="1.98471">
        <ele>342.1</ele>
        <time>2018-05-20T13:53:25Z</time>
      </trkpt>
      <trkpt lat="44.84803" lon="1.98482">
        <ele>344.2</ele>
        <time>2018-05-20T13:53:27Z</time>
      </trkpt>
      <trkpt lat="44.84808" lon="1.98481">
        <ele>346.4</ele>
        <time>2018-05-20T13:53:36Z</time>
      </trkpt>
      <trkpt lat="44.84804" lon="1.98487">
        <ele>348.4</ele>
        <time>2018-05-20T13:55:24Z</time>
      </trkpt>
      <trkpt lat="44.848" lon="1.98489">
        <ele>348.9</ele>
        <time>2018-05-20T13:55:37Z</time>
      </trkpt>
      <trkpt lat="44.84795" lon="1.98488">
        <ele>348.8</ele>
        <time>2018-05-20T13:55:41Z</time>
      </trkpt>
      <trkpt lat="44.84791" lon="1.98484">
        <ele>349.2</ele>
        <time>2018-05-20T13:55:45Z</time>
      </trkpt>
      <trkpt lat="44.84786" lon="1.9848">
        <ele>348.8</ele>
        <time>2018-05-20T13:55:51Z</time>
      </trkpt>
      <trkpt lat="44.84781" lon="1.98477">
        <ele>347.4</ele>
        <time>2018-05-20T13:55:58Z</time>
      </trkpt>
      <trkpt lat="44.84778" lon="1.98472">
        <ele>345.8</ele>
        <time>2018-05-20T13:56:52Z</time>
      </trkpt>
      <trkpt lat="44.84783" lon="1.98476">
        <ele>344.5</ele>
        <time>2018-05-20T13:59:26Z</time>
      </trkpt>
      <trkpt lat="44.84779" lon="1.98471">
        <ele>343.3</ele>
        <time>2018-05-20T14:01:44Z</time>
      </trkpt>
      <trkpt lat="44.84775" lon="1.9847">
        <ele>342.7</ele>
        <time>2018-05-20T14:03:18Z</time>
      </trkpt>
      <trkpt lat="44.84771" lon="1.98475">
        <ele>343.3</ele>
        <time>2018-05-20T14:03:30Z</time>
      </trkpt>
      <trkpt lat="44.8477" lon="1.98481">
        <ele>344.1</ele>
        <time>2018-05-20T14:03:34Z</time>
      </trkpt>
      <trkpt lat="44.84767" lon="1.98486">
        <ele>345</ele>
        <time>2018-05-20T14:03:50Z</time>
      </trkpt>
      <trkpt lat="44.84764" lon="1.98493">
        <ele>345.3</ele>
        <time>2018-05-20T14:03:57Z</time>
      </trkpt>
      <trkpt lat="44.84759" lon="1.985">
        <ele>346.5</ele>
        <time>2018-05-20T14:04:01Z</time>
      </trkpt>
      <trkpt lat="44.84755" lon="1.98504">
        <ele>347.8</ele>
        <time>2018-05-20T14:04:03Z</time>
      </trkpt>
      <trkpt lat="44.84751" lon="1.98508">
        <ele>349.1</ele>
        <time>2018-05-20T14:04:12Z</time>
      </trkpt>
      <trkpt lat="44.84748" lon="1.98513">
        <ele>350.2</ele>
        <time>2018-05-20T14:04:19Z</time>
      </trkpt>
      <trkpt lat="44.84754" lon="1.98513">
        <ele>351.3</ele>
        <time>2018-05-20T14:05:36Z</time>
      </trkpt>
      <trkpt lat="44.84759" lon="1.98511">
        <ele>351</ele>
        <time>2018-05-20T14:05:42Z</time>
      </trkpt>
      <trkpt lat="44.84764" lon="1.9851">
        <ele>350.4</ele>
        <time>2018-05-20T14:05:45Z</time>
      </trkpt>
      <trkpt lat="44.84761" lon="1.98517">
        <ele>349.5</ele>
        <time>2018-05-20T14:05:57Z</time>
      </trkpt>
      <trkpt lat="44.84758" lon="1.98522">
        <ele>348.3</ele>
        <time>2018-05-20T14:06:00Z</time>
      </trkpt>
      <trkpt lat="44.84757" lon="1.98529">
        <ele>346.8</ele>
        <time>2018-05-20T14:06:07Z</time>
      </trkpt>
      <trkpt lat="44.84756" lon="1.98536">
        <ele>345.6</ele>
        <time>2018-05-20T14:06:11Z</time>
      </trkpt>
      <trkpt lat="44.84753" lon="1.98542">
        <ele>344.2</ele>
        <time>2018-05-20T14:06:16Z</time>
      </trkpt>
      <trkpt lat="44.84747" lon="1.98546">
        <ele>343.1</ele>
        <time>2018-05-20T14:06:22Z</time>
      </trkpt>
      <trkpt lat="44.84742" lon="1.98546">
        <ele>342.1</ele>
        <time>2018-05-20T14:06:27Z</time>
      </trkpt>
      <trkpt lat="44.84737" lon="1.98547">
        <ele>341.3</ele>
        <time>2018-05-20T14:06:30Z</time>
      </trkpt>
      <trkpt lat="44.84735" lon="1.98553">
        <ele>340.5</ele>
        <time>2018-05-20T14:06:38Z</time>
      </trkpt>
      <trkpt lat="44.84731" lon="1.98557">
        <ele>339.7</ele>
        <time>2018-05-20T14:06:45Z</time>
      </trkpt>
      <trkpt lat="44.84727" lon="1.98561">
        <ele>338.8</ele>
        <time>2018-05-20T14:06:48Z</time>
      </trkpt>
      <trkpt lat="44.84723" lon="1.98569">
        <ele>338</ele>
        <time>2018-05-20T14:06:54Z</time>
      </trkpt>
      <trkpt lat="44.84721" lon="1.98575">
        <ele>337.3</ele>
        <time>2018-05-20T14:07:01Z</time>
      </trkpt>
      <trkpt lat="44.84719" lon="1.98581">
        <ele>336.8</ele>
        <time>2018-05-20T14:07:07Z</time>
      </trkpt>
      <trkpt lat="44.84717" lon="1.98587">
        <ele>336.6</ele>
        <time>2018-05-20T14:07:13Z</time>
      </trkpt>
      <trkpt lat="44.84717" lon="1.98594">
        <ele>336.4</ele>
        <time>2018-05-20T14:07:18Z</time>
      </trkpt>
      <trkpt lat="44.84718" lon="1.98601">
        <ele>336.4</ele>
        <time>2018-05-20T14:07:21Z</time>
      </trkpt>
      <trkpt lat="44.8472" lon="1.98608">
        <ele>336.1</ele>
        <time>2018-05-20T14:07:29Z</time>
      </trkpt>
      <trkpt lat="44.84724" lon="1.9861">
        <ele>335.8</ele>
        <time>2018-05-20T14:07:37Z</time>
      </trkpt>
      <trkpt lat="44.84729" lon="1.98612">
        <ele>335.3</ele>
        <time>2018-05-20T14:07:43Z</time>
      </trkpt>
      <trkpt lat="44.84733" lon="1.98609">
        <ele>334.8</ele>
        <time>2018-05-20T14:07:50Z</time>
      </trkpt>
      <trkpt lat="44.84737" lon="1.98601">
        <ele>334.4</ele>
        <time>2018-05-20T14:07:55Z</time>
      </trkpt>
      <trkpt lat="44.8474" lon="1.98596">
        <ele>334.2</ele>
        <time>2018-05-20T14:07:57Z</time>
      </trkpt>
      <trkpt lat="44.84745" lon="1.98595">
        <ele>334</ele>
        <time>2018-05-20T14:08:03Z</time>
      </trkpt>
      <trkpt lat="44.8475" lon="1.98593">
        <ele>334</ele>
        <time>2018-05-20T14:08:09Z</time>
      </trkpt>
      <trkpt lat="44.84755" lon="1.98588">
        <ele>333.9</ele>
        <time>2018-05-20T14:08:13Z</time>
      </trkpt>
      <trkpt lat="44.84761" lon="1.98585">
        <ele>333.9</ele>
        <time>2018-05-20T14:08:15Z</time>
      </trkpt>
      <trkpt lat="44.84766" lon="1.98581">
        <ele>333.9</ele>
        <time>2018-05-20T14:08:18Z</time>
      </trkpt>
      <trkpt lat="44.84771" lon="1.98576">
        <ele>333.9</ele>
        <time>2018-05-20T14:08:20Z</time>
      </trkpt>
      <trkpt lat="44.84776" lon="1.98574">
        <ele>333.9</ele>
        <time>2018-05-20T14:08:25Z</time>
      </trkpt>
      <trkpt lat="44.84781" lon="1.98573">
        <ele>333.9</ele>
        <time>2018-05-20T14:08:30Z</time>
      </trkpt>
      <trkpt lat="44.84786" lon="1.98572">
        <ele>334</ele>
        <time>2018-05-20T14:08:35Z</time>
      </trkpt>
      <trkpt lat="44.84791" lon="1.9857">
        <ele>334</ele>
        <time>2018-05-20T14:08:40Z</time>
      </trkpt>
      <trkpt lat="44.84796" lon="1.98568">
        <ele>334</ele>
        <time>2018-05-20T14:08:43Z</time>
      </trkpt>
      <trkpt lat="44.84801" lon="1.98567">
        <ele>333.9</ele>
        <time>2018-05-20T14:08:47Z</time>
      </trkpt>
      <trkpt lat="44.84806" lon="1.98565">
        <ele>333.8</ele>
        <time>2018-05-20T14:08:53Z</time>
      </trkpt>
      <trkpt lat="44.8481" lon="1.98563">
        <ele>333.6</ele>
        <time>2018-05-20T14:08:55Z</time>
      </trkpt>
      <trkpt lat="44.84814" lon="1.98559">
        <ele>333.3</ele>
        <time>2018-05-20T14:09:00Z</time>
      </trkpt>
      <trkpt lat="44.84819" lon="1.98554">
        <ele>332.9</ele>
        <time>2018-05-20T14:09:06Z</time>
      </trkpt>
      <trkpt lat="44.84822" lon="1.98549">
        <ele>332.5</ele>
        <time>2018-05-20T14:09:10Z</time>
      </trkpt>
      <trkpt lat="44.84826" lon="1.98546">
        <ele>332.1</ele>
        <time>2018-05-20T14:09:15Z</time>
      </trkpt>
      <trkpt lat="44.84832" lon="1.98544">
        <ele>331.8</ele>
        <time>2018-05-20T14:09:19Z</time>
      </trkpt>
      <trkpt lat="44.84836" lon="1.9854">
        <ele>331.5</ele>
        <time>2018-05-20T14:09:22Z</time>
      </trkpt>
      <trkpt lat="44.84842" lon="1.98539">
        <ele>331.2</ele>
        <time>2018-05-20T14:09:26Z</time>
      </trkpt>
      <trkpt lat="44.84847" lon="1.98536">
        <ele>330.9</ele>
        <time>2018-05-20T14:09:32Z</time>
      </trkpt>
      <trkpt lat="44.84849" lon="1.98531">
        <ele>330.7</ele>
        <time>2018-05-20T14:09:36Z</time>
      </trkpt>
      <trkpt lat="44.84852" lon="1.98525">
        <ele>330.6</ele>
        <time>2018-05-20T14:09:38Z</time>
      </trkpt>
      <trkpt lat="44.84854" lon="1.98519">
        <ele>330.6</ele>
        <time>2018-05-20T14:09:42Z</time>
      </trkpt>
      <trkpt lat="44.84857" lon="1.98514">
        <ele>330.8</ele>
        <time>2018-05-20T14:09:47Z</time>
      </trkpt>
      <trkpt lat="44.84859" lon="1.98508">
        <ele>331.5</ele>
        <time>2018-05-20T14:09:50Z</time>
      </trkpt>
      <trkpt lat="44.8486" lon="1.98501">
        <ele>332.1</ele>
        <time>2018-05-20T14:09:56Z</time>
      </trkpt>
      <trkpt lat="44.84861" lon="1.98494">
        <ele>332.3</ele>
        <time>2018-05-20T14:09:58Z</time>
      </trkpt>
      <trkpt lat="44.84861" lon="1.98487">
        <ele>332</ele>
        <time>2018-05-20T14:10:05Z</time>
      </trkpt>
      <trkpt lat="44.8486" lon="1.98481">
        <ele>331.3</ele>
        <time>2018-05-20T14:10:18Z</time>
      </trkpt>
      <trkpt lat="44.8486" lon="1.98474">
        <ele>329.7</ele>
        <time>2018-05-20T14:10:27Z</time>
      </trkpt>
      <trkpt lat="44.84861" lon="1.98468">
        <ele>327.8</ele>
        <time>2018-05-20T14:10:46Z</time>
      </trkpt>
      <trkpt lat="44.84863" lon="1.98462">
        <ele>326.1</ele>
        <time>2018-05-20T14:10:55Z</time>
      </trkpt>
      <trkpt lat="44.8486" lon="1.98456">
        <ele>324.7</ele>
        <time>2018-05-20T14:11:00Z</time>
      </trkpt>
      <trkpt lat="44.84859" lon="1.98446">
        <ele>323.2</ele>
        <time>2018-05-20T14:11:07Z</time>
      </trkpt>
      <trkpt lat="44.8486" lon="1.9844">
        <ele>322</ele>
        <time>2018-05-20T14:11:15Z</time>
      </trkpt>
      <trkpt lat="44.84858" lon="1.98432">
        <ele>320.7</ele>
        <time>2018-05-20T14:11:22Z</time>
      </trkpt>
      <trkpt lat="44.84856" lon="1.98426">
        <ele>319.5</ele>
        <time>2018-05-20T14:11:26Z</time>
      </trkpt>
      <trkpt lat="44.84855" lon="1.98419">
        <ele>318.2</ele>
        <time>2018-05-20T14:11:36Z</time>
      </trkpt>
      <trkpt lat="44.84854" lon="1.98413">
        <ele>316.9</ele>
        <time>2018-05-20T14:11:40Z</time>
      </trkpt>
      <trkpt lat="44.84853" lon="1.98406">
        <ele>315.8</ele>
        <time>2018-05-20T14:11:47Z</time>
      </trkpt>
      <trkpt lat="44.84854" lon="1.98398">
        <ele>314.8</ele>
        <time>2018-05-20T14:11:54Z</time>
      </trkpt>
      <trkpt lat="44.84854" lon="1.98391">
        <ele>313.8</ele>
        <time>2018-05-20T14:12:01Z</time>
      </trkpt>
      <trkpt lat="44.84853" lon="1.98384">
        <ele>312.9</ele>
        <time>2018-05-20T14:12:11Z</time>
      </trkpt>
      <trkpt lat="44.84852" lon="1.98378">
        <ele>312.2</ele>
        <time>2018-05-20T14:12:13Z</time>
      </trkpt>
      <trkpt lat="44.84854" lon="1.98368">
        <ele>311.6</ele>
        <time>2018-05-20T14:12:18Z</time>
      </trkpt>
      <trkpt lat="44.84855" lon="1.9836">
        <ele>311.2</ele>
        <time>2018-05-20T14:12:21Z</time>
      </trkpt>
      <trkpt lat="44.84856" lon="1.98354">
        <ele>311</ele>
        <time>2018-05-20T14:12:25Z</time>
      </trkpt>
      <trkpt lat="44.84856" lon="1.98347">
        <ele>310.8</ele>
        <time>2018-05-20T14:12:30Z</time>
      </trkpt>
      <trkpt lat="44.84859" lon="1.9834">
        <ele>310.6</ele>
        <time>2018-05-20T14:12:34Z</time>
      </trkpt>
      <trkpt lat="44.84862" lon="1.98334">
        <ele>310.3</ele>
        <time>2018-05-20T14:12:38Z</time>
      </trkpt>
      <trkpt lat="44.84866" lon="1.98329">
        <ele>309.9</ele>
        <time>2018-05-20T14:12:43Z</time>
      </trkpt>
      <trkpt lat="44.84867" lon="1.98321">
        <ele>309.3</ele>
        <time>2018-05-20T14:12:51Z</time>
      </trkpt>
      <trkpt lat="44.84869" lon="1.98314">
        <ele>308.3</ele>
        <time>2018-05-20T14:12:56Z</time>
      </trkpt>
      <trkpt lat="44.84873" lon="1.98308">
        <ele>307.2</ele>
        <time>2018-05-20T14:13:02Z</time>
      </trkpt>
      <trkpt lat="44.84877" lon="1.98303">
        <ele>305.8</ele>
        <time>2018-05-20T14:13:10Z</time>
      </trkpt>
      <trkpt lat="44.84879" lon="1.98297">
        <ele>304.4</ele>
        <time>2018-05-20T14:13:18Z</time>
      </trkpt>
      <trkpt lat="44.84879" lon="1.98291">
        <ele>303.2</ele>
        <time>2018-05-20T14:13:35Z</time>
      </trkpt>
      <trkpt lat="44.84883" lon="1.98287">
        <ele>302.4</ele>
        <time>2018-05-20T14:13:45Z</time>
      </trkpt>
      <trkpt lat="44.84884" lon="1.98279">
        <ele>301.8</ele>
        <time>2018-05-20T14:13:53Z</time>
      </trkpt>
      <trkpt lat="44.84887" lon="1.98273">
        <ele>301.6</ele>
        <time>2018-05-20T14:14:00Z</time>
      </trkpt>
      <trkpt lat="44.8489" lon="1.98266">
        <ele>301.6</ele>
        <time>2018-05-20T14:14:05Z</time>
      </trkpt>
      <trkpt lat="44.84896" lon="1.98262">
        <ele>301.6</ele>
        <time>2018-05-20T14:14:09Z</time>
      </trkpt>
      <trkpt lat="44.84899" lon="1.98257">
        <ele>301.5</ele>
        <time>2018-05-20T14:14:11Z</time>
      </trkpt>
      <trkpt lat="44.84901" lon="1.98251">
        <ele>301.2</ele>
        <time>2018-05-20T14:14:16Z</time>
      </trkpt>
      <trkpt lat="44.84905" lon="1.98248">
        <ele>301</ele>
        <time>2018-05-20T14:14:22Z</time>
      </trkpt>
      <trkpt lat="44.8491" lon="1.98245">
        <ele>300.7</ele>
        <time>2018-05-20T14:14:27Z</time>
      </trkpt>
      <trkpt lat="44.84914" lon="1.98243">
        <ele>300.5</ele>
        <time>2018-05-20T14:14:32Z</time>
      </trkpt>
      <trkpt lat="44.84919" lon="1.9824">
        <ele>300.2</ele>
        <time>2018-05-20T14:14:40Z</time>
      </trkpt>
      <trkpt lat="44.8492" lon="1.98234">
        <ele>299.8</ele>
        <time>2018-05-20T14:14:45Z</time>
      </trkpt>
      <trkpt lat="44.84925" lon="1.98227">
        <ele>299</ele>
        <time>2018-05-20T14:14:50Z</time>
      </trkpt>
      <trkpt lat="44.84926" lon="1.9822">
        <ele>298.1</ele>
        <time>2018-05-20T14:14:53Z</time>
      </trkpt>
      <trkpt lat="44.84927" lon="1.98214">
        <ele>297.1</ele>
        <time>2018-05-20T14:15:03Z</time>
      </trkpt>
      <trkpt lat="44.84929" lon="1.98207">
        <ele>296.1</ele>
        <time>2018-05-20T14:15:15Z</time>
      </trkpt>
      <trkpt lat="44.84933" lon="1.98204">
        <ele>295.2</ele>
        <time>2018-05-20T14:15:26Z</time>
      </trkpt>
      <trkpt lat="44.84938" lon="1.98205">
        <ele>294.6</ele>
        <time>2018-05-20T14:15:29Z</time>
      </trkpt>
      <trkpt lat="44.84943" lon="1.98204">
        <ele>294</ele>
        <time>2018-05-20T14:15:34Z</time>
      </trkpt>
      <trkpt lat="44.84947" lon="1.982">
        <ele>293.4</ele>
        <time>2018-05-20T14:15:38Z</time>
      </trkpt>
      <trkpt lat="44.84952" lon="1.982">
        <ele>292.8</ele>
        <time>2018-05-20T14:15:43Z</time>
      </trkpt>
      <trkpt lat="44.84958" lon="1.98199">
        <ele>292.5</ele>
        <time>2018-05-20T14:15:47Z</time>
      </trkpt>
      <trkpt lat="44.84963" lon="1.98194">
        <ele>292.4</ele>
        <time>2018-05-20T14:15:49Z</time>
      </trkpt>
      <trkpt lat="44.84969" lon="1.98192">
        <ele>292.9</ele>
        <time>2018-05-20T14:15:53Z</time>
      </trkpt>
      <trkpt lat="44.84973" lon="1.98188">
        <ele>293.7</ele>
        <time>2018-05-20T14:15:57Z</time>
      </trkpt>
      <trkpt lat="44.84977" lon="1.98185">
        <ele>294.8</ele>
        <time>2018-05-20T14:16:04Z</time>
      </trkpt>
      <trkpt lat="44.8498" lon="1.9818">
        <ele>295.9</ele>
        <time>2018-05-20T14:16:09Z</time>
      </trkpt>
      <trkpt lat="44.84982" lon="1.98174">
        <ele>296.9</ele>
        <time>2018-05-20T14:16:17Z</time>
      </trkpt>
      <trkpt lat="44.84987" lon="1.98167">
        <ele>297.4</ele>
        <time>2018-05-20T14:16:23Z</time>
      </trkpt>
      <trkpt lat="44.84993" lon="1.98161">
        <ele>297.7</ele>
        <time>2018-05-20T14:16:26Z</time>
      </trkpt>
      <trkpt lat="44.84998" lon="1.98159">
        <ele>297.7</ele>
        <time>2018-05-20T14:16:31Z</time>
      </trkpt>
      <trkpt lat="44.85002" lon="1.98155">
        <ele>297.6</ele>
        <time>2018-05-20T14:16:40Z</time>
      </trkpt>
      <trkpt lat="44.85005" lon="1.98149">
        <ele>297.3</ele>
        <time>2018-05-20T14:16:44Z</time>
      </trkpt>
      <trkpt lat="44.85009" lon="1.98145">
        <ele>297</ele>
        <time>2018-05-20T14:16:51Z</time>
      </trkpt>
      <trkpt lat="44.85013" lon="1.98142">
        <ele>296.9</ele>
        <time>2018-05-20T14:16:54Z</time>
      </trkpt>
      <trkpt lat="44.85017" lon="1.98137">
        <ele>296.9</ele>
        <time>2018-05-20T14:16:59Z</time>
      </trkpt>
      <trkpt lat="44.85022" lon="1.98134">
        <ele>297.1</ele>
        <time>2018-05-20T14:17:03Z</time>
      </trkpt>
      <trkpt lat="44.85027" lon="1.98132">
        <ele>297.3</ele>
        <time>2018-05-20T14:17:07Z</time>
      </trkpt>
      <trkpt lat="44.85032" lon="1.9813">
        <ele>297.5</ele>
        <time>2018-05-20T14:17:12Z</time>
      </trkpt>
      <trkpt lat="44.85037" lon="1.98129">
        <ele>297.5</ele>
        <time>2018-05-20T14:17:15Z</time>
      </trkpt>
      <trkpt lat="44.85041" lon="1.98124">
        <ele>297.3</ele>
        <time>2018-05-20T14:17:19Z</time>
      </trkpt>
      <trkpt lat="44.85045" lon="1.98121">
        <ele>296.7</ele>
        <time>2018-05-20T14:17:24Z</time>
      </trkpt>
      <trkpt lat="44.8505" lon="1.98117">
        <ele>295.7</ele>
        <time>2018-05-20T14:17:28Z</time>
      </trkpt>
      <trkpt lat="44.85053" lon="1.9811">
        <ele>294.4</ele>
        <time>2018-05-20T14:17:33Z</time>
      </trkpt>
      <trkpt lat="44.85056" lon="1.98103">
        <ele>292.9</ele>
        <time>2018-05-20T14:17:37Z</time>
      </trkpt>
      <trkpt lat="44.85057" lon="1.98095">
        <ele>291.5</ele>
        <time>2018-05-20T14:17:43Z</time>
      </trkpt>
      <trkpt lat="44.8506" lon="1.98089">
        <ele>290.1</ele>
        <time>2018-05-20T14:17:48Z</time>
      </trkpt>
      <trkpt lat="44.85063" lon="1.98083">
        <ele>288.9</ele>
        <time>2018-05-20T14:17:53Z</time>
      </trkpt>
      <trkpt lat="44.85064" lon="1.98076">
        <ele>287.6</ele>
        <time>2018-05-20T14:17:59Z</time>
      </trkpt>
      <trkpt lat="44.85066" lon="1.98069">
        <ele>286.4</ele>
        <time>2018-05-20T14:18:02Z</time>
      </trkpt>
      <trkpt lat="44.85067" lon="1.98063">
        <ele>284.6</ele>
        <time>2018-05-20T14:18:05Z</time>
      </trkpt>
      <trkpt lat="44.8507" lon="1.98057">
        <ele>283.1</ele>
        <time>2018-05-20T14:18:10Z</time>
      </trkpt>
      <trkpt lat="44.85065" lon="1.98052">
        <ele>281.2</ele>
        <time>2018-05-20T14:18:15Z</time>
      </trkpt>
      <trkpt lat="44.85064" lon="1.98045">
        <ele>279.4</ele>
        <time>2018-05-20T14:18:21Z</time>
      </trkpt>
      <trkpt lat="44.8506" lon="1.98041">
        <ele>277.7</ele>
        <time>2018-05-20T14:18:28Z</time>
      </trkpt>
      <trkpt lat="44.85054" lon="1.98039">
        <ele>276.6</ele>
        <time>2018-05-20T14:18:31Z</time>
      </trkpt>
      <trkpt lat="44.85049" lon="1.98037">
        <ele>275.3</ele>
        <time>2018-05-20T14:18:37Z</time>
      </trkpt>
      <trkpt lat="44.85044" lon="1.98035">
        <ele>274.4</ele>
        <time>2018-05-20T14:18:46Z</time>
      </trkpt>
      <trkpt lat="44.8504" lon="1.98035">
        <ele>273.6</ele>
        <time>2018-05-20T14:18:50Z</time>
      </trkpt>
      <trkpt lat="44.85035" lon="1.98036">
        <ele>272.9</ele>
        <time>2018-05-20T14:18:52Z</time>
      </trkpt>
      <trkpt lat="44.85031" lon="1.98031">
        <ele>272.3</ele>
        <time>2018-05-20T14:18:55Z</time>
      </trkpt>
      <trkpt lat="44.85027" lon="1.98028">
        <ele>271.8</ele>
        <time>2018-05-20T14:18:59Z</time>
      </trkpt>
      <trkpt lat="44.85023" lon="1.98027">
        <ele>271.4</ele>
        <time>2018-05-20T14:19:03Z</time>
      </trkpt>
      <trkpt lat="44.85018" lon="1.98029">
        <ele>271.2</ele>
        <time>2018-05-20T14:19:06Z</time>
      </trkpt>
      <trkpt lat="44.85014" lon="1.98025">
        <ele>271.1</ele>
        <time>2018-05-20T14:19:08Z</time>
      </trkpt>
      <trkpt lat="44.8501" lon="1.98022">
        <ele>271</ele>
        <time>2018-05-20T14:19:12Z</time>
      </trkpt>
      <trkpt lat="44.85005" lon="1.98019">
        <ele>270.9</ele>
        <time>2018-05-20T14:19:21Z</time>
      </trkpt>
      <trkpt lat="44.85" lon="1.98012">
        <ele>270.7</ele>
        <time>2018-05-20T14:19:23Z</time>
      </trkpt>
      <trkpt lat="44.84996" lon="1.98007">
        <ele>270.5</ele>
        <time>2018-05-20T14:19:30Z</time>
      </trkpt>
      <trkpt lat="44.84992" lon="1.98002">
        <ele>270.2</ele>
        <time>2018-05-20T14:19:38Z</time>
      </trkpt>
      <trkpt lat="44.84989" lon="1.97996">
        <ele>270</ele>
        <time>2018-05-20T14:19:42Z</time>
      </trkpt>
      <trkpt lat="44.84986" lon="1.97989">
        <ele>269.9</ele>
        <time>2018-05-20T14:19:46Z</time>
      </trkpt>
      <trkpt lat="44.84984" lon="1.97982">
        <ele>269.8</ele>
        <time>2018-05-20T14:19:51Z</time>
      </trkpt>
      <trkpt lat="44.84982" lon="1.97975">
        <ele>269.8</ele>
        <time>2018-05-20T14:19:58Z</time>
      </trkpt>
      <trkpt lat="44.84981" lon="1.97967">
        <ele>269.8</ele>
        <time>2018-05-20T14:20:03Z</time>
      </trkpt>
      <trkpt lat="44.84979" lon="1.9796">
        <ele>269.5</ele>
        <time>2018-05-20T14:20:07Z</time>
      </trkpt>
      <trkpt lat="44.84975" lon="1.97956">
        <ele>269</ele>
        <time>2018-05-20T14:20:10Z</time>
      </trkpt>
      <trkpt lat="44.84972" lon="1.9795">
        <ele>268.2</ele>
        <time>2018-05-20T14:20:15Z</time>
      </trkpt>
      <trkpt lat="44.8497" lon="1.97942">
        <ele>267.4</ele>
        <time>2018-05-20T14:20:19Z</time>
      </trkpt>
      <trkpt lat="44.84966" lon="1.97937">
        <ele>266.4</ele>
        <time>2018-05-20T14:20:28Z</time>
      </trkpt>
      <trkpt lat="44.84962" lon="1.97931">
        <ele>265.9</ele>
        <time>2018-05-20T14:20:32Z</time>
      </trkpt>
      <trkpt lat="44.8496" lon="1.97925">
        <ele>265.5</ele>
        <time>2018-05-20T14:20:37Z</time>
      </trkpt>
      <trkpt lat="44.84956" lon="1.97922">
        <ele>265.5</ele>
        <time>2018-05-20T14:20:39Z</time>
      </trkpt>
      <trkpt lat="44.84952" lon="1.97916">
        <ele>267.4</ele>
        <time>2018-05-20T14:20:43Z</time>
      </trkpt>
      <trkpt lat="44.84949" lon="1.9791">
        <ele>269.8</ele>
        <time>2018-05-20T14:20:47Z</time>
      </trkpt>
      <trkpt lat="44.84946" lon="1.97905">
        <ele>272.4</ele>
        <time>2018-05-20T14:20:52Z</time>
      </trkpt>
      <trkpt lat="44.84946" lon="1.97898">
        <ele>274.8</ele>
        <time>2018-05-20T14:21:00Z</time>
      </trkpt>
      <trkpt lat="44.84948" lon="1.97893">
        <ele>277.4</ele>
        <time>2018-05-20T14:22:08Z</time>
      </trkpt>
      <trkpt lat="44.84951" lon="1.97883">
        <ele>278.1</ele>
        <time>2018-05-20T14:22:24Z</time>
      </trkpt>
      <trkpt lat="44.84954" lon="1.97877">
        <ele>278.5</ele>
        <time>2018-05-20T14:22:32Z</time>
      </trkpt>
      <trkpt lat="44.84957" lon="1.97871">
        <ele>279</ele>
        <time>2018-05-20T14:22:35Z</time>
      </trkpt>
      <trkpt lat="44.84957" lon="1.97864">
        <ele>279.4</ele>
        <time>2018-05-20T14:22:44Z</time>
      </trkpt>
      <trkpt lat="44.84956" lon="1.97858">
        <ele>279.8</ele>
        <time>2018-05-20T14:22:49Z</time>
      </trkpt>
      <trkpt lat="44.84955" lon="1.97851">
        <ele>280</ele>
        <time>2018-05-20T14:22:54Z</time>
      </trkpt>
      <trkpt lat="44.84956" lon="1.97844">
        <ele>279.8</ele>
        <time>2018-05-20T14:23:02Z</time>
      </trkpt>
      <trkpt lat="44.84954" lon="1.97838">
        <ele>279.4</ele>
        <time>2018-05-20T14:23:06Z</time>
      </trkpt>
      <trkpt lat="44.84951" lon="1.97832">
        <ele>278.7</ele>
        <time>2018-05-20T14:23:12Z</time>
      </trkpt>
      <trkpt lat="44.84947" lon="1.97826">
        <ele>277.8</ele>
        <time>2018-05-20T14:23:17Z</time>
      </trkpt>
      <trkpt lat="44.84944" lon="1.97821">
        <ele>276.9</ele>
        <time>2018-05-20T14:23:21Z</time>
      </trkpt>
      <trkpt lat="44.84939" lon="1.97815">
        <ele>276</ele>
        <time>2018-05-20T14:23:24Z</time>
      </trkpt>
      <trkpt lat="44.84936" lon="1.97811">
        <ele>275.2</ele>
        <time>2018-05-20T14:23:29Z</time>
      </trkpt>
      <trkpt lat="44.84933" lon="1.97805">
        <ele>274.4</ele>
        <time>2018-05-20T14:23:40Z</time>
      </trkpt>
      <trkpt lat="44.84929" lon="1.978">
        <ele>273.8</ele>
        <time>2018-05-20T14:23:46Z</time>
      </trkpt>
      <trkpt lat="44.84926" lon="1.97795">
        <ele>273.2</ele>
        <time>2018-05-20T14:23:50Z</time>
      </trkpt>
      <trkpt lat="44.84923" lon="1.97789">
        <ele>272.6</ele>
        <time>2018-05-20T14:23:53Z</time>
      </trkpt>
      <trkpt lat="44.8492" lon="1.97782">
        <ele>272</ele>
        <time>2018-05-20T14:23:56Z</time>
      </trkpt>
      <trkpt lat="44.84917" lon="1.97776">
        <ele>271.2</ele>
        <time>2018-05-20T14:24:00Z</time>
      </trkpt>
      <trkpt lat="44.84913" lon="1.9777">
        <ele>270.4</ele>
        <time>2018-05-20T14:24:06Z</time>
      </trkpt>
      <trkpt lat="44.84909" lon="1.97763">
        <ele>269.6</ele>
        <time>2018-05-20T14:24:09Z</time>
      </trkpt>
      <trkpt lat="44.84905" lon="1.97758">
        <ele>268.6</ele>
        <time>2018-05-20T14:24:15Z</time>
      </trkpt>
      <trkpt lat="44.84902" lon="1.97751">
        <ele>267</ele>
        <time>2018-05-20T14:24:22Z</time>
      </trkpt>
      <trkpt lat="44.849" lon="1.97746">
        <ele>265.6</ele>
        <time>2018-05-20T14:24:26Z</time>
      </trkpt>
      <trkpt lat="44.84896" lon="1.97741">
        <ele>264</ele>
        <time>2018-05-20T14:24:31Z</time>
      </trkpt>
      <trkpt lat="44.84893" lon="1.97734">
        <ele>262.6</ele>
        <time>2018-05-20T14:24:38Z</time>
      </trkpt>
      <trkpt lat="44.84892" lon="1.97727">
        <ele>261.1</ele>
        <time>2018-05-20T14:25:14Z</time>
      </trkpt>
      <trkpt lat="44.8489" lon="1.97721">
        <ele>260.2</ele>
        <time>2018-05-20T14:25:17Z</time>
      </trkpt>
      <trkpt lat="44.84886" lon="1.97714">
        <ele>259.4</ele>
        <time>2018-05-20T14:25:21Z</time>
      </trkpt>
      <trkpt lat="44.84883" lon="1.9771">
        <ele>258.6</ele>
        <time>2018-05-20T14:25:28Z</time>
      </trkpt>
      <trkpt lat="44.84879" lon="1.97705">
        <ele>257.9</ele>
        <time>2018-05-20T14:25:32Z</time>
      </trkpt>
      <trkpt lat="44.84877" lon="1.97697">
        <ele>257.2</ele>
        <time>2018-05-20T14:25:38Z</time>
      </trkpt>
      <trkpt lat="44.84876" lon="1.97691">
        <ele>256.8</ele>
        <time>2018-05-20T14:25:42Z</time>
      </trkpt>
      <trkpt lat="44.84873" lon="1.97685">
        <ele>256.5</ele>
        <time>2018-05-20T14:25:46Z</time>
      </trkpt>
      <trkpt lat="44.8487" lon="1.97679">
        <ele>256.3</ele>
        <time>2018-05-20T14:25:52Z</time>
      </trkpt>
      <trkpt lat="44.8487" lon="1.97672">
        <ele>256.2</ele>
        <time>2018-05-20T14:25:57Z</time>
      </trkpt>
      <trkpt lat="44.84872" lon="1.97666">
        <ele>256.1</ele>
        <time>2018-05-20T14:26:01Z</time>
      </trkpt>
      <trkpt lat="44.84873" lon="1.9766">
        <ele>256.1</ele>
        <time>2018-05-20T14:26:04Z</time>
      </trkpt>
      <trkpt lat="44.84874" lon="1.97653">
        <ele>256</ele>
        <time>2018-05-20T14:26:07Z</time>
      </trkpt>
      <trkpt lat="44.84876" lon="1.97645">
        <ele>255.9</ele>
        <time>2018-05-20T14:26:10Z</time>
      </trkpt>
      <trkpt lat="44.84879" lon="1.97639">
        <ele>255.8</ele>
        <time>2018-05-20T14:26:14Z</time>
      </trkpt>
      <trkpt lat="44.84882" lon="1.97632">
        <ele>255.7</ele>
        <time>2018-05-20T14:26:18Z</time>
      </trkpt>
      <trkpt lat="44.84885" lon="1.97624">
        <ele>255.5</ele>
        <time>2018-05-20T14:26:23Z</time>
      </trkpt>
      <trkpt lat="44.84887" lon="1.97618">
        <ele>255.3</ele>
        <time>2018-05-20T14:26:28Z</time>
      </trkpt>
      <trkpt lat="44.84889" lon="1.97611">
        <ele>255.1</ele>
        <time>2018-05-20T14:26:33Z</time>
      </trkpt>
      <trkpt lat="44.84891" lon="1.97606">
        <ele>254.9</ele>
        <time>2018-05-20T14:26:37Z</time>
      </trkpt>
      <trkpt lat="44.84893" lon="1.97599">
        <ele>254.1</ele>
        <time>2018-05-20T14:26:42Z</time>
      </trkpt>
      <trkpt lat="44.84893" lon="1.97592">
        <ele>253.1</ele>
        <time>2018-05-20T14:26:51Z</time>
      </trkpt>
      <trkpt lat="44.84896" lon="1.97587">
        <ele>252.1</ele>
        <time>2018-05-20T14:27:10Z</time>
      </trkpt>
      <trkpt lat="44.84901" lon="1.97583">
        <ele>250.9</ele>
        <time>2018-05-20T14:27:35Z</time>
      </trkpt>
      <trkpt lat="44.84898" lon="1.97591">
        <ele>249.7</ele>
        <time>2018-05-20T14:27:51Z</time>
      </trkpt>
      <trkpt lat="44.84894" lon="1.97586">
        <ele>249</ele>
        <time>2018-05-20T14:27:55Z</time>
      </trkpt>
      <trkpt lat="44.8489" lon="1.9758">
        <ele>248.5</ele>
        <time>2018-05-20T14:27:58Z</time>
      </trkpt>
      <trkpt lat="44.84888" lon="1.97573">
        <ele>248.1</ele>
        <time>2018-05-20T14:28:04Z</time>
      </trkpt>
      <trkpt lat="44.84886" lon="1.97567">
        <ele>247.9</ele>
        <time>2018-05-20T14:28:08Z</time>
      </trkpt>
      <trkpt lat="44.84885" lon="1.97561">
        <ele>247.7</ele>
        <time>2018-05-20T14:28:11Z</time>
      </trkpt>
      <trkpt lat="44.84883" lon="1.97554">
        <ele>247.3</ele>
        <time>2018-05-20T14:28:15Z</time>
      </trkpt>
      <trkpt lat="44.8488" lon="1.97549">
        <ele>246.9</ele>
        <time>2018-05-20T14:28:18Z</time>
      </trkpt>
      <trkpt lat="44.84878" lon="1.97543">
        <ele>246.5</ele>
        <time>2018-05-20T14:28:21Z</time>
      </trkpt>
      <trkpt lat="44.84876" lon="1.97536">
        <ele>246</ele>
        <time>2018-05-20T14:28:28Z</time>
      </trkpt>
      <trkpt lat="44.84873" lon="1.9753">
        <ele>245.6</ele>
        <time>2018-05-20T14:28:32Z</time>
      </trkpt>
      <trkpt lat="44.84871" lon="1.97523">
        <ele>245.4</ele>
        <time>2018-05-20T14:28:36Z</time>
      </trkpt>
      <trkpt lat="44.84868" lon="1.97516">
        <ele>245.3</ele>
        <time>2018-05-20T14:28:40Z</time>
      </trkpt>
      <trkpt lat="44.84868" lon="1.97509">
        <ele>245.3</ele>
        <time>2018-05-20T14:28:44Z</time>
      </trkpt>
      <trkpt lat="44.84867" lon="1.97502">
        <ele>245.5</ele>
        <time>2018-05-20T14:28:47Z</time>
      </trkpt>
      <trkpt lat="44.84866" lon="1.97496">
        <ele>245.8</ele>
        <time>2018-05-20T14:28:51Z</time>
      </trkpt>
      <trkpt lat="44.84867" lon="1.97488">
        <ele>246.2</ele>
        <time>2018-05-20T14:28:54Z</time>
      </trkpt>
      <trkpt lat="44.84867" lon="1.97481">
        <ele>246.6</ele>
        <time>2018-05-20T14:28:57Z</time>
      </trkpt>
      <trkpt lat="44.84869" lon="1.97475">
        <ele>247</ele>
        <time>2018-05-20T14:29:00Z</time>
      </trkpt>
      <trkpt lat="44.8487" lon="1.97467">
        <ele>247.4</ele>
        <time>2018-05-20T14:29:03Z</time>
      </trkpt>
      <trkpt lat="44.84871" lon="1.9746">
        <ele>247.8</ele>
        <time>2018-05-20T14:29:06Z</time>
      </trkpt>
      <trkpt lat="44.84873" lon="1.97453">
        <ele>248.1</ele>
        <time>2018-05-20T14:29:09Z</time>
      </trkpt>
      <trkpt lat="44.84874" lon="1.97446">
        <ele>248.1</ele>
        <time>2018-05-20T14:29:12Z</time>
      </trkpt>
      <trkpt lat="44.84877" lon="1.97441">
        <ele>248</ele>
        <time>2018-05-20T14:29:17Z</time>
      </trkpt>
      <trkpt lat="44.8488" lon="1.97433">
        <ele>247.7</ele>
        <time>2018-05-20T14:29:21Z</time>
      </trkpt>
      <trkpt lat="44.84884" lon="1.97429">
        <ele>247.4</ele>
        <time>2018-05-20T14:29:24Z</time>
      </trkpt>
      <trkpt lat="44.84887" lon="1.97425">
        <ele>247.1</ele>
        <time>2018-05-20T14:29:28Z</time>
      </trkpt>
      <trkpt lat="44.84888" lon="1.97418">
        <ele>246.9</ele>
        <time>2018-05-20T14:29:33Z</time>
      </trkpt>
      <trkpt lat="44.84889" lon="1.9741">
        <ele>247</ele>
        <time>2018-05-20T14:29:36Z</time>
      </trkpt>
      <trkpt lat="44.84891" lon="1.97402">
        <ele>247.1</ele>
        <time>2018-05-20T14:29:39Z</time>
      </trkpt>
      <trkpt lat="44.84892" lon="1.97394">
        <ele>247.3</ele>
        <time>2018-05-20T14:29:42Z</time>
      </trkpt>
      <trkpt lat="44.84893" lon="1.97386">
        <ele>247.6</ele>
        <time>2018-05-20T14:29:45Z</time>
      </trkpt>
      <trkpt lat="44.84895" lon="1.97378">
        <ele>247.8</ele>
        <time>2018-05-20T14:29:48Z</time>
      </trkpt>
      <trkpt lat="44.84896" lon="1.97371">
        <ele>248</ele>
        <time>2018-05-20T14:29:51Z</time>
      </trkpt>
      <trkpt lat="44.84899" lon="1.97366">
        <ele>248</ele>
        <time>2018-05-20T14:29:54Z</time>
      </trkpt>
      <trkpt lat="44.84902" lon="1.97361">
        <ele>248</ele>
        <time>2018-05-20T14:29:59Z</time>
      </trkpt>
      <trkpt lat="44.84905" lon="1.97356">
        <ele>247.9</ele>
        <time>2018-05-20T14:30:05Z</time>
      </trkpt>
      <trkpt lat="44.84908" lon="1.9735">
        <ele>247.7</ele>
        <time>2018-05-20T14:30:10Z</time>
      </trkpt>
      <trkpt lat="44.8491" lon="1.97344">
        <ele>247.6</ele>
        <time>2018-05-20T14:30:13Z</time>
      </trkpt>
      <trkpt lat="44.84914" lon="1.97338">
        <ele>247.3</ele>
        <time>2018-05-20T14:30:16Z</time>
      </trkpt>
      <trkpt lat="44.84916" lon="1.97332">
        <ele>247.2</ele>
        <time>2018-05-20T14:30:19Z</time>
      </trkpt>
      <trkpt lat="44.84919" lon="1.97326">
        <ele>246.9</ele>
        <time>2018-05-20T14:30:22Z</time>
      </trkpt>
      <trkpt lat="44.84923" lon="1.97321">
        <ele>246.6</ele>
        <time>2018-05-20T14:30:26Z</time>
      </trkpt>
      <trkpt lat="44.84927" lon="1.97315">
        <ele>246</ele>
        <time>2018-05-20T14:30:30Z</time>
      </trkpt>
      <trkpt lat="44.84929" lon="1.9731">
        <ele>245.4</ele>
        <time>2018-05-20T14:30:34Z</time>
      </trkpt>
      <trkpt lat="44.84933" lon="1.97305">
        <ele>244.6</ele>
        <time>2018-05-20T14:30:38Z</time>
      </trkpt>
      <trkpt lat="44.84936" lon="1.973">
        <ele>243.9</ele>
        <time>2018-05-20T14:30:41Z</time>
      </trkpt>
      <trkpt lat="44.84939" lon="1.97294">
        <ele>243.2</ele>
        <time>2018-05-20T14:30:44Z</time>
      </trkpt>
      <trkpt lat="44.84941" lon="1.97288">
        <ele>242.7</ele>
        <time>2018-05-20T14:30:47Z</time>
      </trkpt>
      <trkpt lat="44.84945" lon="1.97282">
        <ele>242.2</ele>
        <time>2018-05-20T14:30:53Z</time>
      </trkpt>
      <trkpt lat="44.84948" lon="1.97276">
        <ele>241.7</ele>
        <time>2018-05-20T14:30:57Z</time>
      </trkpt>
      <trkpt lat="44.8495" lon="1.9727">
        <ele>241.3</ele>
        <time>2018-05-20T14:31:00Z</time>
      </trkpt>
      <trkpt lat="44.84954" lon="1.97264">
        <ele>241.1</ele>
        <time>2018-05-20T14:31:03Z</time>
      </trkpt>
      <trkpt lat="44.84956" lon="1.97258">
        <ele>241.1</ele>
        <time>2018-05-20T14:31:06Z</time>
      </trkpt>
      <trkpt lat="44.84961" lon="1.97254">
        <ele>241.2</ele>
        <time>2018-05-20T14:31:10Z</time>
      </trkpt>
      <trkpt lat="44.84965" lon="1.97248">
        <ele>241.7</ele>
        <time>2018-05-20T14:31:13Z</time>
      </trkpt>
      <trkpt lat="44.8497" lon="1.97244">
        <ele>242.4</ele>
        <time>2018-05-20T14:31:16Z</time>
      </trkpt>
      <trkpt lat="44.84973" lon="1.97239">
        <ele>243.1</ele>
        <time>2018-05-20T14:31:19Z</time>
      </trkpt>
      <trkpt lat="44.84978" lon="1.97234">
        <ele>243.8</ele>
        <time>2018-05-20T14:31:23Z</time>
      </trkpt>
      <trkpt lat="44.84983" lon="1.9723">
        <ele>244.6</ele>
        <time>2018-05-20T14:31:27Z</time>
      </trkpt>
      <trkpt lat="44.84987" lon="1.97226">
        <ele>245.1</ele>
        <time>2018-05-20T14:31:31Z</time>
      </trkpt>
      <trkpt lat="44.84991" lon="1.97222">
        <ele>245.6</ele>
        <time>2018-05-20T14:31:34Z</time>
      </trkpt>
      <trkpt lat="44.84996" lon="1.97218">
        <ele>246</ele>
        <time>2018-05-20T14:31:38Z</time>
      </trkpt>
      <trkpt lat="44.84999" lon="1.97213">
        <ele>246.5</ele>
        <time>2018-05-20T14:31:42Z</time>
      </trkpt>
      <trkpt lat="44.85004" lon="1.97208">
        <ele>247</ele>
        <time>2018-05-20T14:31:46Z</time>
      </trkpt>
      <trkpt lat="44.85009" lon="1.97203">
        <ele>247.4</ele>
        <time>2018-05-20T14:31:50Z</time>
      </trkpt>
      <trkpt lat="44.85013" lon="1.972">
        <ele>247.9</ele>
        <time>2018-05-20T14:31:55Z</time>
      </trkpt>
      <trkpt lat="44.85019" lon="1.97197">
        <ele>248.4</ele>
        <time>2018-05-20T14:31:59Z</time>
      </trkpt>
      <trkpt lat="44.85024" lon="1.97193">
        <ele>248.8</ele>
        <time>2018-05-20T14:32:03Z</time>
      </trkpt>
      <trkpt lat="44.85028" lon="1.97188">
        <ele>249.1</ele>
        <time>2018-05-20T14:32:06Z</time>
      </trkpt>
      <trkpt lat="44.85032" lon="1.97185">
        <ele>249.4</ele>
        <time>2018-05-20T14:32:09Z</time>
      </trkpt>
      <trkpt lat="44.85036" lon="1.97181">
        <ele>249.5</ele>
        <time>2018-05-20T14:32:13Z</time>
      </trkpt>
      <trkpt lat="44.85041" lon="1.97176">
        <ele>249.6</ele>
        <time>2018-05-20T14:32:18Z</time>
      </trkpt>
      <trkpt lat="44.85044" lon="1.97171">
        <ele>249.6</ele>
        <time>2018-05-20T14:32:21Z</time>
      </trkpt>
      <trkpt lat="44.85048" lon="1.97168">
        <ele>249.7</ele>
        <time>2018-05-20T14:32:25Z</time>
      </trkpt>
      <trkpt lat="44.85053" lon="1.97164">
        <ele>249.7</ele>
        <time>2018-05-20T14:32:30Z</time>
      </trkpt>
      <trkpt lat="44.85057" lon="1.9716">
        <ele>249.7</ele>
        <time>2018-05-20T14:32:34Z</time>
      </trkpt>
      <trkpt lat="44.85062" lon="1.97157">
        <ele>249.5</ele>
        <time>2018-05-20T14:32:38Z</time>
      </trkpt>
      <trkpt lat="44.85067" lon="1.97154">
        <ele>249.2</ele>
        <time>2018-05-20T14:32:41Z</time>
      </trkpt>
      <trkpt lat="44.85072" lon="1.9715">
        <ele>248.8</ele>
        <time>2018-05-20T14:32:45Z</time>
      </trkpt>
      <trkpt lat="44.85078" lon="1.97147">
        <ele>248.1</ele>
        <time>2018-05-20T14:32:50Z</time>
      </trkpt>
      <trkpt lat="44.85083" lon="1.97147">
        <ele>247.5</ele>
        <time>2018-05-20T14:32:54Z</time>
      </trkpt>
      <trkpt lat="44.85088" lon="1.97144">
        <ele>246.8</ele>
        <time>2018-05-20T14:32:59Z</time>
      </trkpt>
      <trkpt lat="44.85092" lon="1.97139">
        <ele>246.2</ele>
        <time>2018-05-20T14:33:03Z</time>
      </trkpt>
      <trkpt lat="44.85096" lon="1.97134">
        <ele>245.6</ele>
        <time>2018-05-20T14:33:07Z</time>
      </trkpt>
      <trkpt lat="44.851" lon="1.97129">
        <ele>245</ele>
        <time>2018-05-20T14:33:11Z</time>
      </trkpt>
      <trkpt lat="44.85103" lon="1.97125">
        <ele>244.4</ele>
        <time>2018-05-20T14:33:15Z</time>
      </trkpt>
      <trkpt lat="44.85106" lon="1.97118">
        <ele>243.7</ele>
        <time>2018-05-20T14:33:20Z</time>
      </trkpt>
      <trkpt lat="44.85108" lon="1.97112">
        <ele>243.2</ele>
        <time>2018-05-20T14:33:24Z</time>
      </trkpt>
      <trkpt lat="44.8511" lon="1.97104">
        <ele>242.6</ele>
        <time>2018-05-20T14:33:30Z</time>
      </trkpt>
      <trkpt lat="44.85112" lon="1.97097">
        <ele>242</ele>
        <time>2018-05-20T14:33:35Z</time>
      </trkpt>
      <trkpt lat="44.85115" lon="1.97092">
        <ele>241.3</ele>
        <time>2018-05-20T14:33:39Z</time>
      </trkpt>
      <trkpt lat="44.85117" lon="1.97086">
        <ele>240.7</ele>
        <time>2018-05-20T14:33:43Z</time>
      </trkpt>
      <trkpt lat="44.8512" lon="1.9708">
        <ele>240</ele>
        <time>2018-05-20T14:33:46Z</time>
      </trkpt>
      <trkpt lat="44.85122" lon="1.97074">
        <ele>239.5</ele>
        <time>2018-05-20T14:33:49Z</time>
      </trkpt>
      <trkpt lat="44.85125" lon="1.97068">
        <ele>239</ele>
        <time>2018-05-20T14:33:53Z</time>
      </trkpt>
      <trkpt lat="44.85128" lon="1.97062">
        <ele>238.8</ele>
        <time>2018-05-20T14:33:57Z</time>
      </trkpt>
      <trkpt lat="44.85131" lon="1.97057">
        <ele>238.6</ele>
        <time>2018-05-20T14:34:01Z</time>
      </trkpt>
      <trkpt lat="44.85134" lon="1.97052">
        <ele>238.5</ele>
        <time>2018-05-20T14:34:05Z</time>
      </trkpt>
      <trkpt lat="44.85139" lon="1.97046">
        <ele>238.5</ele>
        <time>2018-05-20T14:34:09Z</time>
      </trkpt>
      <trkpt lat="44.85144" lon="1.97044">
        <ele>238.6</ele>
        <time>2018-05-20T14:34:12Z</time>
      </trkpt>
      <trkpt lat="44.85148" lon="1.97041">
        <ele>238.9</ele>
        <time>2018-05-20T14:34:15Z</time>
      </trkpt>
      <trkpt lat="44.85153" lon="1.97038">
        <ele>239.2</ele>
        <time>2018-05-20T14:34:19Z</time>
      </trkpt>
      <trkpt lat="44.85159" lon="1.97039">
        <ele>239.5</ele>
        <time>2018-05-20T14:34:23Z</time>
      </trkpt>
      <trkpt lat="44.85164" lon="1.97037">
        <ele>239.8</ele>
        <time>2018-05-20T14:34:28Z</time>
      </trkpt>
      <trkpt lat="44.85169" lon="1.97036">
        <ele>240.1</ele>
        <time>2018-05-20T14:34:33Z</time>
      </trkpt>
      <trkpt lat="44.85175" lon="1.97037">
        <ele>240.1</ele>
        <time>2018-05-20T14:34:38Z</time>
      </trkpt>
      <trkpt lat="44.8518" lon="1.97038">
        <ele>240.1</ele>
        <time>2018-05-20T14:34:41Z</time>
      </trkpt>
      <trkpt lat="44.85185" lon="1.97039">
        <ele>240.1</ele>
        <time>2018-05-20T14:34:44Z</time>
      </trkpt>
      <trkpt lat="44.8519" lon="1.9704">
        <ele>240</ele>
        <time>2018-05-20T14:34:47Z</time>
      </trkpt>
      <trkpt lat="44.85195" lon="1.97038">
        <ele>239.9</ele>
        <time>2018-05-20T14:34:50Z</time>
      </trkpt>
      <trkpt lat="44.852" lon="1.97038">
        <ele>239.8</ele>
        <time>2018-05-20T14:34:54Z</time>
      </trkpt>
      <trkpt lat="44.85205" lon="1.97034">
        <ele>239.8</ele>
        <time>2018-05-20T14:35:00Z</time>
      </trkpt>
      <trkpt lat="44.85209" lon="1.97028">
        <ele>239.9</ele>
        <time>2018-05-20T14:35:04Z</time>
      </trkpt>
      <trkpt lat="44.85213" lon="1.97024">
        <ele>240.1</ele>
        <time>2018-05-20T14:35:08Z</time>
      </trkpt>
      <trkpt lat="44.85216" lon="1.97019">
        <ele>240.4</ele>
        <time>2018-05-20T14:35:13Z</time>
      </trkpt>
      <trkpt lat="44.8522" lon="1.97014">
        <ele>240.6</ele>
        <time>2018-05-20T14:35:17Z</time>
      </trkpt>
      <trkpt lat="44.85225" lon="1.9701">
        <ele>240.9</ele>
        <time>2018-05-20T14:35:21Z</time>
      </trkpt>
      <trkpt lat="44.85229" lon="1.97005">
        <ele>241.2</ele>
        <time>2018-05-20T14:35:23Z</time>
      </trkpt>
      <trkpt lat="44.85233" lon="1.97">
        <ele>241.4</ele>
        <time>2018-05-20T14:35:26Z</time>
      </trkpt>
      <trkpt lat="44.85237" lon="1.96995">
        <ele>241.7</ele>
        <time>2018-05-20T14:35:29Z</time>
      </trkpt>
      <trkpt lat="44.8524" lon="1.96991">
        <ele>241.9</ele>
        <time>2018-05-20T14:35:32Z</time>
      </trkpt>
      <trkpt lat="44.85244" lon="1.96985">
        <ele>242.2</ele>
        <time>2018-05-20T14:35:36Z</time>
      </trkpt>
      <trkpt lat="44.85246" lon="1.96979">
        <ele>242.5</ele>
        <time>2018-05-20T14:35:39Z</time>
      </trkpt>
      <trkpt lat="44.8525" lon="1.96974">
        <ele>242.8</ele>
        <time>2018-05-20T14:35:43Z</time>
      </trkpt>
      <trkpt lat="44.85253" lon="1.96968">
        <ele>243.1</ele>
        <time>2018-05-20T14:35:47Z</time>
      </trkpt>
      <trkpt lat="44.85258" lon="1.96964">
        <ele>243.3</ele>
        <time>2018-05-20T14:35:51Z</time>
      </trkpt>
      <trkpt lat="44.85263" lon="1.96959">
        <ele>243.4</ele>
        <time>2018-05-20T14:35:55Z</time>
      </trkpt>
      <trkpt lat="44.85268" lon="1.96955">
        <ele>243.5</ele>
        <time>2018-05-20T14:35:59Z</time>
      </trkpt>
      <trkpt lat="44.85272" lon="1.9695">
        <ele>243.5</ele>
        <time>2018-05-20T14:36:03Z</time>
      </trkpt>
      <trkpt lat="44.85276" lon="1.96945">
        <ele>243.4</ele>
        <time>2018-05-20T14:36:07Z</time>
      </trkpt>
      <trkpt lat="44.8528" lon="1.9694">
        <ele>243.4</ele>
        <time>2018-05-20T14:36:10Z</time>
      </trkpt>
      <trkpt lat="44.85284" lon="1.96936">
        <ele>243.3</ele>
        <time>2018-05-20T14:36:13Z</time>
      </trkpt>
      <trkpt lat="44.85288" lon="1.96933">
        <ele>243.3</ele>
        <time>2018-05-20T14:36:16Z</time>
      </trkpt>
      <trkpt lat="44.85294" lon="1.9693">
        <ele>243.2</ele>
        <time>2018-05-20T14:36:21Z</time>
      </trkpt>
      <trkpt lat="44.85297" lon="1.96923">
        <ele>243.1</ele>
        <time>2018-05-20T14:36:25Z</time>
      </trkpt>
      <trkpt lat="44.85302" lon="1.96919">
        <ele>243</ele>
        <time>2018-05-20T14:36:29Z</time>
      </trkpt>
      <trkpt lat="44.85305" lon="1.96915">
        <ele>242.7</ele>
        <time>2018-05-20T14:36:32Z</time>
      </trkpt>
      <trkpt lat="44.8531" lon="1.96912">
        <ele>242.3</ele>
        <time>2018-05-20T14:36:36Z</time>
      </trkpt>
      <trkpt lat="44.85315" lon="1.96908">
        <ele>241.8</ele>
        <time>2018-05-20T14:36:39Z</time>
      </trkpt>
      <trkpt lat="44.85319" lon="1.96904">
        <ele>241.2</ele>
        <time>2018-05-20T14:36:42Z</time>
      </trkpt>
      <trkpt lat="44.85324" lon="1.969">
        <ele>240.6</ele>
        <time>2018-05-20T14:36:46Z</time>
      </trkpt>
      <trkpt lat="44.85328" lon="1.96898">
        <ele>240.1</ele>
        <time>2018-05-20T14:36:50Z</time>
      </trkpt>
      <trkpt lat="44.85333" lon="1.96893">
        <ele>239.7</ele>
        <time>2018-05-20T14:36:54Z</time>
      </trkpt>
      <trkpt lat="44.85337" lon="1.96888">
        <ele>239.5</ele>
        <time>2018-05-20T14:36:57Z</time>
      </trkpt>
      <trkpt lat="44.8534" lon="1.96882">
        <ele>239.3</ele>
        <time>2018-05-20T14:37:00Z</time>
      </trkpt>
      <trkpt lat="44.85343" lon="1.96876">
        <ele>239.1</ele>
        <time>2018-05-20T14:37:03Z</time>
      </trkpt>
      <trkpt lat="44.85346" lon="1.96872">
        <ele>239</ele>
        <time>2018-05-20T14:37:06Z</time>
      </trkpt>
      <trkpt lat="44.8535" lon="1.96867">
        <ele>239</ele>
        <time>2018-05-20T14:37:10Z</time>
      </trkpt>
      <trkpt lat="44.85355" lon="1.96862">
        <ele>239</ele>
        <time>2018-05-20T14:37:15Z</time>
      </trkpt>
      <trkpt lat="44.85359" lon="1.96859">
        <ele>239</ele>
        <time>2018-05-20T14:37:18Z</time>
      </trkpt>
      <trkpt lat="44.85363" lon="1.96854">
        <ele>239.1</ele>
        <time>2018-05-20T14:37:22Z</time>
      </trkpt>
      <trkpt lat="44.85367" lon="1.96849">
        <ele>239.1</ele>
        <time>2018-05-20T14:37:25Z</time>
      </trkpt>
      <trkpt lat="44.85371" lon="1.96845">
        <ele>239.2</ele>
        <time>2018-05-20T14:37:29Z</time>
      </trkpt>
      <trkpt lat="44.85374" lon="1.96839">
        <ele>239.3</ele>
        <time>2018-05-20T14:37:33Z</time>
      </trkpt>
      <trkpt lat="44.85377" lon="1.96835">
        <ele>239.5</ele>
        <time>2018-05-20T14:37:36Z</time>
      </trkpt>
      <trkpt lat="44.85381" lon="1.96829">
        <ele>239.8</ele>
        <time>2018-05-20T14:37:40Z</time>
      </trkpt>
      <trkpt lat="44.85384" lon="1.96823">
        <ele>240.2</ele>
        <time>2018-05-20T14:37:44Z</time>
      </trkpt>
      <trkpt lat="44.85387" lon="1.96817">
        <ele>240.5</ele>
        <time>2018-05-20T14:37:47Z</time>
      </trkpt>
      <trkpt lat="44.85389" lon="1.96811">
        <ele>240.8</ele>
        <time>2018-05-20T14:37:52Z</time>
      </trkpt>
      <trkpt lat="44.85392" lon="1.96804">
        <ele>240.9</ele>
        <time>2018-05-20T14:37:56Z</time>
      </trkpt>
      <trkpt lat="44.85395" lon="1.96799">
        <ele>240.9</ele>
        <time>2018-05-20T14:38:00Z</time>
      </trkpt>
      <trkpt lat="44.85399" lon="1.96793">
        <ele>240.8</ele>
        <time>2018-05-20T14:38:04Z</time>
      </trkpt>
      <trkpt lat="44.85402" lon="1.96787">
        <ele>240.6</ele>
        <time>2018-05-20T14:38:08Z</time>
      </trkpt>
      <trkpt lat="44.85404" lon="1.96781">
        <ele>240.4</ele>
        <time>2018-05-20T14:38:11Z</time>
      </trkpt>
      <trkpt lat="44.85407" lon="1.96775">
        <ele>240.2</ele>
        <time>2018-05-20T14:38:14Z</time>
      </trkpt>
      <trkpt lat="44.85411" lon="1.9677">
        <ele>240.1</ele>
        <time>2018-05-20T14:38:19Z</time>
      </trkpt>
      <trkpt lat="44.85415" lon="1.96763">
        <ele>240</ele>
        <time>2018-05-20T14:38:21Z</time>
      </trkpt>
      <trkpt lat="44.85418" lon="1.96758">
        <ele>239.8</ele>
        <time>2018-05-20T14:38:24Z</time>
      </trkpt>
      <trkpt lat="44.85421" lon="1.96753">
        <ele>239.6</ele>
        <time>2018-05-20T14:38:28Z</time>
      </trkpt>
      <trkpt lat="44.85423" lon="1.96746">
        <ele>239.3</ele>
        <time>2018-05-20T14:38:32Z</time>
      </trkpt>
      <trkpt lat="44.85425" lon="1.96739">
        <ele>239</ele>
        <time>2018-05-20T14:38:36Z</time>
      </trkpt>
      <trkpt lat="44.85428" lon="1.96731">
        <ele>238.8</ele>
        <time>2018-05-20T14:38:39Z</time>
      </trkpt>
      <trkpt lat="44.8543" lon="1.96724">
        <ele>238.6</ele>
        <time>2018-05-20T14:38:43Z</time>
      </trkpt>
      <trkpt lat="44.85433" lon="1.96718">
        <ele>238.3</ele>
        <time>2018-05-20T14:38:47Z</time>
      </trkpt>
      <trkpt lat="44.85435" lon="1.9671">
        <ele>237.9</ele>
        <time>2018-05-20T14:38:51Z</time>
      </trkpt>
      <trkpt lat="44.85438" lon="1.96704">
        <ele>237.4</ele>
        <time>2018-05-20T14:38:55Z</time>
      </trkpt>
      <trkpt lat="44.85441" lon="1.96698">
        <ele>236.6</ele>
        <time>2018-05-20T14:39:02Z</time>
      </trkpt>
      <trkpt lat="44.85444" lon="1.96691">
        <ele>235.7</ele>
        <time>2018-05-20T14:39:06Z</time>
      </trkpt>
      <trkpt lat="44.85447" lon="1.96685">
        <ele>234.9</ele>
        <time>2018-05-20T14:39:11Z</time>
      </trkpt>
      <trkpt lat="44.8545" lon="1.96679">
        <ele>234.2</ele>
        <time>2018-05-20T14:39:15Z</time>
      </trkpt>
      <trkpt lat="44.85452" lon="1.96673">
        <ele>233.5</ele>
        <time>2018-05-20T14:39:19Z</time>
      </trkpt>
      <trkpt lat="44.85454" lon="1.96667">
        <ele>233</ele>
        <time>2018-05-20T14:39:23Z</time>
      </trkpt>
      <trkpt lat="44.85455" lon="1.9666">
        <ele>232.6</ele>
        <time>2018-05-20T14:39:26Z</time>
      </trkpt>
      <trkpt lat="44.85455" lon="1.96653">
        <ele>232.3</ele>
        <time>2018-05-20T14:39:29Z</time>
      </trkpt>
      <trkpt lat="44.85455" lon="1.96645">
        <ele>232</ele>
        <time>2018-05-20T14:39:32Z</time>
      </trkpt>
      <trkpt lat="44.85457" lon="1.96639">
        <ele>231.8</ele>
        <time>2018-05-20T14:39:35Z</time>
      </trkpt>
      <trkpt lat="44.85457" lon="1.96632">
        <ele>231.6</ele>
        <time>2018-05-20T14:39:38Z</time>
      </trkpt>
      <trkpt lat="44.85456" lon="1.96625">
        <ele>231.4</ele>
        <time>2018-05-20T14:39:41Z</time>
      </trkpt>
      <trkpt lat="44.85457" lon="1.96619">
        <ele>231.2</ele>
        <time>2018-05-20T14:39:45Z</time>
      </trkpt>
      <trkpt lat="44.85456" lon="1.96612">
        <ele>230.9</ele>
        <time>2018-05-20T14:39:50Z</time>
      </trkpt>
      <trkpt lat="44.85454" lon="1.96604">
        <ele>230.6</ele>
        <time>2018-05-20T14:39:54Z</time>
      </trkpt>
      <trkpt lat="44.85453" lon="1.96597">
        <ele>230.3</ele>
        <time>2018-05-20T14:39:57Z</time>
      </trkpt>
      <trkpt lat="44.85451" lon="1.9659">
        <ele>229.9</ele>
        <time>2018-05-20T14:40:00Z</time>
      </trkpt>
      <trkpt lat="44.85452" lon="1.96583">
        <ele>229.4</ele>
        <time>2018-05-20T14:40:04Z</time>
      </trkpt>
      <trkpt lat="44.8545" lon="1.96577">
        <ele>229</ele>
        <time>2018-05-20T14:40:08Z</time>
      </trkpt>
      <trkpt lat="44.85447" lon="1.96571">
        <ele>228.4</ele>
        <time>2018-05-20T14:40:12Z</time>
      </trkpt>
      <trkpt lat="44.85447" lon="1.96565">
        <ele>227.9</ele>
        <time>2018-05-20T14:40:15Z</time>
      </trkpt>
      <trkpt lat="44.85446" lon="1.96557">
        <ele>227.3</ele>
        <time>2018-05-20T14:40:18Z</time>
      </trkpt>
      <trkpt lat="44.85446" lon="1.96549">
        <ele>226.8</ele>
        <time>2018-05-20T14:40:21Z</time>
      </trkpt>
      <trkpt lat="44.85445" lon="1.96542">
        <ele>226.4</ele>
        <time>2018-05-20T14:40:24Z</time>
      </trkpt>
      <trkpt lat="44.85441" lon="1.96537">
        <ele>226</ele>
        <time>2018-05-20T14:40:28Z</time>
      </trkpt>
      <trkpt lat="44.85441" lon="1.96529">
        <ele>225.7</ele>
        <time>2018-05-20T14:40:31Z</time>
      </trkpt>
      <trkpt lat="44.85439" lon="1.96522">
        <ele>225.6</ele>
        <time>2018-05-20T14:40:34Z</time>
      </trkpt>
      <trkpt lat="44.85437" lon="1.96516">
        <ele>225.6</ele>
        <time>2018-05-20T14:40:37Z</time>
      </trkpt>
      <trkpt lat="44.85436" lon="1.9651">
        <ele>225.6</ele>
        <time>2018-05-20T14:40:41Z</time>
      </trkpt>
      <trkpt lat="44.85435" lon="1.96502">
        <ele>225.6</ele>
        <time>2018-05-20T14:40:45Z</time>
      </trkpt>
      <trkpt lat="44.85434" lon="1.96494">
        <ele>225.5</ele>
        <time>2018-05-20T14:40:49Z</time>
      </trkpt>
      <trkpt lat="44.85432" lon="1.96487">
        <ele>225.3</ele>
        <time>2018-05-20T14:40:52Z</time>
      </trkpt>
      <trkpt lat="44.85433" lon="1.9648">
        <ele>225</ele>
        <time>2018-05-20T14:40:56Z</time>
      </trkpt>
      <trkpt lat="44.85434" lon="1.96474">
        <ele>224.8</ele>
        <time>2018-05-20T14:41:00Z</time>
      </trkpt>
      <trkpt lat="44.85434" lon="1.96466">
        <ele>224.5</ele>
        <time>2018-05-20T14:41:05Z</time>
      </trkpt>
      <trkpt lat="44.85431" lon="1.9646">
        <ele>224.3</ele>
        <time>2018-05-20T14:41:08Z</time>
      </trkpt>
      <trkpt lat="44.8543" lon="1.96454">
        <ele>224.1</ele>
        <time>2018-05-20T14:41:12Z</time>
      </trkpt>
      <trkpt lat="44.85428" lon="1.96446">
        <ele>223.9</ele>
        <time>2018-05-20T14:41:16Z</time>
      </trkpt>
      <trkpt lat="44.85427" lon="1.96438">
        <ele>223.8</ele>
        <time>2018-05-20T14:41:20Z</time>
      </trkpt>
      <trkpt lat="44.85427" lon="1.96431">
        <ele>223.6</ele>
        <time>2018-05-20T14:41:24Z</time>
      </trkpt>
      <trkpt lat="44.85426" lon="1.96424">
        <ele>223.6</ele>
        <time>2018-05-20T14:41:28Z</time>
      </trkpt>
      <trkpt lat="44.85424" lon="1.96417">
        <ele>223.6</ele>
        <time>2018-05-20T14:41:32Z</time>
      </trkpt>
      <trkpt lat="44.85423" lon="1.9641">
        <ele>223.5</ele>
        <time>2018-05-20T14:41:36Z</time>
      </trkpt>
      <trkpt lat="44.85422" lon="1.96403">
        <ele>223.4</ele>
        <time>2018-05-20T14:41:41Z</time>
      </trkpt>
      <trkpt lat="44.85423" lon="1.96395">
        <ele>223.4</ele>
        <time>2018-05-20T14:41:45Z</time>
      </trkpt>
      <trkpt lat="44.85426" lon="1.9639">
        <ele>223.6</ele>
        <time>2018-05-20T14:41:50Z</time>
      </trkpt>
      <trkpt lat="44.85428" lon="1.96383">
        <ele>223.3</ele>
        <time>2018-05-20T14:41:55Z</time>
      </trkpt>
      <trkpt lat="44.85428" lon="1.96375">
        <ele>223.1</ele>
        <time>2018-05-20T14:41:59Z</time>
      </trkpt>
      <trkpt lat="44.85427" lon="1.96368">
        <ele>223.1</ele>
        <time>2018-05-20T14:42:04Z</time>
      </trkpt>
    </trkseg>
  </trk>
</gpx>